<?xml version="1.0" encoding="UTF-8" standalone="no" ?><gpx xmlns="http://www.topografix.com/GPX/1/1" xmlns:gpxx="http://www.garmin.com/xmlschemas/GpxExtensions/v3" xmlns:wptx1="http://www.garmin.com/xmlschemas/WaypointExtension/v1" xmlns:gpxtpx="http://www.garmin.com/xmlschemas/TrackPointExtension/v1" creator="GuideVTT.com" version="1.1" xmlns:xsi="http://www.w3.org/2001/XMLSchema-instance" xsi:schemaLocation="http://www.topografix.com/GPX/1/1 http://www.topografix.com/GPX/1/1/gpx.xsd http://www.garmin.com/xmlschemas/GpxExtensions/v3 http://www8.garmin.com/xmlschemas/GpxExtensionsv3.xsd http://www.garmin.com/xmlschemas/WaypointExtension/v1 http://www8.garmin.com/xmlschemas/WaypointExtensionv1.xsd http://www.garmin.com/xmlschemas/TrackPointExtension/v1 http://www.garmin.com/xmlschemas/TrackPointExtensionv1.xsd">
<metadata><link href="http://www.garmin.com"><text>Garmin International</text></link><time>2013-06-22T15:13:50Z</time></metadata>
<trk><name>a03.gpx</name><extensions><gpxx:TrackExtension><gpxx:DisplayColor>Cyan</gpxx:DisplayColor></gpxx:TrackExtension></extensions><trkseg>
<trkpt lat="45.394116" lon="4.456868"><ele>441.3</ele><time>2008-29-09T10:05:58Z</time></trkpt>
<trkpt lat="45.394114" lon="4.456882"><ele>441.3</ele><time>2008-29-09T10:05:59Z</time></trkpt>
<trkpt lat="45.394111" lon="4.45691"><ele>441.3</ele><time>2008-29-09T10:06:00Z</time></trkpt>
<trkpt lat="45.39411" lon="4.456871"><ele>441.3</ele><time>2008-29-09T10:06:01Z</time></trkpt>
<trkpt lat="45.394109" lon="4.456861"><ele>441.3</ele><time>2008-29-09T10:06:02Z</time></trkpt>
<trkpt lat="45.394108" lon="4.456836"><ele>441.3</ele><time>2008-29-09T10:06:03Z</time></trkpt>
<trkpt lat="45.394105" lon="4.456859"><ele>441.3</ele><time>2008-29-09T10:06:04Z</time></trkpt>
<trkpt lat="45.394105" lon="4.45687"><ele>441.3</ele><time>2008-29-09T10:06:05Z</time></trkpt>
<trkpt lat="45.394085" lon="4.456854"><ele>441.3</ele><time>2008-29-09T10:06:06Z</time></trkpt>
<trkpt lat="45.394072" lon="4.456884"><ele>441.3</ele><time>2008-29-09T10:06:07Z</time></trkpt>
<trkpt lat="45.394053" lon="4.456885"><ele>441.3</ele><time>2008-29-09T10:06:08Z</time></trkpt>
<trkpt lat="45.394041" lon="4.456884"><ele>441.3</ele><time>2008-29-09T10:06:09Z</time></trkpt>
<trkpt lat="45.394018" lon="4.456853"><ele>441.3</ele><time>2008-29-09T10:06:10Z</time></trkpt>
<trkpt lat="45.39399" lon="4.456846"><ele>441.3</ele><time>2008-29-09T10:06:11Z</time></trkpt>
<trkpt lat="45.393963" lon="4.456872"><ele>441.3</ele><time>2008-29-09T10:06:12Z</time></trkpt>
<trkpt lat="45.393951" lon="4.45694"><ele>441.3</ele><time>2008-29-09T10:06:13Z</time></trkpt>
<trkpt lat="45.39392" lon="4.456986"><ele>441.3</ele><time>2008-29-09T10:06:14Z</time></trkpt>
<trkpt lat="45.393905" lon="4.456978"><ele>441.3</ele><time>2008-29-09T10:06:15Z</time></trkpt>
<trkpt lat="45.393881" lon="4.456969"><ele>441.3</ele><time>2008-29-09T10:06:16Z</time></trkpt>
<trkpt lat="45.393867" lon="4.45701"><ele>441.3</ele><time>2008-29-09T10:06:17Z</time></trkpt>
<trkpt lat="45.393824" lon="4.457029"><ele>441.3</ele><time>2008-29-09T10:06:18Z</time></trkpt>
<trkpt lat="45.393797" lon="4.457031"><ele>441.3</ele><time>2008-29-09T10:06:19Z</time></trkpt>
<trkpt lat="45.393748" lon="4.45701"><ele>441.3</ele><time>2008-29-09T10:06:20Z</time></trkpt>
<trkpt lat="45.393727" lon="4.457001"><ele>0</ele><time>2008-29-09T10:06:21Z</time></trkpt>
<trkpt lat="45.393757" lon="4.457134"><ele>0</ele><time>2008-29-09T10:06:24Z</time></trkpt>
<trkpt lat="45.393792" lon="4.457185"><ele>441.3</ele><time>2008-29-09T10:06:26Z</time></trkpt>
<trkpt lat="45.393817" lon="4.457209"><ele>441.3</ele><time>2008-29-09T10:06:27Z</time></trkpt>
<trkpt lat="45.393855" lon="4.457194"><ele>441.3</ele><time>2008-29-09T10:06:28Z</time></trkpt>
<trkpt lat="45.393891" lon="4.45716"><ele>441.3</ele><time>2008-29-09T10:06:29Z</time></trkpt>
<trkpt lat="45.393937" lon="4.45716"><ele>441.3</ele><time>2008-29-09T10:06:30Z</time></trkpt>
<trkpt lat="45.39397" lon="4.457164"><ele>441.3</ele><time>2008-29-09T10:06:31Z</time></trkpt>
<trkpt lat="45.393962" lon="4.457147"><ele>441.3</ele><time>2008-29-09T10:06:32Z</time></trkpt>
<trkpt lat="45.393966" lon="4.457137"><ele>441.3</ele><time>2008-29-09T10:06:33Z</time></trkpt>
<trkpt lat="45.39399" lon="4.457184"><ele>441.3</ele><time>2008-29-09T10:06:34Z</time></trkpt>
<trkpt lat="45.394003" lon="4.457237"><ele>441.3</ele><time>2008-29-09T10:06:35Z</time></trkpt>
<trkpt lat="45.39396" lon="4.457291"><ele>441.3</ele><time>2008-29-09T10:06:36Z</time></trkpt>
<trkpt lat="45.393919" lon="4.457281"><ele>441.3</ele><time>2008-29-09T10:06:37Z</time></trkpt>
<trkpt lat="45.393896" lon="4.457361"><ele>441.3</ele><time>2008-29-09T10:06:38Z</time></trkpt>
<trkpt lat="45.393873" lon="4.457417"><ele>441.3</ele><time>2008-29-09T10:06:39Z</time></trkpt>
<trkpt lat="45.393854" lon="4.457423"><ele>441.3</ele><time>2008-29-09T10:06:40Z</time></trkpt>
<trkpt lat="45.39382" lon="4.457443"><ele>441.3</ele><time>2008-29-09T10:06:41Z</time></trkpt>
<trkpt lat="45.393785" lon="4.457449"><ele>441.3</ele><time>2008-29-09T10:06:42Z</time></trkpt>
<trkpt lat="45.393764" lon="4.457444"><ele>441.3</ele><time>2008-29-09T10:06:43Z</time></trkpt>
<trkpt lat="45.393752" lon="4.457396"><ele>441.3</ele><time>2008-29-09T10:06:44Z</time></trkpt>
<trkpt lat="45.393727" lon="4.457341"><ele>441.3</ele><time>2008-29-09T10:06:45Z</time></trkpt>
<trkpt lat="45.39372" lon="4.457283"><ele>441.3</ele><time>2008-29-09T10:06:46Z</time></trkpt>
<trkpt lat="45.393702" lon="4.457262"><ele>441.3</ele><time>2008-29-09T10:06:47Z</time></trkpt>
<trkpt lat="45.393688" lon="4.457203"><ele>441.3</ele><time>2008-29-09T10:06:48Z</time></trkpt>
<trkpt lat="45.393676" lon="4.457186"><ele>441.3</ele><time>2008-29-09T10:06:49Z</time></trkpt>
<trkpt lat="45.393673" lon="4.45716"><ele>441.3</ele><time>2008-29-09T10:06:50Z</time></trkpt>
<trkpt lat="45.393651" lon="4.457118"><ele>441.3</ele><time>2008-29-09T10:06:51Z</time></trkpt>
<trkpt lat="45.393647" lon="4.457085"><ele>441.3</ele><time>2008-29-09T10:06:52Z</time></trkpt>
<trkpt lat="45.393642" lon="4.457062"><ele>441.3</ele><time>2008-29-09T10:06:53Z</time></trkpt>
<trkpt lat="45.393633" lon="4.457015"><ele>441.3</ele><time>2008-29-09T10:06:54Z</time></trkpt>
<trkpt lat="45.393634" lon="4.456969"><ele>441.3</ele><time>2008-29-09T10:06:55Z</time></trkpt>
<trkpt lat="45.393619" lon="4.456939"><ele>441.3</ele><time>2008-29-09T10:06:56Z</time></trkpt>
<trkpt lat="45.393614" lon="4.456911"><ele>441.3</ele><time>2008-29-09T10:06:57Z</time></trkpt>
<trkpt lat="45.393586" lon="4.456881"><ele>441.3</ele><time>2008-29-09T10:06:58Z</time></trkpt>
<trkpt lat="45.39356" lon="4.456838"><ele>441.3</ele><time>2008-29-09T10:06:59Z</time></trkpt>
<trkpt lat="45.393545" lon="4.456849"><ele>441.3</ele><time>2008-29-09T10:07:00Z</time></trkpt>
<trkpt lat="45.393534" lon="4.456766"><ele>441.3</ele><time>2008-29-09T10:07:01Z</time></trkpt>
<trkpt lat="45.393515" lon="4.456758"><ele>441.3</ele><time>2008-29-09T10:07:02Z</time></trkpt>
<trkpt lat="45.393503" lon="4.456767"><ele>441.3</ele><time>2008-29-09T10:07:03Z</time></trkpt>
<trkpt lat="45.393483" lon="4.456755"><ele>441.3</ele><time>2008-29-09T10:07:04Z</time></trkpt>
<trkpt lat="45.393467" lon="4.456725"><ele>237.5</ele><time>2008-29-09T10:07:05Z</time></trkpt>
<trkpt lat="45.39417" lon="4.456556"><ele>236</ele><time>2008-29-09T10:07:06Z</time></trkpt>
<trkpt lat="45.394166" lon="4.456535"><ele>233.9</ele><time>2008-29-09T10:07:07Z</time></trkpt>
<trkpt lat="45.394156" lon="4.456506"><ele>230.6</ele><time>2008-29-09T10:07:08Z</time></trkpt>
<trkpt lat="45.394152" lon="4.456492"><ele>243.3</ele><time>2008-29-09T10:07:09Z</time></trkpt>
<trkpt lat="45.394088" lon="4.45646"><ele>237.8</ele><time>2008-29-09T10:07:10Z</time></trkpt>
<trkpt lat="45.394094" lon="4.456447"><ele>235.1</ele><time>2008-29-09T10:07:11Z</time></trkpt>
<trkpt lat="45.394091" lon="4.456421"><ele>238.5</ele><time>2008-29-09T10:07:12Z</time></trkpt>
<trkpt lat="45.394064" lon="4.456396"><ele>241.3</ele><time>2008-29-09T10:07:13Z</time></trkpt>
<trkpt lat="45.394038" lon="4.456377"><ele>242.4</ele><time>2008-29-09T10:07:14Z</time></trkpt>
<trkpt lat="45.394023" lon="4.456354"><ele>242.2</ele><time>2008-29-09T10:07:15Z</time></trkpt>
<trkpt lat="45.394013" lon="4.45633"><ele>242</ele><time>2008-29-09T10:07:16Z</time></trkpt>
<trkpt lat="45.394001" lon="4.456311"><ele>241</ele><time>2008-29-09T10:07:17Z</time></trkpt>
<trkpt lat="45.393989" lon="4.456302"><ele>239.3</ele><time>2008-29-09T10:07:18Z</time></trkpt>
<trkpt lat="45.393976" lon="4.456299"><ele>238.4</ele><time>2008-29-09T10:07:19Z</time></trkpt>
<trkpt lat="45.393959" lon="4.456301"><ele>237.9</ele><time>2008-29-09T10:07:20Z</time></trkpt>
<trkpt lat="45.39394" lon="4.456306"><ele>238.2</ele><time>2008-29-09T10:07:21Z</time></trkpt>
<trkpt lat="45.393917" lon="4.456311"><ele>238.4</ele><time>2008-29-09T10:07:22Z</time></trkpt>
<trkpt lat="45.393897" lon="4.456321"><ele>238.4</ele><time>2008-29-09T10:07:23Z</time></trkpt>
<trkpt lat="45.393878" lon="4.456336"><ele>237.7</ele><time>2008-29-09T10:07:24Z</time></trkpt>
<trkpt lat="45.39386" lon="4.456349"><ele>236.5</ele><time>2008-29-09T10:07:25Z</time></trkpt>
<trkpt lat="45.393844" lon="4.456363"><ele>237.5</ele><time>2008-29-09T10:07:26Z</time></trkpt>
<trkpt lat="45.39382" lon="4.456368"><ele>238.3</ele><time>2008-29-09T10:07:27Z</time></trkpt>
<trkpt lat="45.393793" lon="4.456376"><ele>240.5</ele><time>2008-29-09T10:07:28Z</time></trkpt>
<trkpt lat="45.393764" lon="4.456383"><ele>241.1</ele><time>2008-29-09T10:07:29Z</time></trkpt>
<trkpt lat="45.393742" lon="4.456391"><ele>241.9</ele><time>2008-29-09T10:07:30Z</time></trkpt>
<trkpt lat="45.393719" lon="4.456399"><ele>241</ele><time>2008-29-09T10:07:31Z</time></trkpt>
<trkpt lat="45.393702" lon="4.456418"><ele>240.9</ele><time>2008-29-09T10:07:32Z</time></trkpt>
<trkpt lat="45.393682" lon="4.456436"><ele>240.4</ele><time>2008-29-09T10:07:33Z</time></trkpt>
<trkpt lat="45.393661" lon="4.45645"><ele>239.2</ele><time>2008-29-09T10:07:34Z</time></trkpt>
<trkpt lat="45.393643" lon="4.456467"><ele>238.1</ele><time>2008-29-09T10:07:35Z</time></trkpt>
<trkpt lat="45.393624" lon="4.456487"><ele>237.3</ele><time>2008-29-09T10:07:36Z</time></trkpt>
<trkpt lat="45.393603" lon="4.45651"><ele>236.6</ele><time>2008-29-09T10:07:37Z</time></trkpt>
<trkpt lat="45.393583" lon="4.456534"><ele>234.8</ele><time>2008-29-09T10:07:38Z</time></trkpt>
<trkpt lat="45.393563" lon="4.456557"><ele>233.5</ele><time>2008-29-09T10:07:39Z</time></trkpt>
<trkpt lat="45.393543" lon="4.456581"><ele>232.1</ele><time>2008-29-09T10:07:40Z</time></trkpt>
<trkpt lat="45.393525" lon="4.456609"><ele>230.6</ele><time>2008-29-09T10:07:41Z</time></trkpt>
<trkpt lat="45.393505" lon="4.456636"><ele>229.3</ele><time>2008-29-09T10:07:42Z</time></trkpt>
<trkpt lat="45.393485" lon="4.456652"><ele>228.2</ele><time>2008-29-09T10:07:43Z</time></trkpt>
<trkpt lat="45.393461" lon="4.456667"><ele>227.6</ele><time>2008-29-09T10:07:44Z</time></trkpt>
<trkpt lat="45.393434" lon="4.456679"><ele>227</ele><time>2008-29-09T10:07:45Z</time></trkpt>
<trkpt lat="45.393408" lon="4.456689"><ele>226.1</ele><time>2008-29-09T10:07:46Z</time></trkpt>
<trkpt lat="45.393383" lon="4.456702"><ele>224.7</ele><time>2008-29-09T10:07:47Z</time></trkpt>
<trkpt lat="45.393363" lon="4.456712"><ele>230.2</ele><time>2008-29-09T10:07:48Z</time></trkpt>
<trkpt lat="45.393319" lon="4.45673"><ele>227.6</ele><time>2008-29-09T10:07:49Z</time></trkpt>
<trkpt lat="45.3933" lon="4.456727"><ele>227.4</ele><time>2008-29-09T10:07:50Z</time></trkpt>
<trkpt lat="45.393277" lon="4.456714"><ele>226.2</ele><time>2008-29-09T10:07:51Z</time></trkpt>
<trkpt lat="45.393257" lon="4.456696"><ele>226</ele><time>2008-29-09T10:07:52Z</time></trkpt>
<trkpt lat="45.393234" lon="4.456674"><ele>226.6</ele><time>2008-29-09T10:07:53Z</time></trkpt>
<trkpt lat="45.393208" lon="4.456651"><ele>226.9</ele><time>2008-29-09T10:07:54Z</time></trkpt>
<trkpt lat="45.393185" lon="4.456628"><ele>227</ele><time>2008-29-09T10:07:55Z</time></trkpt>
<trkpt lat="45.393162" lon="4.456604"><ele>227.7</ele><time>2008-29-09T10:07:56Z</time></trkpt>
<trkpt lat="45.393148" lon="4.456578"><ele>227.5</ele><time>2008-29-09T10:07:57Z</time></trkpt>
<trkpt lat="45.393124" lon="4.456555"><ele>228.2</ele><time>2008-29-09T10:07:58Z</time></trkpt>
<trkpt lat="45.393105" lon="4.456531"><ele>228.6</ele><time>2008-29-09T10:07:59Z</time></trkpt>
<trkpt lat="45.393081" lon="4.45651"><ele>229.6</ele><time>2008-29-09T10:08:00Z</time></trkpt>
<trkpt lat="45.393055" lon="4.456485"><ele>229.9</ele><time>2008-29-09T10:08:01Z</time></trkpt>
<trkpt lat="45.39303" lon="4.456465"><ele>231.4</ele><time>2008-29-09T10:08:02Z</time></trkpt>
<trkpt lat="45.393002" lon="4.45644"><ele>232.1</ele><time>2008-29-09T10:08:03Z</time></trkpt>
<trkpt lat="45.392975" lon="4.456415"><ele>232.4</ele><time>2008-29-09T10:08:04Z</time></trkpt>
<trkpt lat="45.392942" lon="4.456391"><ele>232.2</ele><time>2008-29-09T10:08:05Z</time></trkpt>
<trkpt lat="45.392912" lon="4.456369"><ele>231.5</ele><time>2008-29-09T10:08:06Z</time></trkpt>
<trkpt lat="45.392888" lon="4.456346"><ele>231.8</ele><time>2008-29-09T10:08:07Z</time></trkpt>
<trkpt lat="45.392864" lon="4.456325"><ele>233.1</ele><time>2008-29-09T10:08:08Z</time></trkpt>
<trkpt lat="45.392837" lon="4.4563"><ele>235</ele><time>2008-29-09T10:08:09Z</time></trkpt>
<trkpt lat="45.392809" lon="4.456277"><ele>236.7</ele><time>2008-29-09T10:08:10Z</time></trkpt>
<trkpt lat="45.39278" lon="4.456257"><ele>236.2</ele><time>2008-29-09T10:08:11Z</time></trkpt>
<trkpt lat="45.392757" lon="4.456236"><ele>234.1</ele><time>2008-29-09T10:08:12Z</time></trkpt>
<trkpt lat="45.392734" lon="4.456215"><ele>231.4</ele><time>2008-29-09T10:08:13Z</time></trkpt>
<trkpt lat="45.392713" lon="4.456196"><ele>230.5</ele><time>2008-29-09T10:08:14Z</time></trkpt>
<trkpt lat="45.392688" lon="4.456177"><ele>230</ele><time>2008-29-09T10:08:15Z</time></trkpt>
<trkpt lat="45.392664" lon="4.456159"><ele>229.2</ele><time>2008-29-09T10:08:16Z</time></trkpt>
<trkpt lat="45.392638" lon="4.456138"><ele>229.2</ele><time>2008-29-09T10:08:17Z</time></trkpt>
<trkpt lat="45.392613" lon="4.456119"><ele>229.6</ele><time>2008-29-09T10:08:18Z</time></trkpt>
<trkpt lat="45.392592" lon="4.456096"><ele>229.7</ele><time>2008-29-09T10:08:19Z</time></trkpt>
<trkpt lat="45.392565" lon="4.456074"><ele>229.8</ele><time>2008-29-09T10:08:20Z</time></trkpt>
<trkpt lat="45.392542" lon="4.456047"><ele>230.3</ele><time>2008-29-09T10:08:21Z</time></trkpt>
<trkpt lat="45.392524" lon="4.456018"><ele>229.5</ele><time>2008-29-09T10:08:22Z</time></trkpt>
<trkpt lat="45.392498" lon="4.455994"><ele>228.2</ele><time>2008-29-09T10:08:23Z</time></trkpt>
<trkpt lat="45.392475" lon="4.45597"><ele>229.5</ele><time>2008-29-09T10:08:24Z</time></trkpt>
<trkpt lat="45.392452" lon="4.455942"><ele>230</ele><time>2008-29-09T10:08:25Z</time></trkpt>
<trkpt lat="45.392433" lon="4.455914"><ele>230</ele><time>2008-29-09T10:08:26Z</time></trkpt>
<trkpt lat="45.392412" lon="4.455889"><ele>229.2</ele><time>2008-29-09T10:08:27Z</time></trkpt>
<trkpt lat="45.392388" lon="4.455865"><ele>228.7</ele><time>2008-29-09T10:08:28Z</time></trkpt>
<trkpt lat="45.392366" lon="4.455843"><ele>228.4</ele><time>2008-29-09T10:08:29Z</time></trkpt>
<trkpt lat="45.392345" lon="4.455824"><ele>228.6</ele><time>2008-29-09T10:08:30Z</time></trkpt>
<trkpt lat="45.392321" lon="4.455804"><ele>229.3</ele><time>2008-29-09T10:08:31Z</time></trkpt>
<trkpt lat="45.392296" lon="4.455785"><ele>229.3</ele><time>2008-29-09T10:08:32Z</time></trkpt>
<trkpt lat="45.392283" lon="4.455762"><ele>229.8</ele><time>2008-29-09T10:08:33Z</time></trkpt>
<trkpt lat="45.392257" lon="4.455746"><ele>229.7</ele><time>2008-29-09T10:08:34Z</time></trkpt>
<trkpt lat="45.392232" lon="4.455731"><ele>229.8</ele><time>2008-29-09T10:08:35Z</time></trkpt>
<trkpt lat="45.39221" lon="4.455717"><ele>229.9</ele><time>2008-29-09T10:08:36Z</time></trkpt>
<trkpt lat="45.392187" lon="4.455697"><ele>231.2</ele><time>2008-29-09T10:08:37Z</time></trkpt>
<trkpt lat="45.392162" lon="4.455682"><ele>232</ele><time>2008-29-09T10:08:38Z</time></trkpt>
<trkpt lat="45.392138" lon="4.455665"><ele>232.5</ele><time>2008-29-09T10:08:39Z</time></trkpt>
<trkpt lat="45.392115" lon="4.455645"><ele>231.7</ele><time>2008-29-09T10:08:40Z</time></trkpt>
<trkpt lat="45.392096" lon="4.455627"><ele>233.1</ele><time>2008-29-09T10:08:41Z</time></trkpt>
<trkpt lat="45.392075" lon="4.455614"><ele>234.7</ele><time>2008-29-09T10:08:42Z</time></trkpt>
<trkpt lat="45.392062" lon="4.455602"><ele>235.1</ele><time>2008-29-09T10:08:43Z</time></trkpt>
<trkpt lat="45.392057" lon="4.455598"><ele>236.2</ele><time>2008-29-09T10:08:44Z</time></trkpt>
<trkpt lat="45.392047" lon="4.455599"><ele>237.6</ele><time>2008-29-09T10:08:45Z</time></trkpt>
<trkpt lat="45.392038" lon="4.455603"><ele>237.8</ele><time>2008-29-09T10:08:46Z</time></trkpt>
<trkpt lat="45.392032" lon="4.455603"><ele>237.8</ele><time>2008-29-09T10:08:47Z</time></trkpt>
<trkpt lat="45.392032" lon="4.455603"><ele>237.8</ele><time>2008-29-09T10:08:48Z</time></trkpt>
<trkpt lat="45.392032" lon="4.455603"><ele>237.8</ele><time>2008-29-09T10:08:49Z</time></trkpt>
<trkpt lat="45.392032" lon="4.455603"><ele>237.8</ele><time>2008-29-09T10:08:50Z</time></trkpt>
<trkpt lat="45.392032" lon="4.455603"><ele>237.8</ele><time>2008-29-09T10:08:51Z</time></trkpt>
<trkpt lat="45.392032" lon="4.455603"><ele>237.8</ele><time>2008-29-09T10:08:52Z</time></trkpt>
<trkpt lat="45.392032" lon="4.455603"><ele>237.8</ele><time>2008-29-09T10:08:53Z</time></trkpt>
<trkpt lat="45.392032" lon="4.455603"><ele>247</ele><time>2008-29-09T10:08:54Z</time></trkpt>
<trkpt lat="45.392006" lon="4.45558"><ele>247</ele><time>2008-29-09T10:08:55Z</time></trkpt>
<trkpt lat="45.392006" lon="4.45558"><ele>247</ele><time>2008-29-09T10:08:56Z</time></trkpt>
<trkpt lat="45.392006" lon="4.45558"><ele>247</ele><time>2008-29-09T10:08:57Z</time></trkpt>
<trkpt lat="45.392006" lon="4.45558"><ele>247</ele><time>2008-29-09T10:08:58Z</time></trkpt>
<trkpt lat="45.392006" lon="4.45558"><ele>247</ele><time>2008-29-09T10:08:59Z</time></trkpt>
<trkpt lat="45.392006" lon="4.45558"><ele>247</ele><time>2008-29-09T10:09:00Z</time></trkpt>
<trkpt lat="45.392006" lon="4.45558"><ele>247</ele><time>2008-29-09T10:09:01Z</time></trkpt>
<trkpt lat="45.392006" lon="4.45558"><ele>247</ele><time>2008-29-09T10:09:02Z</time></trkpt>
<trkpt lat="45.392006" lon="4.45558"><ele>247</ele><time>2008-29-09T10:09:03Z</time></trkpt>
<trkpt lat="45.392006" lon="4.45558"><ele>247</ele><time>2008-29-09T10:09:04Z</time></trkpt>
<trkpt lat="45.392006" lon="4.45558"><ele>247</ele><time>2008-29-09T10:09:05Z</time></trkpt>
<trkpt lat="45.392006" lon="4.45558"><ele>247</ele><time>2008-29-09T10:09:06Z</time></trkpt>
<trkpt lat="45.392006" lon="4.45558"><ele>247.1</ele><time>2008-29-09T10:09:07Z</time></trkpt>
<trkpt lat="45.392006" lon="4.455573"><ele>247.2</ele><time>2008-29-09T10:09:08Z</time></trkpt>
<trkpt lat="45.392003" lon="4.455564"><ele>246.1</ele><time>2008-29-09T10:09:09Z</time></trkpt>
<trkpt lat="45.391994" lon="4.455559"><ele>246.2</ele><time>2008-29-09T10:09:10Z</time></trkpt>
<trkpt lat="45.391986" lon="4.455559"><ele>250.4</ele><time>2008-29-09T10:09:11Z</time></trkpt>
<trkpt lat="45.391967" lon="4.455541"><ele>249.4</ele><time>2008-29-09T10:09:12Z</time></trkpt>
<trkpt lat="45.391957" lon="4.455537"><ele>248</ele><time>2008-29-09T10:09:13Z</time></trkpt>
<trkpt lat="45.391944" lon="4.455533"><ele>245.6</ele><time>2008-29-09T10:09:14Z</time></trkpt>
<trkpt lat="45.391931" lon="4.455529"><ele>246.2</ele><time>2008-29-09T10:09:15Z</time></trkpt>
<trkpt lat="45.391915" lon="4.45552"><ele>246.4</ele><time>2008-29-09T10:09:16Z</time></trkpt>
<trkpt lat="45.391895" lon="4.455513"><ele>243.7</ele><time>2008-29-09T10:09:17Z</time></trkpt>
<trkpt lat="45.391872" lon="4.455512"><ele>243.1</ele><time>2008-29-09T10:09:18Z</time></trkpt>
<trkpt lat="45.391849" lon="4.455507"><ele>243.2</ele><time>2008-29-09T10:09:19Z</time></trkpt>
<trkpt lat="45.391825" lon="4.455502"><ele>241.9</ele><time>2008-29-09T10:09:20Z</time></trkpt>
<trkpt lat="45.391802" lon="4.455492"><ele>241</ele><time>2008-29-09T10:09:21Z</time></trkpt>
<trkpt lat="45.391779" lon="4.455482"><ele>239.9</ele><time>2008-29-09T10:09:22Z</time></trkpt>
<trkpt lat="45.391757" lon="4.455467"><ele>240.2</ele><time>2008-29-09T10:09:23Z</time></trkpt>
<trkpt lat="45.391732" lon="4.455452"><ele>239.6</ele><time>2008-29-09T10:09:24Z</time></trkpt>
<trkpt lat="45.391706" lon="4.455433"><ele>240.4</ele><time>2008-29-09T10:09:25Z</time></trkpt>
<trkpt lat="45.391682" lon="4.45542"><ele>240.1</ele><time>2008-29-09T10:09:26Z</time></trkpt>
<trkpt lat="45.391659" lon="4.455408"><ele>239.4</ele><time>2008-29-09T10:09:27Z</time></trkpt>
<trkpt lat="45.391637" lon="4.455395"><ele>243.6</ele><time>2008-29-09T10:09:28Z</time></trkpt>
<trkpt lat="45.391605" lon="4.455382"><ele>245.2</ele><time>2008-29-09T10:09:29Z</time></trkpt>
<trkpt lat="45.391579" lon="4.455378"><ele>245.2</ele><time>2008-29-09T10:09:30Z</time></trkpt>
<trkpt lat="45.391553" lon="4.455383"><ele>246.5</ele><time>2008-29-09T10:09:31Z</time></trkpt>
<trkpt lat="45.391532" lon="4.455383"><ele>248.9</ele><time>2008-29-09T10:09:32Z</time></trkpt>
<trkpt lat="45.391512" lon="4.455381"><ele>250.1</ele><time>2008-29-09T10:09:33Z</time></trkpt>
<trkpt lat="45.391493" lon="4.45538"><ele>252.1</ele><time>2008-29-09T10:09:34Z</time></trkpt>
<trkpt lat="45.391474" lon="4.455382"><ele>251.6</ele><time>2008-29-09T10:09:35Z</time></trkpt>
<trkpt lat="45.391463" lon="4.455381"><ele>251.8</ele><time>2008-29-09T10:09:36Z</time></trkpt>
<trkpt lat="45.391455" lon="4.455378"><ele>249.7</ele><time>2008-29-09T10:09:37Z</time></trkpt>
<trkpt lat="45.391459" lon="4.455369"><ele>248.7</ele><time>2008-29-09T10:09:38Z</time></trkpt>
<trkpt lat="45.391465" lon="4.455361"><ele>248.7</ele><time>2008-29-09T10:09:39Z</time></trkpt>
<trkpt lat="45.39147" lon="4.455357"><ele>248.7</ele><time>2008-29-09T10:09:40Z</time></trkpt>
<trkpt lat="45.39147" lon="4.455357"><ele>248.7</ele><time>2008-29-09T10:09:41Z</time></trkpt>
<trkpt lat="45.39147" lon="4.455357"><ele>248.7</ele><time>2008-29-09T10:09:42Z</time></trkpt>
<trkpt lat="45.39147" lon="4.455357"><ele>248.7</ele><time>2008-29-09T10:09:43Z</time></trkpt>
<trkpt lat="45.39147" lon="4.455357"><ele>248.7</ele><time>2008-29-09T10:09:44Z</time></trkpt>
<trkpt lat="45.39147" lon="4.455357"><ele>248.7</ele><time>2008-29-09T10:09:45Z</time></trkpt>
<trkpt lat="45.39147" lon="4.455357"><ele>248.7</ele><time>2008-29-09T10:09:46Z</time></trkpt>
<trkpt lat="45.39147" lon="4.455357"><ele>248.7</ele><time>2008-29-09T10:09:47Z</time></trkpt>
<trkpt lat="45.39147" lon="4.455357"><ele>248.7</ele><time>2008-29-09T10:09:48Z</time></trkpt>
<trkpt lat="45.39147" lon="4.455357"><ele>248.7</ele><time>2008-29-09T10:09:49Z</time></trkpt>
<trkpt lat="45.39147" lon="4.455357"><ele>248.7</ele><time>2008-29-09T10:09:50Z</time></trkpt>
<trkpt lat="45.39147" lon="4.455357"><ele>248.7</ele><time>2008-29-09T10:09:51Z</time></trkpt>
<trkpt lat="45.39147" lon="4.455357"><ele>248.7</ele><time>2008-29-09T10:09:52Z</time></trkpt>
<trkpt lat="45.39147" lon="4.455357"><ele>248.7</ele><time>2008-29-09T10:09:53Z</time></trkpt>
<trkpt lat="45.39147" lon="4.455357"><ele>248.7</ele><time>2008-29-09T10:09:54Z</time></trkpt>
<trkpt lat="45.39147" lon="4.455357"><ele>248.7</ele><time>2008-29-09T10:09:55Z</time></trkpt>
<trkpt lat="45.39147" lon="4.455357"><ele>248.7</ele><time>2008-29-09T10:09:56Z</time></trkpt>
<trkpt lat="45.39147" lon="4.455357"><ele>248.7</ele><time>2008-29-09T10:09:57Z</time></trkpt>
<trkpt lat="45.39147" lon="4.455357"><ele>248.7</ele><time>2008-29-09T10:09:58Z</time></trkpt>
<trkpt lat="45.39147" lon="4.455357"><ele>248.7</ele><time>2008-29-09T10:09:59Z</time></trkpt>
<trkpt lat="45.39147" lon="4.455357"><ele>248.7</ele><time>2008-29-09T10:10:00Z</time></trkpt>
<trkpt lat="45.39147" lon="4.455357"><ele>248.7</ele><time>2008-29-09T10:10:01Z</time></trkpt>
<trkpt lat="45.39147" lon="4.455357"><ele>248.7</ele><time>2008-29-09T10:10:02Z</time></trkpt>
<trkpt lat="45.39147" lon="4.455357"><ele>248.7</ele><time>2008-29-09T10:10:03Z</time></trkpt>
<trkpt lat="45.39147" lon="4.455357"><ele>248.7</ele><time>2008-29-09T10:10:04Z</time></trkpt>
<trkpt lat="45.39147" lon="4.455357"><ele>248.3</ele><time>2008-29-09T10:10:05Z</time></trkpt>
<trkpt lat="45.391466" lon="4.455356"><ele>245.7</ele><time>2008-29-09T10:10:06Z</time></trkpt>
<trkpt lat="45.391454" lon="4.455355"><ele>245.1</ele><time>2008-29-09T10:10:07Z</time></trkpt>
<trkpt lat="45.391435" lon="4.455353"><ele>244.3</ele><time>2008-29-09T10:10:08Z</time></trkpt>
<trkpt lat="45.391415" lon="4.455345"><ele>245.5</ele><time>2008-29-09T10:10:09Z</time></trkpt>
<trkpt lat="45.391394" lon="4.455336"><ele>245.7</ele><time>2008-29-09T10:10:10Z</time></trkpt>
<trkpt lat="45.391371" lon="4.455328"><ele>244.5</ele><time>2008-29-09T10:10:11Z</time></trkpt>
<trkpt lat="45.391345" lon="4.455323"><ele>243.5</ele><time>2008-29-09T10:10:12Z</time></trkpt>
<trkpt lat="45.39132" lon="4.455318"><ele>242.2</ele><time>2008-29-09T10:10:13Z</time></trkpt>
<trkpt lat="45.391295" lon="4.45531"><ele>241.5</ele><time>2008-29-09T10:10:14Z</time></trkpt>
<trkpt lat="45.391274" lon="4.455305"><ele>243.5</ele><time>2008-29-09T10:10:15Z</time></trkpt>
<trkpt lat="45.391253" lon="4.455305"><ele>244.3</ele><time>2008-29-09T10:10:16Z</time></trkpt>
<trkpt lat="45.391236" lon="4.455315"><ele>244.5</ele><time>2008-29-09T10:10:17Z</time></trkpt>
<trkpt lat="45.391225" lon="4.455333"><ele>244.4</ele><time>2008-29-09T10:10:18Z</time></trkpt>
<trkpt lat="45.391217" lon="4.455359"><ele>244.5</ele><time>2008-29-09T10:10:19Z</time></trkpt>
<trkpt lat="45.391208" lon="4.455388"><ele>244.7</ele><time>2008-29-09T10:10:20Z</time></trkpt>
<trkpt lat="45.391193" lon="4.455422"><ele>245.4</ele><time>2008-29-09T10:10:21Z</time></trkpt>
<trkpt lat="45.391184" lon="4.455453"><ele>245.7</ele><time>2008-29-09T10:10:22Z</time></trkpt>
<trkpt lat="45.391178" lon="4.455488"><ele>246</ele><time>2008-29-09T10:10:23Z</time></trkpt>
<trkpt lat="45.391175" lon="4.455525"><ele>245.9</ele><time>2008-29-09T10:10:24Z</time></trkpt>
<trkpt lat="45.391174" lon="4.455564"><ele>246.3</ele><time>2008-29-09T10:10:25Z</time></trkpt>
<trkpt lat="45.391176" lon="4.455602"><ele>246.4</ele><time>2008-29-09T10:10:26Z</time></trkpt>
<trkpt lat="45.391171" lon="4.455645"><ele>246.9</ele><time>2008-29-09T10:10:27Z</time></trkpt>
<trkpt lat="45.39117" lon="4.455687"><ele>247.2</ele><time>2008-29-09T10:10:28Z</time></trkpt>
<trkpt lat="45.391166" lon="4.455732"><ele>247.2</ele><time>2008-29-09T10:10:29Z</time></trkpt>
<trkpt lat="45.391161" lon="4.455776"><ele>254.6</ele><time>2008-29-09T10:10:30Z</time></trkpt>
<trkpt lat="45.391141" lon="4.455819"><ele>258.7</ele><time>2008-29-09T10:10:31Z</time></trkpt>
<trkpt lat="45.391136" lon="4.455856"><ele>260</ele><time>2008-29-09T10:10:32Z</time></trkpt>
<trkpt lat="45.391137" lon="4.455888"><ele>257.7</ele><time>2008-29-09T10:10:33Z</time></trkpt>
<trkpt lat="45.391113" lon="4.455922"><ele>257.4</ele><time>2008-29-09T10:10:34Z</time></trkpt>
<trkpt lat="45.391093" lon="4.455936"><ele>257.4</ele><time>2008-29-09T10:10:35Z</time></trkpt>
<trkpt lat="45.391071" lon="4.455931"><ele>252.5</ele><time>2008-29-09T10:10:36Z</time></trkpt>
<trkpt lat="45.391042" lon="4.455921"><ele>247</ele><time>2008-29-09T10:10:37Z</time></trkpt>
<trkpt lat="45.391006" lon="4.455918"><ele>245.7</ele><time>2008-29-09T10:10:38Z</time></trkpt>
<trkpt lat="45.390981" lon="4.455909"><ele>244.8</ele><time>2008-29-09T10:10:39Z</time></trkpt>
<trkpt lat="45.390956" lon="4.455899"><ele>242.8</ele><time>2008-29-09T10:10:40Z</time></trkpt>
<trkpt lat="45.390933" lon="4.455883"><ele>241.5</ele><time>2008-29-09T10:10:41Z</time></trkpt>
<trkpt lat="45.39091" lon="4.45587"><ele>242.9</ele><time>2008-29-09T10:10:42Z</time></trkpt>
<trkpt lat="45.390886" lon="4.455859"><ele>243.2</ele><time>2008-29-09T10:10:43Z</time></trkpt>
<trkpt lat="45.390862" lon="4.455849"><ele>242.7</ele><time>2008-29-09T10:10:44Z</time></trkpt>
<trkpt lat="45.390835" lon="4.45584"><ele>243.5</ele><time>2008-29-09T10:10:45Z</time></trkpt>
<trkpt lat="45.390811" lon="4.455825"><ele>242.4</ele><time>2008-29-09T10:10:46Z</time></trkpt>
<trkpt lat="45.39079" lon="4.455808"><ele>240</ele><time>2008-29-09T10:10:47Z</time></trkpt>
<trkpt lat="45.39077" lon="4.455792"><ele>238</ele><time>2008-29-09T10:10:48Z</time></trkpt>
<trkpt lat="45.390757" lon="4.455769"><ele>237.8</ele><time>2008-29-09T10:10:49Z</time></trkpt>
<trkpt lat="45.390735" lon="4.455754"><ele>237.5</ele><time>2008-29-09T10:10:50Z</time></trkpt>
<trkpt lat="45.390713" lon="4.45574"><ele>237.6</ele><time>2008-29-09T10:10:51Z</time></trkpt>
<trkpt lat="45.390692" lon="4.455726"><ele>237.9</ele><time>2008-29-09T10:10:52Z</time></trkpt>
<trkpt lat="45.390671" lon="4.45571"><ele>239.2</ele><time>2008-29-09T10:10:53Z</time></trkpt>
<trkpt lat="45.390649" lon="4.455697"><ele>240</ele><time>2008-29-09T10:10:54Z</time></trkpt>
<trkpt lat="45.390626" lon="4.455683"><ele>241.5</ele><time>2008-29-09T10:10:55Z</time></trkpt>
<trkpt lat="45.390601" lon="4.455669"><ele>242.9</ele><time>2008-29-09T10:10:56Z</time></trkpt>
<trkpt lat="45.390577" lon="4.455652"><ele>244.5</ele><time>2008-29-09T10:10:57Z</time></trkpt>
<trkpt lat="45.390553" lon="4.455635"><ele>247.4</ele><time>2008-29-09T10:10:58Z</time></trkpt>
<trkpt lat="45.39053" lon="4.45562"><ele>249.3</ele><time>2008-29-09T10:10:59Z</time></trkpt>
<trkpt lat="45.390509" lon="4.4556"><ele>248.8</ele><time>2008-29-09T10:11:00Z</time></trkpt>
<trkpt lat="45.390487" lon="4.455578"><ele>249</ele><time>2008-29-09T10:11:01Z</time></trkpt>
<trkpt lat="45.390462" lon="4.455558"><ele>250.2</ele><time>2008-29-09T10:11:02Z</time></trkpt>
<trkpt lat="45.390437" lon="4.455539"><ele>250.9</ele><time>2008-29-09T10:11:03Z</time></trkpt>
<trkpt lat="45.390413" lon="4.455522"><ele>251.3</ele><time>2008-29-09T10:11:04Z</time></trkpt>
<trkpt lat="45.390391" lon="4.455506"><ele>251.7</ele><time>2008-29-09T10:11:05Z</time></trkpt>
<trkpt lat="45.390371" lon="4.45549"><ele>252</ele><time>2008-29-09T10:11:06Z</time></trkpt>
<trkpt lat="45.390351" lon="4.455475"><ele>252.4</ele><time>2008-29-09T10:11:07Z</time></trkpt>
<trkpt lat="45.390333" lon="4.45546"><ele>250.8</ele><time>2008-29-09T10:11:08Z</time></trkpt>
<trkpt lat="45.390307" lon="4.455454"><ele>249.5</ele><time>2008-29-09T10:11:09Z</time></trkpt>
<trkpt lat="45.390286" lon="4.455449"><ele>248.9</ele><time>2008-29-09T10:11:10Z</time></trkpt>
<trkpt lat="45.390266" lon="4.455453"><ele>248.1</ele><time>2008-29-09T10:11:11Z</time></trkpt>
<trkpt lat="45.390254" lon="4.455455"><ele>247.6</ele><time>2008-29-09T10:11:12Z</time></trkpt>
<trkpt lat="45.390247" lon="4.455452"><ele>248.8</ele><time>2008-29-09T10:11:13Z</time></trkpt>
<trkpt lat="45.390241" lon="4.45545"><ele>250.5</ele><time>2008-29-09T10:11:14Z</time></trkpt>
<trkpt lat="45.390236" lon="4.455449"><ele>250.8</ele><time>2008-29-09T10:11:15Z</time></trkpt>
<trkpt lat="45.390232" lon="4.455446"><ele>250.8</ele><time>2008-29-09T10:11:16Z</time></trkpt>
<trkpt lat="45.390232" lon="4.455446"><ele>250.8</ele><time>2008-29-09T10:11:17Z</time></trkpt>
<trkpt lat="45.390232" lon="4.455446"><ele>251</ele><time>2008-29-09T10:11:18Z</time></trkpt>
<trkpt lat="45.390229" lon="4.455446"><ele>251</ele><time>2008-29-09T10:11:19Z</time></trkpt>
<trkpt lat="45.390224" lon="4.455443"><ele>249.7</ele><time>2008-29-09T10:11:20Z</time></trkpt>
<trkpt lat="45.39022" lon="4.455444"><ele>249.1</ele><time>2008-29-09T10:11:21Z</time></trkpt>
<trkpt lat="45.390214" lon="4.455433"><ele>248.9</ele><time>2008-29-09T10:11:22Z</time></trkpt>
<trkpt lat="45.390206" lon="4.455433"><ele>248.9</ele><time>2008-29-09T10:11:23Z</time></trkpt>
<trkpt lat="45.390198" lon="4.455435"><ele>248.9</ele><time>2008-29-09T10:11:24Z</time></trkpt>
<trkpt lat="45.390198" lon="4.455435"><ele>248.9</ele><time>2008-29-09T10:11:25Z</time></trkpt>
<trkpt lat="45.390198" lon="4.455435"><ele>248.9</ele><time>2008-29-09T10:11:26Z</time></trkpt>
<trkpt lat="45.390198" lon="4.455435"><ele>248.9</ele><time>2008-29-09T10:11:27Z</time></trkpt>
<trkpt lat="45.390198" lon="4.455435"><ele>248.9</ele><time>2008-29-09T10:11:28Z</time></trkpt>
<trkpt lat="45.390198" lon="4.455435"><ele>248.9</ele><time>2008-29-09T10:11:29Z</time></trkpt>
<trkpt lat="45.390198" lon="4.455435"><ele>248.9</ele><time>2008-29-09T10:11:30Z</time></trkpt>
<trkpt lat="45.390198" lon="4.455435"><ele>248.9</ele><time>2008-29-09T10:11:31Z</time></trkpt>
<trkpt lat="45.390198" lon="4.455435"><ele>250.2</ele><time>2008-29-09T10:11:32Z</time></trkpt>
<trkpt lat="45.390197" lon="4.455436"><ele>249.8</ele><time>2008-29-09T10:11:33Z</time></trkpt>
<trkpt lat="45.390192" lon="4.455432"><ele>248.6</ele><time>2008-29-09T10:11:34Z</time></trkpt>
<trkpt lat="45.390186" lon="4.455425"><ele>244.2</ele><time>2008-29-09T10:11:35Z</time></trkpt>
<trkpt lat="45.39017" lon="4.455424"><ele>243.6</ele><time>2008-29-09T10:11:36Z</time></trkpt>
<trkpt lat="45.390157" lon="4.455412"><ele>244.1</ele><time>2008-29-09T10:11:37Z</time></trkpt>
<trkpt lat="45.390143" lon="4.455403"><ele>243.8</ele><time>2008-29-09T10:11:38Z</time></trkpt>
<trkpt lat="45.390128" lon="4.455394"><ele>244.2</ele><time>2008-29-09T10:11:39Z</time></trkpt>
<trkpt lat="45.39011" lon="4.455382"><ele>245.2</ele><time>2008-29-09T10:11:40Z</time></trkpt>
<trkpt lat="45.390092" lon="4.455369"><ele>245.6</ele><time>2008-29-09T10:11:41Z</time></trkpt>
<trkpt lat="45.390072" lon="4.455355"><ele>245.2</ele><time>2008-29-09T10:11:42Z</time></trkpt>
<trkpt lat="45.390053" lon="4.455341"><ele>245.4</ele><time>2008-29-09T10:11:43Z</time></trkpt>
<trkpt lat="45.390034" lon="4.455325"><ele>246.1</ele><time>2008-29-09T10:11:44Z</time></trkpt>
<trkpt lat="45.390014" lon="4.455313"><ele>246.6</ele><time>2008-29-09T10:11:45Z</time></trkpt>
<trkpt lat="45.389993" lon="4.455304"><ele>244</ele><time>2008-29-09T10:11:46Z</time></trkpt>
<trkpt lat="45.389971" lon="4.455292"><ele>244.9</ele><time>2008-29-09T10:11:47Z</time></trkpt>
<trkpt lat="45.389948" lon="4.455286"><ele>243.6</ele><time>2008-29-09T10:11:48Z</time></trkpt>
<trkpt lat="45.389923" lon="4.455275"><ele>244.1</ele><time>2008-29-09T10:11:49Z</time></trkpt>
<trkpt lat="45.389896" lon="4.455264"><ele>243.7</ele><time>2008-29-09T10:11:50Z</time></trkpt>
<trkpt lat="45.38987" lon="4.455247"><ele>243.6</ele><time>2008-29-09T10:11:51Z</time></trkpt>
<trkpt lat="45.389847" lon="4.455233"><ele>243.3</ele><time>2008-29-09T10:11:52Z</time></trkpt>
<trkpt lat="45.389825" lon="4.455215"><ele>243</ele><time>2008-29-09T10:11:53Z</time></trkpt>
<trkpt lat="45.389804" lon="4.455196"><ele>242.2</ele><time>2008-29-09T10:11:54Z</time></trkpt>
<trkpt lat="45.389788" lon="4.455173"><ele>241.2</ele><time>2008-29-09T10:11:55Z</time></trkpt>
<trkpt lat="45.389772" lon="4.455144"><ele>241.5</ele><time>2008-29-09T10:11:56Z</time></trkpt>
<trkpt lat="45.38975" lon="4.455121"><ele>241.9</ele><time>2008-29-09T10:11:57Z</time></trkpt>
<trkpt lat="45.389726" lon="4.455098"><ele>241.7</ele><time>2008-29-09T10:11:58Z</time></trkpt>
<trkpt lat="45.389705" lon="4.45508"><ele>242.3</ele><time>2008-29-09T10:11:59Z</time></trkpt>
<trkpt lat="45.389684" lon="4.455057"><ele>243.5</ele><time>2008-29-09T10:12:00Z</time></trkpt>
<trkpt lat="45.389663" lon="4.455037"><ele>243.2</ele><time>2008-29-09T10:12:01Z</time></trkpt>
<trkpt lat="45.389642" lon="4.455015"><ele>242.7</ele><time>2008-29-09T10:12:02Z</time></trkpt>
<trkpt lat="45.389624" lon="4.454993"><ele>242.9</ele><time>2008-29-09T10:12:03Z</time></trkpt>
<trkpt lat="45.389605" lon="4.454971"><ele>242.7</ele><time>2008-29-09T10:12:04Z</time></trkpt>
<trkpt lat="45.389583" lon="4.454952"><ele>242.8</ele><time>2008-29-09T10:12:05Z</time></trkpt>
<trkpt lat="45.389559" lon="4.454934"><ele>242.6</ele><time>2008-29-09T10:12:06Z</time></trkpt>
<trkpt lat="45.389534" lon="4.454916"><ele>242.5</ele><time>2008-29-09T10:12:07Z</time></trkpt>
<trkpt lat="45.389512" lon="4.4549"><ele>241.9</ele><time>2008-29-09T10:12:08Z</time></trkpt>
<trkpt lat="45.389493" lon="4.454889"><ele>240.9</ele><time>2008-29-09T10:12:09Z</time></trkpt>
<trkpt lat="45.389476" lon="4.454881"><ele>238.8</ele><time>2008-29-09T10:12:10Z</time></trkpt>
<trkpt lat="45.38946" lon="4.454864"><ele>237.8</ele><time>2008-29-09T10:12:11Z</time></trkpt>
<trkpt lat="45.389439" lon="4.454846"><ele>237.6</ele><time>2008-29-09T10:12:12Z</time></trkpt>
<trkpt lat="45.389417" lon="4.454833"><ele>237.2</ele><time>2008-29-09T10:12:13Z</time></trkpt>
<trkpt lat="45.389393" lon="4.454817"><ele>238.1</ele><time>2008-29-09T10:12:14Z</time></trkpt>
<trkpt lat="45.38937" lon="4.454799"><ele>238.1</ele><time>2008-29-09T10:12:15Z</time></trkpt>
<trkpt lat="45.389347" lon="4.454783"><ele>237.7</ele><time>2008-29-09T10:12:16Z</time></trkpt>
<trkpt lat="45.389325" lon="4.454762"><ele>238.3</ele><time>2008-29-09T10:12:17Z</time></trkpt>
<trkpt lat="45.389302" lon="4.454741"><ele>237.9</ele><time>2008-29-09T10:12:18Z</time></trkpt>
<trkpt lat="45.389277" lon="4.454726"><ele>238.7</ele><time>2008-29-09T10:12:19Z</time></trkpt>
<trkpt lat="45.389258" lon="4.454707"><ele>238.3</ele><time>2008-29-09T10:12:20Z</time></trkpt>
<trkpt lat="45.389237" lon="4.454688"><ele>238.2</ele><time>2008-29-09T10:12:21Z</time></trkpt>
<trkpt lat="45.389213" lon="4.454673"><ele>238.4</ele><time>2008-29-09T10:12:22Z</time></trkpt>
<trkpt lat="45.38919" lon="4.454657"><ele>238.7</ele><time>2008-29-09T10:12:23Z</time></trkpt>
<trkpt lat="45.389169" lon="4.454639"><ele>236.7</ele><time>2008-29-09T10:12:24Z</time></trkpt>
<trkpt lat="45.389149" lon="4.45462"><ele>237.4</ele><time>2008-29-09T10:12:25Z</time></trkpt>
<trkpt lat="45.389125" lon="4.454602"><ele>237.1</ele><time>2008-29-09T10:12:26Z</time></trkpt>
<trkpt lat="45.3891" lon="4.454585"><ele>235.6</ele><time>2008-29-09T10:12:27Z</time></trkpt>
<trkpt lat="45.3891" lon="4.454585"><ele>0</ele><time>2008-29-09T10:14:20Z</time></trkpt>
<trkpt lat="45.388421" lon="4.451145"><ele>259.5</ele><time>2008-29-09T10:14:24Z</time></trkpt>
<trkpt lat="45.38858" lon="4.451162"><ele>253.4</ele><time>2008-29-09T10:14:25Z</time></trkpt>
<trkpt lat="45.388664" lon="4.451148"><ele>252.8</ele><time>2008-29-09T10:14:26Z</time></trkpt>
<trkpt lat="45.388682" lon="4.451123"><ele>254.9</ele><time>2008-29-09T10:14:27Z</time></trkpt>
<trkpt lat="45.38869" lon="4.451113"><ele>254.6</ele><time>2008-29-09T10:14:28Z</time></trkpt>
<trkpt lat="45.388675" lon="4.45109"><ele>252.8</ele><time>2008-29-09T10:14:29Z</time></trkpt>
<trkpt lat="45.38866" lon="4.451082"><ele>253.4</ele><time>2008-29-09T10:14:30Z</time></trkpt>
<trkpt lat="45.388668" lon="4.451049"><ele>254.2</ele><time>2008-29-09T10:14:31Z</time></trkpt>
<trkpt lat="45.388673" lon="4.451028"><ele>256.6</ele><time>2008-29-09T10:14:32Z</time></trkpt>
<trkpt lat="45.388677" lon="4.451014"><ele>256.7</ele><time>2008-29-09T10:14:33Z</time></trkpt>
<trkpt lat="45.388684" lon="4.451009"><ele>256.7</ele><time>2008-29-09T10:14:34Z</time></trkpt>
<trkpt lat="45.388684" lon="4.451009"><ele>256.7</ele><time>2008-29-09T10:14:35Z</time></trkpt>
<trkpt lat="45.388684" lon="4.451009"><ele>256.7</ele><time>2008-29-09T10:14:36Z</time></trkpt>
<trkpt lat="45.388684" lon="4.451009"><ele>256.7</ele><time>2008-29-09T10:14:37Z</time></trkpt>
<trkpt lat="45.388684" lon="4.451009"><ele>256.7</ele><time>2008-29-09T10:14:38Z</time></trkpt>
<trkpt lat="45.388684" lon="4.451009"><ele>256.7</ele><time>2008-29-09T10:14:39Z</time></trkpt>
<trkpt lat="45.388684" lon="4.451009"><ele>256.7</ele><time>2008-29-09T10:14:40Z</time></trkpt>
<trkpt lat="45.388684" lon="4.451009"><ele>256.7</ele><time>2008-29-09T10:14:41Z</time></trkpt>
<trkpt lat="45.388684" lon="4.451009"><ele>256.7</ele><time>2008-29-09T10:14:42Z</time></trkpt>
<trkpt lat="45.388684" lon="4.451009"><ele>256.7</ele><time>2008-29-09T10:14:43Z</time></trkpt>
<trkpt lat="45.388684" lon="4.451009"><ele>256.7</ele><time>2008-29-09T10:14:44Z</time></trkpt>
<trkpt lat="45.388684" lon="4.451009"><ele>256.7</ele><time>2008-29-09T10:14:45Z</time></trkpt>
<trkpt lat="45.388684" lon="4.451009"><ele>256.7</ele><time>2008-29-09T10:14:46Z</time></trkpt>
<trkpt lat="45.388684" lon="4.451009"><ele>256.7</ele><time>2008-29-09T10:14:47Z</time></trkpt>
<trkpt lat="45.388684" lon="4.451009"><ele>256.7</ele><time>2008-29-09T10:14:48Z</time></trkpt>
<trkpt lat="45.388684" lon="4.451009"><ele>256.7</ele><time>2008-29-09T10:14:49Z</time></trkpt>
<trkpt lat="45.388684" lon="4.451009"><ele>256.7</ele><time>2008-29-09T10:14:50Z</time></trkpt>
<trkpt lat="45.388684" lon="4.451009"><ele>256.7</ele><time>2008-29-09T10:14:51Z</time></trkpt>
<trkpt lat="45.388684" lon="4.451009"><ele>256.7</ele><time>2008-29-09T10:14:52Z</time></trkpt>
<trkpt lat="45.388684" lon="4.451009"><ele>267.6</ele><time>2008-29-09T10:14:53Z</time></trkpt>
<trkpt lat="45.388566" lon="4.451029"><ele>267.6</ele><time>2008-29-09T10:14:54Z</time></trkpt>
<trkpt lat="45.388566" lon="4.451029"><ele>267.6</ele><time>2008-29-09T10:14:55Z</time></trkpt>
<trkpt lat="45.388566" lon="4.451029"><ele>267.6</ele><time>2008-29-09T10:14:56Z</time></trkpt>
<trkpt lat="45.388566" lon="4.451029"><ele>267.6</ele><time>2008-29-09T10:14:57Z</time></trkpt>
<trkpt lat="45.388566" lon="4.451029"><ele>267.6</ele><time>2008-29-09T10:14:58Z</time></trkpt>
<trkpt lat="45.388566" lon="4.451029"><ele>267.6</ele><time>2008-29-09T10:14:59Z</time></trkpt>
<trkpt lat="45.388566" lon="4.451029"><ele>267.6</ele><time>2008-29-09T10:15:00Z</time></trkpt>
<trkpt lat="45.388566" lon="4.451029"><ele>264.1</ele><time>2008-29-09T10:15:01Z</time></trkpt>
<trkpt lat="45.388593" lon="4.451014"><ele>261.4</ele><time>2008-29-09T10:15:02Z</time></trkpt>
<trkpt lat="45.388606" lon="4.451005"><ele>260</ele><time>2008-29-09T10:15:03Z</time></trkpt>
<trkpt lat="45.388613" lon="4.450992"><ele>260</ele><time>2008-29-09T10:15:04Z</time></trkpt>
<trkpt lat="45.38861" lon="4.450986"><ele>260</ele><time>2008-29-09T10:15:05Z</time></trkpt>
<trkpt lat="45.38861" lon="4.450986"><ele>260</ele><time>2008-29-09T10:15:06Z</time></trkpt>
<trkpt lat="45.38861" lon="4.450986"><ele>260</ele><time>2008-29-09T10:15:07Z</time></trkpt>
<trkpt lat="45.38861" lon="4.450986"><ele>260</ele><time>2008-29-09T10:15:08Z</time></trkpt>
<trkpt lat="45.38861" lon="4.450986"><ele>260</ele><time>2008-29-09T10:15:09Z</time></trkpt>
<trkpt lat="45.38861" lon="4.450986"><ele>241.8</ele><time>2008-29-09T10:15:10Z</time></trkpt>
<trkpt lat="45.388728" lon="4.450999"><ele>241.8</ele><time>2008-29-09T10:15:11Z</time></trkpt>
<trkpt lat="45.388728" lon="4.450999"><ele>241.8</ele><time>2008-29-09T10:15:12Z</time></trkpt>
<trkpt lat="45.388728" lon="4.450999"><ele>241.8</ele><time>2008-29-09T10:15:13Z</time></trkpt>
<trkpt lat="45.388728" lon="4.450999"><ele>241.8</ele><time>2008-29-09T10:15:14Z</time></trkpt>
<trkpt lat="45.388728" lon="4.450999"><ele>241.8</ele><time>2008-29-09T10:15:15Z</time></trkpt>
<trkpt lat="45.388728" lon="4.450999"><ele>241.8</ele><time>2008-29-09T10:15:16Z</time></trkpt>
<trkpt lat="45.388728" lon="4.450999"><ele>241.8</ele><time>2008-29-09T10:15:17Z</time></trkpt>
<trkpt lat="45.388728" lon="4.450999"><ele>241.8</ele><time>2008-29-09T10:15:18Z</time></trkpt>
<trkpt lat="45.388728" lon="4.450999"><ele>241.8</ele><time>2008-29-09T10:15:19Z</time></trkpt>
<trkpt lat="45.388728" lon="4.450999"><ele>241.8</ele><time>2008-29-09T10:15:20Z</time></trkpt>
<trkpt lat="45.388728" lon="4.450999"><ele>241.8</ele><time>2008-29-09T10:15:21Z</time></trkpt>
<trkpt lat="45.388728" lon="4.450999"><ele>241.9</ele><time>2008-29-09T10:15:22Z</time></trkpt>
<trkpt lat="45.388721" lon="4.45098"><ele>242.8</ele><time>2008-29-09T10:15:23Z</time></trkpt>
<trkpt lat="45.388709" lon="4.450953"><ele>244</ele><time>2008-29-09T10:15:24Z</time></trkpt>
<trkpt lat="45.388693" lon="4.450922"><ele>244.4</ele><time>2008-29-09T10:15:25Z</time></trkpt>
<trkpt lat="45.388674" lon="4.45089"><ele>245.4</ele><time>2008-29-09T10:15:26Z</time></trkpt>
<trkpt lat="45.388644" lon="4.450867"><ele>245.8</ele><time>2008-29-09T10:15:27Z</time></trkpt>
<trkpt lat="45.388616" lon="4.450867"><ele>248.6</ele><time>2008-29-09T10:15:28Z</time></trkpt>
<trkpt lat="45.388581" lon="4.450872"><ele>246.7</ele><time>2008-29-09T10:15:29Z</time></trkpt>
<trkpt lat="45.388534" lon="4.450887"><ele>250.8</ele><time>2008-29-09T10:15:30Z</time></trkpt>
<trkpt lat="45.388487" lon="4.450892"><ele>251.7</ele><time>2008-29-09T10:15:31Z</time></trkpt>
<trkpt lat="45.388446" lon="4.450905"><ele>251.6</ele><time>2008-29-09T10:15:32Z</time></trkpt>
<trkpt lat="45.388406" lon="4.450908"><ele>251.8</ele><time>2008-29-09T10:15:33Z</time></trkpt>
<trkpt lat="45.388369" lon="4.450908"><ele>252.2</ele><time>2008-29-09T10:15:34Z</time></trkpt>
<trkpt lat="45.388333" lon="4.450913"><ele>252.5</ele><time>2008-29-09T10:15:35Z</time></trkpt>
<trkpt lat="45.388298" lon="4.450911"><ele>252.6</ele><time>2008-29-09T10:15:36Z</time></trkpt>
<trkpt lat="45.388263" lon="4.450912"><ele>253.5</ele><time>2008-29-09T10:15:37Z</time></trkpt>
<trkpt lat="45.388227" lon="4.450913"><ele>253.9</ele><time>2008-29-09T10:15:38Z</time></trkpt>
<trkpt lat="45.388193" lon="4.450916"><ele>254.1</ele><time>2008-29-09T10:15:39Z</time></trkpt>
<trkpt lat="45.388157" lon="4.450922"><ele>254.2</ele><time>2008-29-09T10:15:40Z</time></trkpt>
<trkpt lat="45.388122" lon="4.450929"><ele>255.3</ele><time>2008-29-09T10:15:41Z</time></trkpt>
<trkpt lat="45.388087" lon="4.450933"><ele>254.2</ele><time>2008-29-09T10:15:42Z</time></trkpt>
<trkpt lat="45.388055" lon="4.450933"><ele>252.9</ele><time>2008-29-09T10:15:43Z</time></trkpt>
<trkpt lat="45.38802" lon="4.450934"><ele>252.4</ele><time>2008-29-09T10:15:44Z</time></trkpt>
<trkpt lat="45.387984" lon="4.450939"><ele>252.8</ele><time>2008-29-09T10:15:45Z</time></trkpt>
<trkpt lat="45.387948" lon="4.450948"><ele>252</ele><time>2008-29-09T10:15:46Z</time></trkpt>
<trkpt lat="45.387912" lon="4.450947"><ele>252</ele><time>2008-29-09T10:15:47Z</time></trkpt>
<trkpt lat="45.387874" lon="4.450946"><ele>251.9</ele><time>2008-29-09T10:15:48Z</time></trkpt>
<trkpt lat="45.387838" lon="4.450949"><ele>252.6</ele><time>2008-29-09T10:15:49Z</time></trkpt>
<trkpt lat="45.387803" lon="4.450949"><ele>252.2</ele><time>2008-29-09T10:15:50Z</time></trkpt>
<trkpt lat="45.387767" lon="4.450951"><ele>251.9</ele><time>2008-29-09T10:15:51Z</time></trkpt>
<trkpt lat="45.387728" lon="4.450956"><ele>252</ele><time>2008-29-09T10:15:52Z</time></trkpt>
<trkpt lat="45.387691" lon="4.450955"><ele>251.9</ele><time>2008-29-09T10:15:53Z</time></trkpt>
<trkpt lat="45.387653" lon="4.450954"><ele>251.5</ele><time>2008-29-09T10:15:54Z</time></trkpt>
<trkpt lat="45.387612" lon="4.450959"><ele>251.4</ele><time>2008-29-09T10:15:55Z</time></trkpt>
<trkpt lat="45.38757" lon="4.450963"><ele>252</ele><time>2008-29-09T10:15:56Z</time></trkpt>
<trkpt lat="45.387529" lon="4.45097"><ele>252.2</ele><time>2008-29-09T10:15:57Z</time></trkpt>
<trkpt lat="45.387488" lon="4.450974"><ele>252.6</ele><time>2008-29-09T10:15:58Z</time></trkpt>
<trkpt lat="45.387447" lon="4.450976"><ele>253.1</ele><time>2008-29-09T10:15:59Z</time></trkpt>
<trkpt lat="45.387406" lon="4.450977"><ele>254.1</ele><time>2008-29-09T10:16:00Z</time></trkpt>
<trkpt lat="45.387366" lon="4.45098"><ele>255.1</ele><time>2008-29-09T10:16:01Z</time></trkpt>
<trkpt lat="45.387327" lon="4.450981"><ele>256.5</ele><time>2008-29-09T10:16:02Z</time></trkpt>
<trkpt lat="45.387286" lon="4.450982"><ele>256.6</ele><time>2008-29-09T10:16:03Z</time></trkpt>
<trkpt lat="45.387251" lon="4.450983"><ele>256.9</ele><time>2008-29-09T10:16:04Z</time></trkpt>
<trkpt lat="45.387221" lon="4.450978"><ele>255.7</ele><time>2008-29-09T10:16:05Z</time></trkpt>
<trkpt lat="45.387196" lon="4.450966"><ele>253.8</ele><time>2008-29-09T10:16:06Z</time></trkpt>
<trkpt lat="45.387175" lon="4.450944"><ele>252.3</ele><time>2008-29-09T10:16:07Z</time></trkpt>
<trkpt lat="45.387155" lon="4.45092"><ele>249.4</ele><time>2008-29-09T10:16:08Z</time></trkpt>
<trkpt lat="45.387132" lon="4.450895"><ele>250.7</ele><time>2008-29-09T10:16:09Z</time></trkpt>
<trkpt lat="45.387111" lon="4.450877"><ele>249.1</ele><time>2008-29-09T10:16:10Z</time></trkpt>
<trkpt lat="45.38709" lon="4.450859"><ele>248.6</ele><time>2008-29-09T10:16:11Z</time></trkpt>
<trkpt lat="45.387071" lon="4.450842"><ele>248.5</ele><time>2008-29-09T10:16:12Z</time></trkpt>
<trkpt lat="45.387049" lon="4.45082"><ele>250.6</ele><time>2008-29-09T10:16:13Z</time></trkpt>
<trkpt lat="45.387029" lon="4.450792"><ele>251.1</ele><time>2008-29-09T10:16:14Z</time></trkpt>
<trkpt lat="45.387015" lon="4.450759"><ele>252.9</ele><time>2008-29-09T10:16:15Z</time></trkpt>
<trkpt lat="45.387009" lon="4.450733"><ele>254.1</ele><time>2008-29-09T10:16:16Z</time></trkpt>
<trkpt lat="45.387007" lon="4.450707"><ele>254.6</ele><time>2008-29-09T10:16:17Z</time></trkpt>
<trkpt lat="45.387011" lon="4.450682"><ele>254.5</ele><time>2008-29-09T10:16:18Z</time></trkpt>
<trkpt lat="45.387023" lon="4.450656"><ele>254.3</ele><time>2008-29-09T10:16:19Z</time></trkpt>
<trkpt lat="45.387053" lon="4.450631"><ele>254</ele><time>2008-29-09T10:16:20Z</time></trkpt>
<trkpt lat="45.387074" lon="4.450607"><ele>253.4</ele><time>2008-29-09T10:16:21Z</time></trkpt>
<trkpt lat="45.387091" lon="4.450585"><ele>252</ele><time>2008-29-09T10:16:22Z</time></trkpt>
<trkpt lat="45.387114" lon="4.45056"><ele>251.4</ele><time>2008-29-09T10:16:23Z</time></trkpt>
<trkpt lat="45.387137" lon="4.450534"><ele>251.2</ele><time>2008-29-09T10:16:24Z</time></trkpt>
<trkpt lat="45.387158" lon="4.450515"><ele>251</ele><time>2008-29-09T10:16:25Z</time></trkpt>
<trkpt lat="45.387178" lon="4.450503"><ele>250.6</ele><time>2008-29-09T10:16:26Z</time></trkpt>
<trkpt lat="45.387193" lon="4.450497"><ele>250.4</ele><time>2008-29-09T10:16:27Z</time></trkpt>
<trkpt lat="45.387211" lon="4.450483"><ele>250.8</ele><time>2008-29-09T10:16:28Z</time></trkpt>
<trkpt lat="45.387233" lon="4.45045"><ele>250.7</ele><time>2008-29-09T10:16:29Z</time></trkpt>
<trkpt lat="45.387252" lon="4.45042"><ele>250</ele><time>2008-29-09T10:16:30Z</time></trkpt>
<trkpt lat="45.387271" lon="4.450386"><ele>249.5</ele><time>2008-29-09T10:16:31Z</time></trkpt>
<trkpt lat="45.38729" lon="4.450346"><ele>249.1</ele><time>2008-29-09T10:16:32Z</time></trkpt>
<trkpt lat="45.387305" lon="4.450309"><ele>248.8</ele><time>2008-29-09T10:16:33Z</time></trkpt>
<trkpt lat="45.387321" lon="4.450274"><ele>248.6</ele><time>2008-29-09T10:16:34Z</time></trkpt>
<trkpt lat="45.387338" lon="4.450245"><ele>252</ele><time>2008-29-09T10:16:35Z</time></trkpt>
<trkpt lat="45.387353" lon="4.450227"><ele>251.4</ele><time>2008-29-09T10:16:36Z</time></trkpt>
<trkpt lat="45.387359" lon="4.450208"><ele>252.4</ele><time>2008-29-09T10:16:37Z</time></trkpt>
<trkpt lat="45.387367" lon="4.450189"><ele>251.9</ele><time>2008-29-09T10:16:38Z</time></trkpt>
<trkpt lat="45.38736" lon="4.450167"><ele>252.1</ele><time>2008-29-09T10:16:39Z</time></trkpt>
<trkpt lat="45.387363" lon="4.450133"><ele>253</ele><time>2008-29-09T10:16:40Z</time></trkpt>
<trkpt lat="45.387372" lon="4.450094"><ele>254.2</ele><time>2008-29-09T10:16:41Z</time></trkpt>
<trkpt lat="45.387381" lon="4.450051"><ele>255.8</ele><time>2008-29-09T10:16:42Z</time></trkpt>
<trkpt lat="45.387387" lon="4.450012"><ele>258.3</ele><time>2008-29-09T10:16:43Z</time></trkpt>
<trkpt lat="45.387389" lon="4.449978"><ele>257.7</ele><time>2008-29-09T10:16:44Z</time></trkpt>
<trkpt lat="45.387387" lon="4.449941"><ele>256.8</ele><time>2008-29-09T10:16:45Z</time></trkpt>
<trkpt lat="45.38738" lon="4.449906"><ele>256</ele><time>2008-29-09T10:16:46Z</time></trkpt>
<trkpt lat="45.38737" lon="4.449877"><ele>255.1</ele><time>2008-29-09T10:16:47Z</time></trkpt>
<trkpt lat="45.387376" lon="4.449862"><ele>254.6</ele><time>2008-29-09T10:16:48Z</time></trkpt>
<trkpt lat="45.387359" lon="4.449868"><ele>254.4</ele><time>2008-29-09T10:16:49Z</time></trkpt>
<trkpt lat="45.387343" lon="4.449881"><ele>254.9</ele><time>2008-29-09T10:16:50Z</time></trkpt>
<trkpt lat="45.387326" lon="4.449897"><ele>255.7</ele><time>2008-29-09T10:16:51Z</time></trkpt>
<trkpt lat="45.387306" lon="4.449912"><ele>255.6</ele><time>2008-29-09T10:16:52Z</time></trkpt>
<trkpt lat="45.387286" lon="4.449926"><ele>255.3</ele><time>2008-29-09T10:16:53Z</time></trkpt>
<trkpt lat="45.387268" lon="4.449941"><ele>254.8</ele><time>2008-29-09T10:16:54Z</time></trkpt>
<trkpt lat="45.38725" lon="4.449952"><ele>254.2</ele><time>2008-29-09T10:16:55Z</time></trkpt>
<trkpt lat="45.387232" lon="4.449967"><ele>253.4</ele><time>2008-29-09T10:16:56Z</time></trkpt>
<trkpt lat="45.387215" lon="4.449983"><ele>253.6</ele><time>2008-29-09T10:16:57Z</time></trkpt>
<trkpt lat="45.387196" lon="4.449997"><ele>253.7</ele><time>2008-29-09T10:16:58Z</time></trkpt>
<trkpt lat="45.387177" lon="4.450006"><ele>253</ele><time>2008-29-09T10:16:59Z</time></trkpt>
<trkpt lat="45.38716" lon="4.450014"><ele>253</ele><time>2008-29-09T10:17:00Z</time></trkpt>
<trkpt lat="45.387144" lon="4.45002"><ele>253.3</ele><time>2008-29-09T10:17:01Z</time></trkpt>
<trkpt lat="45.387127" lon="4.450022"><ele>254.3</ele><time>2008-29-09T10:17:02Z</time></trkpt>
<trkpt lat="45.387108" lon="4.450025"><ele>255.9</ele><time>2008-29-09T10:17:03Z</time></trkpt>
<trkpt lat="45.387089" lon="4.45003"><ele>256.1</ele><time>2008-29-09T10:17:04Z</time></trkpt>
<trkpt lat="45.387075" lon="4.450033"><ele>255.7</ele><time>2008-29-09T10:17:05Z</time></trkpt>
<trkpt lat="45.387059" lon="4.450034"><ele>255</ele><time>2008-29-09T10:17:06Z</time></trkpt>
<trkpt lat="45.387043" lon="4.450034"><ele>254.6</ele><time>2008-29-09T10:17:07Z</time></trkpt>
<trkpt lat="45.38703" lon="4.45003"><ele>253.5</ele><time>2008-29-09T10:17:08Z</time></trkpt>
<trkpt lat="45.387021" lon="4.45002"><ele>253.8</ele><time>2008-29-09T10:17:09Z</time></trkpt>
<trkpt lat="45.387011" lon="4.450016"><ele>254.2</ele><time>2008-29-09T10:17:10Z</time></trkpt>
<trkpt lat="45.387002" lon="4.450014"><ele>254.1</ele><time>2008-29-09T10:17:11Z</time></trkpt>
<trkpt lat="45.386991" lon="4.450016"><ele>252</ele><time>2008-29-09T10:17:12Z</time></trkpt>
<trkpt lat="45.386976" lon="4.450011"><ele>251.8</ele><time>2008-29-09T10:17:13Z</time></trkpt>
<trkpt lat="45.386964" lon="4.450006"><ele>251.3</ele><time>2008-29-09T10:17:14Z</time></trkpt>
<trkpt lat="45.386952" lon="4.450005"><ele>250.9</ele><time>2008-29-09T10:17:15Z</time></trkpt>
<trkpt lat="45.386939" lon="4.450006"><ele>251.6</ele><time>2008-29-09T10:17:16Z</time></trkpt>
<trkpt lat="45.386926" lon="4.450005"><ele>251</ele><time>2008-29-09T10:17:17Z</time></trkpt>
<trkpt lat="45.386915" lon="4.450004"><ele>249.3</ele><time>2008-29-09T10:17:18Z</time></trkpt>
<trkpt lat="45.386906" lon="4.449996"><ele>248.6</ele><time>2008-29-09T10:17:19Z</time></trkpt>
<trkpt lat="45.386896" lon="4.449989"><ele>247.8</ele><time>2008-29-09T10:17:20Z</time></trkpt>
<trkpt lat="45.386884" lon="4.449982"><ele>248</ele><time>2008-29-09T10:17:21Z</time></trkpt>
<trkpt lat="45.386871" lon="4.449971"><ele>247</ele><time>2008-29-09T10:17:22Z</time></trkpt>
<trkpt lat="45.386858" lon="4.449962"><ele>246.2</ele><time>2008-29-09T10:17:23Z</time></trkpt>
<trkpt lat="45.386848" lon="4.449954"><ele>244.3</ele><time>2008-29-09T10:17:24Z</time></trkpt>
<trkpt lat="45.386839" lon="4.449948"><ele>242</ele><time>2008-29-09T10:17:25Z</time></trkpt>
<trkpt lat="45.386829" lon="4.449938"><ele>241.5</ele><time>2008-29-09T10:17:26Z</time></trkpt>
<trkpt lat="45.38682" lon="4.449927"><ele>242.4</ele><time>2008-29-09T10:17:27Z</time></trkpt>
<trkpt lat="45.386812" lon="4.449916"><ele>241.9</ele><time>2008-29-09T10:17:28Z</time></trkpt>
<trkpt lat="45.3868" lon="4.449901"><ele>241</ele><time>2008-29-09T10:17:29Z</time></trkpt>
<trkpt lat="45.386787" lon="4.449894"><ele>241.1</ele><time>2008-29-09T10:17:30Z</time></trkpt>
<trkpt lat="45.386772" lon="4.44989"><ele>241.1</ele><time>2008-29-09T10:17:31Z</time></trkpt>
<trkpt lat="45.386758" lon="4.449884"><ele>240.6</ele><time>2008-29-09T10:17:32Z</time></trkpt>
<trkpt lat="45.386746" lon="4.449874"><ele>240.4</ele><time>2008-29-09T10:17:33Z</time></trkpt>
<trkpt lat="45.386732" lon="4.449869"><ele>240.4</ele><time>2008-29-09T10:17:34Z</time></trkpt>
<trkpt lat="45.386717" lon="4.449863"><ele>241.2</ele><time>2008-29-09T10:17:35Z</time></trkpt>
<trkpt lat="45.386702" lon="4.44986"><ele>240.6</ele><time>2008-29-09T10:17:36Z</time></trkpt>
<trkpt lat="45.386687" lon="4.449861"><ele>244.2</ele><time>2008-29-09T10:17:37Z</time></trkpt>
<trkpt lat="45.386671" lon="4.449872"><ele>245.7</ele><time>2008-29-09T10:17:38Z</time></trkpt>
<trkpt lat="45.386654" lon="4.449884"><ele>247.6</ele><time>2008-29-09T10:17:39Z</time></trkpt>
<trkpt lat="45.386639" lon="4.449891"><ele>250.4</ele><time>2008-29-09T10:17:40Z</time></trkpt>
<trkpt lat="45.386625" lon="4.449896"><ele>252.7</ele><time>2008-29-09T10:17:41Z</time></trkpt>
<trkpt lat="45.38661" lon="4.449906"><ele>252.9</ele><time>2008-29-09T10:17:42Z</time></trkpt>
<trkpt lat="45.386592" lon="4.449919"><ele>252.7</ele><time>2008-29-09T10:17:43Z</time></trkpt>
<trkpt lat="45.386576" lon="4.449934"><ele>252.9</ele><time>2008-29-09T10:17:44Z</time></trkpt>
<trkpt lat="45.386559" lon="4.449944"><ele>253</ele><time>2008-29-09T10:17:45Z</time></trkpt>
<trkpt lat="45.386541" lon="4.44995"><ele>252.5</ele><time>2008-29-09T10:17:46Z</time></trkpt>
<trkpt lat="45.386523" lon="4.44996"><ele>252.3</ele><time>2008-29-09T10:17:47Z</time></trkpt>
<trkpt lat="45.386504" lon="4.449971"><ele>252.2</ele><time>2008-29-09T10:17:48Z</time></trkpt>
<trkpt lat="45.386485" lon="4.449981"><ele>250</ele><time>2008-29-09T10:17:49Z</time></trkpt>
<trkpt lat="45.386454" lon="4.449994"><ele>248.9</ele><time>2008-29-09T10:17:50Z</time></trkpt>
<trkpt lat="45.386425" lon="4.450004"><ele>249</ele><time>2008-29-09T10:17:51Z</time></trkpt>
<trkpt lat="45.386402" lon="4.450012"><ele>248.6</ele><time>2008-29-09T10:17:52Z</time></trkpt>
<trkpt lat="45.38638" lon="4.450021"><ele>248</ele><time>2008-29-09T10:17:53Z</time></trkpt>
<trkpt lat="45.386353" lon="4.450031"><ele>246.5</ele><time>2008-29-09T10:17:54Z</time></trkpt>
<trkpt lat="45.386326" lon="4.450044"><ele>246.3</ele><time>2008-29-09T10:17:55Z</time></trkpt>
<trkpt lat="45.3863" lon="4.450057"><ele>245.8</ele><time>2008-29-09T10:17:56Z</time></trkpt>
<trkpt lat="45.386273" lon="4.450071"><ele>245.2</ele><time>2008-29-09T10:17:57Z</time></trkpt>
<trkpt lat="45.386247" lon="4.450085"><ele>245.3</ele><time>2008-29-09T10:17:58Z</time></trkpt>
<trkpt lat="45.386222" lon="4.450099"><ele>247.6</ele><time>2008-29-09T10:17:59Z</time></trkpt>
<trkpt lat="45.386191" lon="4.450119"><ele>248.9</ele><time>2008-29-09T10:18:00Z</time></trkpt>
<trkpt lat="45.386161" lon="4.450136"><ele>249.1</ele><time>2008-29-09T10:18:01Z</time></trkpt>
<trkpt lat="45.386135" lon="4.450148"><ele>256.8</ele><time>2008-29-09T10:18:02Z</time></trkpt>
<trkpt lat="45.386079" lon="4.450156"><ele>256.8</ele><time>2008-29-09T10:18:03Z</time></trkpt>
<trkpt lat="45.386053" lon="4.450166"><ele>258</ele><time>2008-29-09T10:18:04Z</time></trkpt>
<trkpt lat="45.386027" lon="4.45017"><ele>257.6</ele><time>2008-29-09T10:18:05Z</time></trkpt>
<trkpt lat="45.386001" lon="4.450168"><ele>259.3</ele><time>2008-29-09T10:18:06Z</time></trkpt>
<trkpt lat="45.385972" lon="4.450171"><ele>259.2</ele><time>2008-29-09T10:18:07Z</time></trkpt>
<trkpt lat="45.385948" lon="4.450177"><ele>260.5</ele><time>2008-29-09T10:18:08Z</time></trkpt>
<trkpt lat="45.385924" lon="4.450174"><ele>259.1</ele><time>2008-29-09T10:18:09Z</time></trkpt>
<trkpt lat="45.3859" lon="4.450167"><ele>259.9</ele><time>2008-29-09T10:18:10Z</time></trkpt>
<trkpt lat="45.385875" lon="4.450176"><ele>260.1</ele><time>2008-29-09T10:18:11Z</time></trkpt>
<trkpt lat="45.38585" lon="4.45018"><ele>261.4</ele><time>2008-29-09T10:18:12Z</time></trkpt>
<trkpt lat="45.385826" lon="4.450186"><ele>260.6</ele><time>2008-29-09T10:18:13Z</time></trkpt>
<trkpt lat="45.385802" lon="4.450198"><ele>259.9</ele><time>2008-29-09T10:18:14Z</time></trkpt>
<trkpt lat="45.385778" lon="4.450203"><ele>259.5</ele><time>2008-29-09T10:18:15Z</time></trkpt>
<trkpt lat="45.385755" lon="4.450215"><ele>259.3</ele><time>2008-29-09T10:18:16Z</time></trkpt>
<trkpt lat="45.385732" lon="4.450229"><ele>259.1</ele><time>2008-29-09T10:18:17Z</time></trkpt>
<trkpt lat="45.385708" lon="4.450241"><ele>257.6</ele><time>2008-29-09T10:18:18Z</time></trkpt>
<trkpt lat="45.385683" lon="4.450251"><ele>260.5</ele><time>2008-29-09T10:18:19Z</time></trkpt>
<trkpt lat="45.385658" lon="4.450257"><ele>260.6</ele><time>2008-29-09T10:18:20Z</time></trkpt>
<trkpt lat="45.385634" lon="4.450266"><ele>259.1</ele><time>2008-29-09T10:18:21Z</time></trkpt>
<trkpt lat="45.38561" lon="4.450283"><ele>259.1</ele><time>2008-29-09T10:18:22Z</time></trkpt>
<trkpt lat="45.385587" lon="4.450303"><ele>259.7</ele><time>2008-29-09T10:18:23Z</time></trkpt>
<trkpt lat="45.385564" lon="4.450322"><ele>260.7</ele><time>2008-29-09T10:18:24Z</time></trkpt>
<trkpt lat="45.385542" lon="4.45034"><ele>261.5</ele><time>2008-29-09T10:18:25Z</time></trkpt>
<trkpt lat="45.385523" lon="4.450355"><ele>261.9</ele><time>2008-29-09T10:18:26Z</time></trkpt>
<trkpt lat="45.385505" lon="4.450365"><ele>262.3</ele><time>2008-29-09T10:18:27Z</time></trkpt>
<trkpt lat="45.385486" lon="4.450377"><ele>262.6</ele><time>2008-29-09T10:18:28Z</time></trkpt>
<trkpt lat="45.385467" lon="4.450388"><ele>263</ele><time>2008-29-09T10:18:29Z</time></trkpt>
<trkpt lat="45.385447" lon="4.450395"><ele>263</ele><time>2008-29-09T10:18:30Z</time></trkpt>
<trkpt lat="45.385426" lon="4.450398"><ele>263.2</ele><time>2008-29-09T10:18:31Z</time></trkpt>
<trkpt lat="45.385403" lon="4.450408"><ele>263.3</ele><time>2008-29-09T10:18:32Z</time></trkpt>
<trkpt lat="45.385379" lon="4.450419"><ele>262.9</ele><time>2008-29-09T10:18:33Z</time></trkpt>
<trkpt lat="45.385356" lon="4.450433"><ele>262.7</ele><time>2008-29-09T10:18:34Z</time></trkpt>
<trkpt lat="45.385332" lon="4.450444"><ele>260.5</ele><time>2008-29-09T10:18:35Z</time></trkpt>
<trkpt lat="45.385306" lon="4.45045"><ele>260</ele><time>2008-29-09T10:18:36Z</time></trkpt>
<trkpt lat="45.38528" lon="4.450458"><ele>259.8</ele><time>2008-29-09T10:18:37Z</time></trkpt>
<trkpt lat="45.385256" lon="4.450471"><ele>259.8</ele><time>2008-29-09T10:18:38Z</time></trkpt>
<trkpt lat="45.385237" lon="4.450486"><ele>259</ele><time>2008-29-09T10:18:39Z</time></trkpt>
<trkpt lat="45.385223" lon="4.4505"><ele>258.7</ele><time>2008-29-09T10:18:40Z</time></trkpt>
<trkpt lat="45.385209" lon="4.450515"><ele>259.1</ele><time>2008-29-09T10:18:41Z</time></trkpt>
<trkpt lat="45.385194" lon="4.450533"><ele>259</ele><time>2008-29-09T10:18:42Z</time></trkpt>
<trkpt lat="45.385179" lon="4.450543"><ele>259.2</ele><time>2008-29-09T10:18:43Z</time></trkpt>
<trkpt lat="45.385165" lon="4.450556"><ele>259.7</ele><time>2008-29-09T10:18:44Z</time></trkpt>
<trkpt lat="45.385149" lon="4.450572"><ele>259.6</ele><time>2008-29-09T10:18:45Z</time></trkpt>
<trkpt lat="45.38513" lon="4.450583"><ele>259.3</ele><time>2008-29-09T10:18:46Z</time></trkpt>
<trkpt lat="45.385108" lon="4.450588"><ele>258.6</ele><time>2008-29-09T10:18:47Z</time></trkpt>
<trkpt lat="45.385083" lon="4.450591"><ele>258.8</ele><time>2008-29-09T10:18:48Z</time></trkpt>
<trkpt lat="45.385052" lon="4.450617"><ele>258</ele><time>2008-29-09T10:18:49Z</time></trkpt>
<trkpt lat="45.385027" lon="4.450631"><ele>258</ele><time>2008-29-09T10:18:50Z</time></trkpt>
<trkpt lat="45.385006" lon="4.450644"><ele>257.9</ele><time>2008-29-09T10:18:51Z</time></trkpt>
<trkpt lat="45.384983" lon="4.45066"><ele>257.3</ele><time>2008-29-09T10:18:52Z</time></trkpt>
<trkpt lat="45.384961" lon="4.450673"><ele>256.9</ele><time>2008-29-09T10:18:53Z</time></trkpt>
<trkpt lat="45.384938" lon="4.450686"><ele>256.5</ele><time>2008-29-09T10:18:54Z</time></trkpt>
<trkpt lat="45.384913" lon="4.450701"><ele>256.1</ele><time>2008-29-09T10:18:55Z</time></trkpt>
<trkpt lat="45.38489" lon="4.45071"><ele>255.3</ele><time>2008-29-09T10:18:56Z</time></trkpt>
<trkpt lat="45.384871" lon="4.450722"><ele>255.7</ele><time>2008-29-09T10:18:57Z</time></trkpt>
<trkpt lat="45.384848" lon="4.450749"><ele>254.9</ele><time>2008-29-09T10:18:58Z</time></trkpt>
<trkpt lat="45.384826" lon="4.45076"><ele>254.3</ele><time>2008-29-09T10:18:59Z</time></trkpt>
<trkpt lat="45.384799" lon="4.450771"><ele>253.2</ele><time>2008-29-09T10:19:00Z</time></trkpt>
<trkpt lat="45.384773" lon="4.450781"><ele>251.8</ele><time>2008-29-09T10:19:01Z</time></trkpt>
<trkpt lat="45.384749" lon="4.450793"><ele>251.2</ele><time>2008-29-09T10:19:02Z</time></trkpt>
<trkpt lat="45.384722" lon="4.450806"><ele>250.6</ele><time>2008-29-09T10:19:03Z</time></trkpt>
<trkpt lat="45.384696" lon="4.450814"><ele>249.7</ele><time>2008-29-09T10:19:04Z</time></trkpt>
<trkpt lat="45.38467" lon="4.450824"><ele>248.7</ele><time>2008-29-09T10:19:05Z</time></trkpt>
<trkpt lat="45.384648" lon="4.450832"><ele>247.9</ele><time>2008-29-09T10:19:06Z</time></trkpt>
<trkpt lat="45.384623" lon="4.450841"><ele>247.2</ele><time>2008-29-09T10:19:07Z</time></trkpt>
<trkpt lat="45.384598" lon="4.450845"><ele>243.6</ele><time>2008-29-09T10:19:08Z</time></trkpt>
<trkpt lat="45.38457" lon="4.450841"><ele>243.5</ele><time>2008-29-09T10:19:09Z</time></trkpt>
<trkpt lat="45.384544" lon="4.450839"><ele>233.8</ele><time>2008-29-09T10:19:10Z</time></trkpt>
<trkpt lat="45.38451" lon="4.450833"><ele>232</ele><time>2008-29-09T10:19:11Z</time></trkpt>
<trkpt lat="45.38446" lon="4.450829"><ele>244.9</ele><time>2008-29-09T10:19:12Z</time></trkpt>
<trkpt lat="45.38439" lon="4.450811"><ele>249.6</ele><time>2008-29-09T10:19:13Z</time></trkpt>
<trkpt lat="45.384348" lon="4.450806"><ele>243.3</ele><time>2008-29-09T10:19:14Z</time></trkpt>
<trkpt lat="45.384299" lon="4.450818"><ele>250.4</ele><time>2008-29-09T10:19:15Z</time></trkpt>
<trkpt lat="45.384246" lon="4.450851"><ele>251.4</ele><time>2008-29-09T10:19:16Z</time></trkpt>
<trkpt lat="45.384216" lon="4.450868"><ele>251.1</ele><time>2008-29-09T10:19:17Z</time></trkpt>
<trkpt lat="45.384186" lon="4.450871"><ele>248.7</ele><time>2008-29-09T10:19:18Z</time></trkpt>
<trkpt lat="45.384153" lon="4.450873"><ele>247.6</ele><time>2008-29-09T10:19:19Z</time></trkpt>
<trkpt lat="45.384123" lon="4.450877"><ele>247.3</ele><time>2008-29-09T10:19:20Z</time></trkpt>
<trkpt lat="45.384092" lon="4.450882"><ele>246.8</ele><time>2008-29-09T10:19:21Z</time></trkpt>
<trkpt lat="45.384057" lon="4.4509"><ele>249.8</ele><time>2008-29-09T10:19:22Z</time></trkpt>
<trkpt lat="45.384021" lon="4.450909"><ele>251.9</ele><time>2008-29-09T10:19:23Z</time></trkpt>
<trkpt lat="45.383989" lon="4.450912"><ele>258</ele><time>2008-29-09T10:19:24Z</time></trkpt>
<trkpt lat="45.383946" lon="4.450914"><ele>260</ele><time>2008-29-09T10:19:25Z</time></trkpt>
<trkpt lat="45.38391" lon="4.450924"><ele>260.7</ele><time>2008-29-09T10:19:26Z</time></trkpt>
<trkpt lat="45.383881" lon="4.450928"><ele>262.8</ele><time>2008-29-09T10:19:27Z</time></trkpt>
<trkpt lat="45.383849" lon="4.450935"><ele>263.8</ele><time>2008-29-09T10:19:28Z</time></trkpt>
<trkpt lat="45.38382" lon="4.450942"><ele>263.3</ele><time>2008-29-09T10:19:29Z</time></trkpt>
<trkpt lat="45.383791" lon="4.450945"><ele>263.8</ele><time>2008-29-09T10:19:30Z</time></trkpt>
<trkpt lat="45.38376" lon="4.450948"><ele>262.3</ele><time>2008-29-09T10:19:31Z</time></trkpt>
<trkpt lat="45.383728" lon="4.450957"><ele>261.1</ele><time>2008-29-09T10:19:32Z</time></trkpt>
<trkpt lat="45.383698" lon="4.450959"><ele>260.2</ele><time>2008-29-09T10:19:33Z</time></trkpt>
<trkpt lat="45.383668" lon="4.450959"><ele>259.7</ele><time>2008-29-09T10:19:34Z</time></trkpt>
<trkpt lat="45.383636" lon="4.450958"><ele>257.7</ele><time>2008-29-09T10:19:35Z</time></trkpt>
<trkpt lat="45.383601" lon="4.450958"><ele>257.3</ele><time>2008-29-09T10:19:36Z</time></trkpt>
<trkpt lat="45.38357" lon="4.450961"><ele>257.2</ele><time>2008-29-09T10:19:37Z</time></trkpt>
<trkpt lat="45.383541" lon="4.450964"><ele>256.4</ele><time>2008-29-09T10:19:38Z</time></trkpt>
<trkpt lat="45.383511" lon="4.450961"><ele>256.2</ele><time>2008-29-09T10:19:39Z</time></trkpt>
<trkpt lat="45.383481" lon="4.450955"><ele>255.4</ele><time>2008-29-09T10:19:40Z</time></trkpt>
<trkpt lat="45.38345" lon="4.450951"><ele>256.4</ele><time>2008-29-09T10:19:41Z</time></trkpt>
<trkpt lat="45.383417" lon="4.450948"><ele>255.1</ele><time>2008-29-09T10:19:42Z</time></trkpt>
<trkpt lat="45.383387" lon="4.450937"><ele>258.2</ele><time>2008-29-09T10:19:43Z</time></trkpt>
<trkpt lat="45.383354" lon="4.450931"><ele>257.6</ele><time>2008-29-09T10:19:44Z</time></trkpt>
<trkpt lat="45.383324" lon="4.450924"><ele>257.2</ele><time>2008-29-09T10:19:45Z</time></trkpt>
<trkpt lat="45.383294" lon="4.45092"><ele>256.8</ele><time>2008-29-09T10:19:46Z</time></trkpt>
<trkpt lat="45.383264" lon="4.450917"><ele>258.2</ele><time>2008-29-09T10:19:47Z</time></trkpt>
<trkpt lat="45.383234" lon="4.450914"><ele>260</ele><time>2008-29-09T10:19:48Z</time></trkpt>
<trkpt lat="45.383206" lon="4.450913"><ele>260.9</ele><time>2008-29-09T10:19:49Z</time></trkpt>
<trkpt lat="45.38318" lon="4.450909"><ele>260.6</ele><time>2008-29-09T10:19:50Z</time></trkpt>
<trkpt lat="45.383155" lon="4.450903"><ele>260.3</ele><time>2008-29-09T10:19:51Z</time></trkpt>
<trkpt lat="45.383127" lon="4.450896"><ele>257.4</ele><time>2008-29-09T10:19:52Z</time></trkpt>
<trkpt lat="45.383096" lon="4.450885"><ele>257.3</ele><time>2008-29-09T10:19:53Z</time></trkpt>
<trkpt lat="45.383068" lon="4.450885"><ele>258.1</ele><time>2008-29-09T10:19:54Z</time></trkpt>
<trkpt lat="45.38304" lon="4.450882"><ele>257.6</ele><time>2008-29-09T10:19:55Z</time></trkpt>
<trkpt lat="45.383013" lon="4.450878"><ele>257.1</ele><time>2008-29-09T10:19:56Z</time></trkpt>
<trkpt lat="45.382985" lon="4.450875"><ele>256.4</ele><time>2008-29-09T10:19:57Z</time></trkpt>
<trkpt lat="45.382958" lon="4.450868"><ele>256.3</ele><time>2008-29-09T10:19:58Z</time></trkpt>
<trkpt lat="45.382929" lon="4.450871"><ele>257.4</ele><time>2008-29-09T10:19:59Z</time></trkpt>
<trkpt lat="45.382898" lon="4.450878"><ele>257</ele><time>2008-29-09T10:20:00Z</time></trkpt>
<trkpt lat="45.382868" lon="4.45088"><ele>257.3</ele><time>2008-29-09T10:20:01Z</time></trkpt>
<trkpt lat="45.382836" lon="4.450879"><ele>255.9</ele><time>2008-29-09T10:20:02Z</time></trkpt>
<trkpt lat="45.382807" lon="4.450882"><ele>254.5</ele><time>2008-29-09T10:20:03Z</time></trkpt>
<trkpt lat="45.382776" lon="4.450884"><ele>254.7</ele><time>2008-29-09T10:20:04Z</time></trkpt>
<trkpt lat="45.382746" lon="4.450883"><ele>254.9</ele><time>2008-29-09T10:20:05Z</time></trkpt>
<trkpt lat="45.382715" lon="4.450882"><ele>256.4</ele><time>2008-29-09T10:20:06Z</time></trkpt>
<trkpt lat="45.382678" lon="4.450881"><ele>256.9</ele><time>2008-29-09T10:20:07Z</time></trkpt>
<trkpt lat="45.382646" lon="4.450886"><ele>256.4</ele><time>2008-29-09T10:20:08Z</time></trkpt>
<trkpt lat="45.382617" lon="4.450886"><ele>256.2</ele><time>2008-29-09T10:20:09Z</time></trkpt>
<trkpt lat="45.382588" lon="4.45088"><ele>256.5</ele><time>2008-29-09T10:20:10Z</time></trkpt>
<trkpt lat="45.382559" lon="4.450885"><ele>256.5</ele><time>2008-29-09T10:20:11Z</time></trkpt>
<trkpt lat="45.382529" lon="4.45089"><ele>256.8</ele><time>2008-29-09T10:20:12Z</time></trkpt>
<trkpt lat="45.382499" lon="4.450893"><ele>256.7</ele><time>2008-29-09T10:20:13Z</time></trkpt>
<trkpt lat="45.382468" lon="4.450894"><ele>257.1</ele><time>2008-29-09T10:20:14Z</time></trkpt>
<trkpt lat="45.382439" lon="4.450893"><ele>257.1</ele><time>2008-29-09T10:20:15Z</time></trkpt>
<trkpt lat="45.38241" lon="4.450896"><ele>257.7</ele><time>2008-29-09T10:20:16Z</time></trkpt>
<trkpt lat="45.382381" lon="4.450901"><ele>258.3</ele><time>2008-29-09T10:20:17Z</time></trkpt>
<trkpt lat="45.382353" lon="4.450908"><ele>260.3</ele><time>2008-29-09T10:20:18Z</time></trkpt>
<trkpt lat="45.382325" lon="4.450916"><ele>260.5</ele><time>2008-29-09T10:20:19Z</time></trkpt>
<trkpt lat="45.382296" lon="4.450927"><ele>259.1</ele><time>2008-29-09T10:20:20Z</time></trkpt>
<trkpt lat="45.382267" lon="4.450936"><ele>257.5</ele><time>2008-29-09T10:20:21Z</time></trkpt>
<trkpt lat="45.38224" lon="4.450943"><ele>257.5</ele><time>2008-29-09T10:20:22Z</time></trkpt>
<trkpt lat="45.382213" lon="4.450952"><ele>256.9</ele><time>2008-29-09T10:20:23Z</time></trkpt>
<trkpt lat="45.382187" lon="4.45096"><ele>256.6</ele><time>2008-29-09T10:20:24Z</time></trkpt>
<trkpt lat="45.382162" lon="4.450968"><ele>256.5</ele><time>2008-29-09T10:20:25Z</time></trkpt>
<trkpt lat="45.382135" lon="4.450974"><ele>256.3</ele><time>2008-29-09T10:20:26Z</time></trkpt>
<trkpt lat="45.382108" lon="4.45098"><ele>256.1</ele><time>2008-29-09T10:20:27Z</time></trkpt>
<trkpt lat="45.382082" lon="4.450986"><ele>254.5</ele><time>2008-29-09T10:20:28Z</time></trkpt>
<trkpt lat="45.382057" lon="4.450995"><ele>255.2</ele><time>2008-29-09T10:20:29Z</time></trkpt>
<trkpt lat="45.382031" lon="4.451005"><ele>255.7</ele><time>2008-29-09T10:20:30Z</time></trkpt>
<trkpt lat="45.382005" lon="4.451014"><ele>256.4</ele><time>2008-29-09T10:20:31Z</time></trkpt>
<trkpt lat="45.381978" lon="4.451025"><ele>257.5</ele><time>2008-29-09T10:20:32Z</time></trkpt>
<trkpt lat="45.381951" lon="4.451032"><ele>258.4</ele><time>2008-29-09T10:20:33Z</time></trkpt>
<trkpt lat="45.381923" lon="4.451041"><ele>258.7</ele><time>2008-29-09T10:20:34Z</time></trkpt>
<trkpt lat="45.381895" lon="4.451052"><ele>258.7</ele><time>2008-29-09T10:20:35Z</time></trkpt>
<trkpt lat="45.381869" lon="4.451063"><ele>258.2</ele><time>2008-29-09T10:20:36Z</time></trkpt>
<trkpt lat="45.381843" lon="4.451075"><ele>258.4</ele><time>2008-29-09T10:20:37Z</time></trkpt>
<trkpt lat="45.381817" lon="4.451093"><ele>258.7</ele><time>2008-29-09T10:20:38Z</time></trkpt>
<trkpt lat="45.38179" lon="4.451109"><ele>258.6</ele><time>2008-29-09T10:20:39Z</time></trkpt>
<trkpt lat="45.381764" lon="4.45112"><ele>258.5</ele><time>2008-29-09T10:20:40Z</time></trkpt>
<trkpt lat="45.38174" lon="4.451129"><ele>259.1</ele><time>2008-29-09T10:20:41Z</time></trkpt>
<trkpt lat="45.381715" lon="4.451137"><ele>258</ele><time>2008-29-09T10:20:42Z</time></trkpt>
<trkpt lat="45.381688" lon="4.451142"><ele>258.5</ele><time>2008-29-09T10:20:43Z</time></trkpt>
<trkpt lat="45.38166" lon="4.451147"><ele>256.8</ele><time>2008-29-09T10:20:44Z</time></trkpt>
<trkpt lat="45.381633" lon="4.451156"><ele>256.1</ele><time>2008-29-09T10:20:45Z</time></trkpt>
<trkpt lat="45.381606" lon="4.451163"><ele>256.4</ele><time>2008-29-09T10:20:46Z</time></trkpt>
<trkpt lat="45.38158" lon="4.451169"><ele>256.5</ele><time>2008-29-09T10:20:47Z</time></trkpt>
<trkpt lat="45.381553" lon="4.451177"><ele>258.3</ele><time>2008-29-09T10:20:48Z</time></trkpt>
<trkpt lat="45.381526" lon="4.451186"><ele>258.8</ele><time>2008-29-09T10:20:49Z</time></trkpt>
<trkpt lat="45.381503" lon="4.451196"><ele>259.6</ele><time>2008-29-09T10:20:50Z</time></trkpt>
<trkpt lat="45.381479" lon="4.451206"><ele>259.9</ele><time>2008-29-09T10:20:51Z</time></trkpt>
<trkpt lat="45.381454" lon="4.451214"><ele>258.8</ele><time>2008-29-09T10:20:52Z</time></trkpt>
<trkpt lat="45.381427" lon="4.451223"><ele>259.6</ele><time>2008-29-09T10:20:53Z</time></trkpt>
<trkpt lat="45.381402" lon="4.45124"><ele>260.4</ele><time>2008-29-09T10:20:54Z</time></trkpt>
<trkpt lat="45.381377" lon="4.45125"><ele>261.2</ele><time>2008-29-09T10:20:55Z</time></trkpt>
<trkpt lat="45.381353" lon="4.451261"><ele>261.9</ele><time>2008-29-09T10:20:56Z</time></trkpt>
<trkpt lat="45.381329" lon="4.451271"><ele>262.1</ele><time>2008-29-09T10:20:57Z</time></trkpt>
<trkpt lat="45.381306" lon="4.451282"><ele>262.2</ele><time>2008-29-09T10:20:58Z</time></trkpt>
<trkpt lat="45.381284" lon="4.451295"><ele>261.4</ele><time>2008-29-09T10:20:59Z</time></trkpt>
<trkpt lat="45.381261" lon="4.451308"><ele>261.6</ele><time>2008-29-09T10:21:00Z</time></trkpt>
<trkpt lat="45.381238" lon="4.451319"><ele>261.4</ele><time>2008-29-09T10:21:01Z</time></trkpt>
<trkpt lat="45.381215" lon="4.451331"><ele>262.5</ele><time>2008-29-09T10:21:02Z</time></trkpt>
<trkpt lat="45.381191" lon="4.451347"><ele>263.6</ele><time>2008-29-09T10:21:03Z</time></trkpt>
<trkpt lat="45.381168" lon="4.451364"><ele>264.4</ele><time>2008-29-09T10:21:04Z</time></trkpt>
<trkpt lat="45.381149" lon="4.45138"><ele>266.2</ele><time>2008-29-09T10:21:05Z</time></trkpt>
<trkpt lat="45.381131" lon="4.451394"><ele>267.4</ele><time>2008-29-09T10:21:06Z</time></trkpt>
<trkpt lat="45.381114" lon="4.451403"><ele>267.8</ele><time>2008-29-09T10:21:07Z</time></trkpt>
<trkpt lat="45.381098" lon="4.451416"><ele>267.8</ele><time>2008-29-09T10:21:08Z</time></trkpt>
<trkpt lat="45.381081" lon="4.45143"><ele>268.3</ele><time>2008-29-09T10:21:09Z</time></trkpt>
<trkpt lat="45.381062" lon="4.451446"><ele>268.9</ele><time>2008-29-09T10:21:10Z</time></trkpt>
<trkpt lat="45.381043" lon="4.451463"><ele>269.6</ele><time>2008-29-09T10:21:11Z</time></trkpt>
<trkpt lat="45.381026" lon="4.451477"><ele>270.1</ele><time>2008-29-09T10:21:12Z</time></trkpt>
<trkpt lat="45.38101" lon="4.451492"><ele>270.4</ele><time>2008-29-09T10:21:13Z</time></trkpt>
<trkpt lat="45.380995" lon="4.451502"><ele>270.5</ele><time>2008-29-09T10:21:14Z</time></trkpt>
<trkpt lat="45.380983" lon="4.451508"><ele>270.9</ele><time>2008-29-09T10:21:15Z</time></trkpt>
<trkpt lat="45.380975" lon="4.451515"><ele>271</ele><time>2008-29-09T10:21:16Z</time></trkpt>
<trkpt lat="45.380966" lon="4.451528"><ele>269.2</ele><time>2008-29-09T10:21:17Z</time></trkpt>
<trkpt lat="45.380955" lon="4.451545"><ele>266.2</ele><time>2008-29-09T10:21:18Z</time></trkpt>
<trkpt lat="45.380935" lon="4.451567"><ele>263.9</ele><time>2008-29-09T10:21:19Z</time></trkpt>
<trkpt lat="45.380916" lon="4.45159"><ele>263.3</ele><time>2008-29-09T10:21:20Z</time></trkpt>
<trkpt lat="45.380899" lon="4.451618"><ele>263.4</ele><time>2008-29-09T10:21:21Z</time></trkpt>
<trkpt lat="45.380883" lon="4.451646"><ele>261.3</ele><time>2008-29-09T10:21:22Z</time></trkpt>
<trkpt lat="45.380867" lon="4.451674"><ele>259.1</ele><time>2008-29-09T10:21:23Z</time></trkpt>
<trkpt lat="45.380847" lon="4.451697"><ele>256.3</ele><time>2008-29-09T10:21:24Z</time></trkpt>
<trkpt lat="45.380828" lon="4.451721"><ele>256.3</ele><time>2008-29-09T10:21:25Z</time></trkpt>
<trkpt lat="45.380806" lon="4.451748"><ele>255.4</ele><time>2008-29-09T10:21:26Z</time></trkpt>
<trkpt lat="45.380785" lon="4.451775"><ele>256.2</ele><time>2008-29-09T10:21:27Z</time></trkpt>
<trkpt lat="45.380765" lon="4.451813"><ele>255.4</ele><time>2008-29-09T10:21:28Z</time></trkpt>
<trkpt lat="45.380747" lon="4.451845"><ele>254.1</ele><time>2008-29-09T10:21:29Z</time></trkpt>
<trkpt lat="45.380727" lon="4.451879"><ele>254.1</ele><time>2008-29-09T10:21:30Z</time></trkpt>
<trkpt lat="45.380706" lon="4.451913"><ele>254.4</ele><time>2008-29-09T10:21:31Z</time></trkpt>
<trkpt lat="45.380685" lon="4.451946"><ele>253.8</ele><time>2008-29-09T10:21:32Z</time></trkpt>
<trkpt lat="45.380664" lon="4.451977"><ele>253.9</ele><time>2008-29-09T10:21:33Z</time></trkpt>
<trkpt lat="45.380642" lon="4.45201"><ele>253.3</ele><time>2008-29-09T10:21:34Z</time></trkpt>
<trkpt lat="45.380618" lon="4.452045"><ele>252.3</ele><time>2008-29-09T10:21:35Z</time></trkpt>
<trkpt lat="45.380596" lon="4.452087"><ele>253.4</ele><time>2008-29-09T10:21:36Z</time></trkpt>
<trkpt lat="45.380575" lon="4.452121"><ele>255.8</ele><time>2008-29-09T10:21:37Z</time></trkpt>
<trkpt lat="45.380552" lon="4.452157"><ele>255.2</ele><time>2008-29-09T10:21:38Z</time></trkpt>
<trkpt lat="45.380529" lon="4.452184"><ele>254.8</ele><time>2008-29-09T10:21:39Z</time></trkpt>
<trkpt lat="45.380506" lon="4.452211"><ele>256.3</ele><time>2008-29-09T10:21:40Z</time></trkpt>
<trkpt lat="45.380483" lon="4.452236"><ele>256.4</ele><time>2008-29-09T10:21:41Z</time></trkpt>
<trkpt lat="45.380457" lon="4.452259"><ele>258.5</ele><time>2008-29-09T10:21:42Z</time></trkpt>
<trkpt lat="45.380434" lon="4.452307"><ele>258.6</ele><time>2008-29-09T10:21:43Z</time></trkpt>
<trkpt lat="45.38041" lon="4.452326"><ele>258.8</ele><time>2008-29-09T10:21:44Z</time></trkpt>
<trkpt lat="45.380385" lon="4.452347"><ele>260.1</ele><time>2008-29-09T10:21:45Z</time></trkpt>
<trkpt lat="45.38036" lon="4.45237"><ele>260.1</ele><time>2008-29-09T10:21:46Z</time></trkpt>
<trkpt lat="45.380335" lon="4.45239"><ele>262.1</ele><time>2008-29-09T10:21:47Z</time></trkpt>
<trkpt lat="45.380317" lon="4.45243"><ele>261.7</ele><time>2008-29-09T10:21:48Z</time></trkpt>
<trkpt lat="45.380296" lon="4.452445"><ele>261.1</ele><time>2008-29-09T10:21:49Z</time></trkpt>
<trkpt lat="45.380274" lon="4.452462"><ele>261.2</ele><time>2008-29-09T10:21:50Z</time></trkpt>
<trkpt lat="45.38025" lon="4.452478"><ele>261.9</ele><time>2008-29-09T10:21:51Z</time></trkpt>
<trkpt lat="45.380223" lon="4.452495"><ele>263.2</ele><time>2008-29-09T10:21:52Z</time></trkpt>
<trkpt lat="45.380198" lon="4.452513"><ele>264.1</ele><time>2008-29-09T10:21:53Z</time></trkpt>
<trkpt lat="45.380173" lon="4.452532"><ele>264.8</ele><time>2008-29-09T10:21:54Z</time></trkpt>
<trkpt lat="45.380147" lon="4.452552"><ele>265.1</ele><time>2008-29-09T10:21:55Z</time></trkpt>
<trkpt lat="45.380121" lon="4.452571"><ele>265</ele><time>2008-29-09T10:21:56Z</time></trkpt>
<trkpt lat="45.380095" lon="4.45259"><ele>265.1</ele><time>2008-29-09T10:21:57Z</time></trkpt>
<trkpt lat="45.380071" lon="4.452605"><ele>266.6</ele><time>2008-29-09T10:21:58Z</time></trkpt>
<trkpt lat="45.380049" lon="4.452613"><ele>267.6</ele><time>2008-29-09T10:21:59Z</time></trkpt>
<trkpt lat="45.380029" lon="4.452615"><ele>267.1</ele><time>2008-29-09T10:22:00Z</time></trkpt>
<trkpt lat="45.380011" lon="4.452612"><ele>266.6</ele><time>2008-29-09T10:22:01Z</time></trkpt>
<trkpt lat="45.379996" lon="4.452604"><ele>267.3</ele><time>2008-29-09T10:22:02Z</time></trkpt>
<trkpt lat="45.379984" lon="4.452594"><ele>267.1</ele><time>2008-29-09T10:22:03Z</time></trkpt>
<trkpt lat="45.379975" lon="4.452579"><ele>256.9</ele><time>2008-29-09T10:22:04Z</time></trkpt>
<trkpt lat="45.379954" lon="4.452535"><ele>255.2</ele><time>2008-29-09T10:22:05Z</time></trkpt>
<trkpt lat="45.379941" lon="4.452508"><ele>255.2</ele><time>2008-29-09T10:22:06Z</time></trkpt>
<trkpt lat="45.379932" lon="4.452489"><ele>253.2</ele><time>2008-29-09T10:22:07Z</time></trkpt>
<trkpt lat="45.379921" lon="4.45247"><ele>253.9</ele><time>2008-29-09T10:22:08Z</time></trkpt>
<trkpt lat="45.379911" lon="4.452456"><ele>253.6</ele><time>2008-29-09T10:22:09Z</time></trkpt>
<trkpt lat="45.379896" lon="4.452447"><ele>254.8</ele><time>2008-29-09T10:22:10Z</time></trkpt>
<trkpt lat="45.379884" lon="4.452434"><ele>255.5</ele><time>2008-29-09T10:22:11Z</time></trkpt>
<trkpt lat="45.379875" lon="4.452423"><ele>255.3</ele><time>2008-29-09T10:22:12Z</time></trkpt>
<trkpt lat="45.379866" lon="4.452415"><ele>255.1</ele><time>2008-29-09T10:22:13Z</time></trkpt>
<trkpt lat="45.379855" lon="4.452409"><ele>253.6</ele><time>2008-29-09T10:22:14Z</time></trkpt>
<trkpt lat="45.379844" lon="4.452409"><ele>252</ele><time>2008-29-09T10:22:15Z</time></trkpt>
<trkpt lat="45.379833" lon="4.452415"><ele>251.4</ele><time>2008-29-09T10:22:16Z</time></trkpt>
<trkpt lat="45.379821" lon="4.452423"><ele>252</ele><time>2008-29-09T10:22:17Z</time></trkpt>
<trkpt lat="45.379811" lon="4.452428"><ele>252.1</ele><time>2008-29-09T10:22:18Z</time></trkpt>
<trkpt lat="45.3798" lon="4.452427"><ele>252.2</ele><time>2008-29-09T10:22:19Z</time></trkpt>
<trkpt lat="45.37979" lon="4.45243"><ele>252.5</ele><time>2008-29-09T10:22:20Z</time></trkpt>
<trkpt lat="45.379781" lon="4.452434"><ele>253.4</ele><time>2008-29-09T10:22:21Z</time></trkpt>
<trkpt lat="45.37977" lon="4.452439"><ele>252.4</ele><time>2008-29-09T10:22:22Z</time></trkpt>
<trkpt lat="45.37976" lon="4.452447"><ele>252.2</ele><time>2008-29-09T10:22:23Z</time></trkpt>
<trkpt lat="45.379752" lon="4.452454"><ele>252.6</ele><time>2008-29-09T10:22:24Z</time></trkpt>
<trkpt lat="45.379742" lon="4.452461"><ele>253.5</ele><time>2008-29-09T10:22:25Z</time></trkpt>
<trkpt lat="45.379732" lon="4.452467"><ele>253.7</ele><time>2008-29-09T10:22:26Z</time></trkpt>
<trkpt lat="45.379726" lon="4.45247"><ele>253.7</ele><time>2008-29-09T10:22:27Z</time></trkpt>
<trkpt lat="45.379721" lon="4.452474"><ele>253.5</ele><time>2008-29-09T10:22:28Z</time></trkpt>
<trkpt lat="45.379719" lon="4.452469"><ele>253.2</ele><time>2008-29-09T10:22:29Z</time></trkpt>
<trkpt lat="45.379713" lon="4.452464"><ele>254.1</ele><time>2008-29-09T10:22:30Z</time></trkpt>
<trkpt lat="45.379707" lon="4.452464"><ele>254.4</ele><time>2008-29-09T10:22:31Z</time></trkpt>
<trkpt lat="45.379699" lon="4.45247"><ele>256</ele><time>2008-29-09T10:22:32Z</time></trkpt>
<trkpt lat="45.379689" lon="4.452474"><ele>256.6</ele><time>2008-29-09T10:22:33Z</time></trkpt>
<trkpt lat="45.37968" lon="4.45247"><ele>256.7</ele><time>2008-29-09T10:22:34Z</time></trkpt>
<trkpt lat="45.379671" lon="4.452465"><ele>259</ele><time>2008-29-09T10:22:35Z</time></trkpt>
<trkpt lat="45.379663" lon="4.452462"><ele>260.4</ele><time>2008-29-09T10:22:36Z</time></trkpt>
<trkpt lat="45.379657" lon="4.452468"><ele>269.9</ele><time>2008-29-09T10:22:37Z</time></trkpt>
<trkpt lat="45.379632" lon="4.452462"><ele>276.1</ele><time>2008-29-09T10:22:38Z</time></trkpt>
<trkpt lat="45.379616" lon="4.452459"><ele>272.8</ele><time>2008-29-09T10:22:39Z</time></trkpt>
<trkpt lat="45.3796" lon="4.452462"><ele>272.8</ele><time>2008-29-09T10:22:40Z</time></trkpt>
<trkpt lat="45.379585" lon="4.452464"><ele>271.7</ele><time>2008-29-09T10:22:41Z</time></trkpt>
<trkpt lat="45.379569" lon="4.452472"><ele>271.9</ele><time>2008-29-09T10:22:42Z</time></trkpt>
<trkpt lat="45.379555" lon="4.452478"><ele>271.1</ele><time>2008-29-09T10:22:43Z</time></trkpt>
<trkpt lat="45.379542" lon="4.452486"><ele>271.6</ele><time>2008-29-09T10:22:44Z</time></trkpt>
<trkpt lat="45.379529" lon="4.452488"><ele>271.5</ele><time>2008-29-09T10:22:45Z</time></trkpt>
<trkpt lat="45.379516" lon="4.452486"><ele>271.6</ele><time>2008-29-09T10:22:46Z</time></trkpt>
<trkpt lat="45.379506" lon="4.452484"><ele>270.9</ele><time>2008-29-09T10:22:47Z</time></trkpt>
<trkpt lat="45.379495" lon="4.452473"><ele>269.5</ele><time>2008-29-09T10:22:48Z</time></trkpt>
<trkpt lat="45.379484" lon="4.452461"><ele>269.6</ele><time>2008-29-09T10:22:49Z</time></trkpt>
<trkpt lat="45.379475" lon="4.452448"><ele>270.3</ele><time>2008-29-09T10:22:50Z</time></trkpt>
<trkpt lat="45.379465" lon="4.452436"><ele>271</ele><time>2008-29-09T10:22:51Z</time></trkpt>
<trkpt lat="45.379454" lon="4.452428"><ele>270.8</ele><time>2008-29-09T10:22:52Z</time></trkpt>
<trkpt lat="45.379445" lon="4.452416"><ele>270.3</ele><time>2008-29-09T10:22:53Z</time></trkpt>
<trkpt lat="45.379438" lon="4.452406"><ele>270.6</ele><time>2008-29-09T10:22:54Z</time></trkpt>
<trkpt lat="45.379432" lon="4.452399"><ele>271.5</ele><time>2008-29-09T10:22:55Z</time></trkpt>
<trkpt lat="45.379426" lon="4.452389"><ele>271.1</ele><time>2008-29-09T10:22:56Z</time></trkpt>
<trkpt lat="45.379419" lon="4.452379"><ele>271.8</ele><time>2008-29-09T10:22:57Z</time></trkpt>
<trkpt lat="45.379413" lon="4.452368"><ele>272.2</ele><time>2008-29-09T10:22:58Z</time></trkpt>
<trkpt lat="45.379407" lon="4.452356"><ele>270.4</ele><time>2008-29-09T10:22:59Z</time></trkpt>
<trkpt lat="45.379402" lon="4.452351"><ele>269.8</ele><time>2008-29-09T10:23:00Z</time></trkpt>
<trkpt lat="45.379399" lon="4.452341"><ele>269.7</ele><time>2008-29-09T10:23:01Z</time></trkpt>
<trkpt lat="45.379395" lon="4.452331"><ele>269.5</ele><time>2008-29-09T10:23:02Z</time></trkpt>
<trkpt lat="45.379389" lon="4.452321"><ele>268</ele><time>2008-29-09T10:23:03Z</time></trkpt>
<trkpt lat="45.379382" lon="4.452311"><ele>267.4</ele><time>2008-29-09T10:23:04Z</time></trkpt>
<trkpt lat="45.379376" lon="4.452302"><ele>267</ele><time>2008-29-09T10:23:05Z</time></trkpt>
<trkpt lat="45.379368" lon="4.452293"><ele>267.2</ele><time>2008-29-09T10:23:06Z</time></trkpt>
<trkpt lat="45.379359" lon="4.452285"><ele>267.8</ele><time>2008-29-09T10:23:07Z</time></trkpt>
<trkpt lat="45.379349" lon="4.452278"><ele>267.4</ele><time>2008-29-09T10:23:08Z</time></trkpt>
<trkpt lat="45.379338" lon="4.452277"><ele>267</ele><time>2008-29-09T10:23:09Z</time></trkpt>
<trkpt lat="45.379325" lon="4.452283"><ele>266.5</ele><time>2008-29-09T10:23:10Z</time></trkpt>
<trkpt lat="45.379311" lon="4.452294"><ele>266.4</ele><time>2008-29-09T10:23:11Z</time></trkpt>
<trkpt lat="45.379298" lon="4.452305"><ele>266.5</ele><time>2008-29-09T10:23:12Z</time></trkpt>
<trkpt lat="45.379285" lon="4.452316"><ele>266.8</ele><time>2008-29-09T10:23:13Z</time></trkpt>
<trkpt lat="45.37927" lon="4.452331"><ele>266.7</ele><time>2008-29-09T10:23:14Z</time></trkpt>
<trkpt lat="45.379254" lon="4.452347"><ele>266.5</ele><time>2008-29-09T10:23:15Z</time></trkpt>
<trkpt lat="45.379239" lon="4.452366"><ele>266.2</ele><time>2008-29-09T10:23:16Z</time></trkpt>
<trkpt lat="45.379225" lon="4.452389"><ele>266.7</ele><time>2008-29-09T10:23:17Z</time></trkpt>
<trkpt lat="45.379212" lon="4.452404"><ele>267.8</ele><time>2008-29-09T10:23:18Z</time></trkpt>
<trkpt lat="45.379203" lon="4.452419"><ele>268.5</ele><time>2008-29-09T10:23:19Z</time></trkpt>
<trkpt lat="45.379189" lon="4.452436"><ele>268.5</ele><time>2008-29-09T10:23:20Z</time></trkpt>
<trkpt lat="45.379172" lon="4.452451"><ele>263.9</ele><time>2008-29-09T10:23:21Z</time></trkpt>
<trkpt lat="45.379147" lon="4.45246"><ele>268.3</ele><time>2008-29-09T10:23:22Z</time></trkpt>
<trkpt lat="45.379106" lon="4.452464"><ele>267.4</ele><time>2008-29-09T10:23:23Z</time></trkpt>
<trkpt lat="45.379085" lon="4.452473"><ele>267</ele><time>2008-29-09T10:23:24Z</time></trkpt>
<trkpt lat="45.379063" lon="4.452487"><ele>268.4</ele><time>2008-29-09T10:23:25Z</time></trkpt>
<trkpt lat="45.379039" lon="4.452498"><ele>269.1</ele><time>2008-29-09T10:23:26Z</time></trkpt>
<trkpt lat="45.379019" lon="4.452507"><ele>270</ele><time>2008-29-09T10:23:27Z</time></trkpt>
<trkpt lat="45.378996" lon="4.452515"><ele>268.6</ele><time>2008-29-09T10:23:28Z</time></trkpt>
<trkpt lat="45.378977" lon="4.452524"><ele>270.4</ele><time>2008-29-09T10:23:29Z</time></trkpt>
<trkpt lat="45.378958" lon="4.452535"><ele>270.7</ele><time>2008-29-09T10:23:30Z</time></trkpt>
<trkpt lat="45.378941" lon="4.452547"><ele>274.5</ele><time>2008-29-09T10:23:31Z</time></trkpt>
<trkpt lat="45.378922" lon="4.45257"><ele>274.7</ele><time>2008-29-09T10:23:32Z</time></trkpt>
<trkpt lat="45.378905" lon="4.452579"><ele>274.9</ele><time>2008-29-09T10:23:33Z</time></trkpt>
<trkpt lat="45.378888" lon="4.452592"><ele>275.2</ele><time>2008-29-09T10:23:34Z</time></trkpt>
<trkpt lat="45.378871" lon="4.452603"><ele>276.1</ele><time>2008-29-09T10:23:35Z</time></trkpt>
<trkpt lat="45.378853" lon="4.452614"><ele>276.5</ele><time>2008-29-09T10:23:36Z</time></trkpt>
<trkpt lat="45.378834" lon="4.452627"><ele>276.5</ele><time>2008-29-09T10:23:37Z</time></trkpt>
<trkpt lat="45.378815" lon="4.45264"><ele>276.9</ele><time>2008-29-09T10:23:38Z</time></trkpt>
<trkpt lat="45.378795" lon="4.452654"><ele>276.9</ele><time>2008-29-09T10:23:39Z</time></trkpt>
<trkpt lat="45.378776" lon="4.45267"><ele>276.5</ele><time>2008-29-09T10:23:40Z</time></trkpt>
<trkpt lat="45.37876" lon="4.452682"><ele>276.3</ele><time>2008-29-09T10:23:41Z</time></trkpt>
<trkpt lat="45.378746" lon="4.452699"><ele>276.6</ele><time>2008-29-09T10:23:42Z</time></trkpt>
<trkpt lat="45.378732" lon="4.452712"><ele>276.6</ele><time>2008-29-09T10:23:43Z</time></trkpt>
<trkpt lat="45.378716" lon="4.452726"><ele>275.3</ele><time>2008-29-09T10:23:44Z</time></trkpt>
<trkpt lat="45.378697" lon="4.452742"><ele>275</ele><time>2008-29-09T10:23:45Z</time></trkpt>
<trkpt lat="45.378678" lon="4.452757"><ele>272.2</ele><time>2008-29-09T10:23:46Z</time></trkpt>
<trkpt lat="45.378656" lon="4.452773"><ele>271.9</ele><time>2008-29-09T10:23:47Z</time></trkpt>
<trkpt lat="45.378634" lon="4.45279"><ele>271</ele><time>2008-29-09T10:23:48Z</time></trkpt>
<trkpt lat="45.378612" lon="4.452805"><ele>270.6</ele><time>2008-29-09T10:23:49Z</time></trkpt>
<trkpt lat="45.378592" lon="4.452818"><ele>270.9</ele><time>2008-29-09T10:23:50Z</time></trkpt>
<trkpt lat="45.378572" lon="4.452828"><ele>271.6</ele><time>2008-29-09T10:23:51Z</time></trkpt>
<trkpt lat="45.378552" lon="4.452832"><ele>274.1</ele><time>2008-29-09T10:23:52Z</time></trkpt>
<trkpt lat="45.378528" lon="4.452833"><ele>274.6</ele><time>2008-29-09T10:23:53Z</time></trkpt>
<trkpt lat="45.378506" lon="4.452836"><ele>274.6</ele><time>2008-29-09T10:23:54Z</time></trkpt>
<trkpt lat="45.378485" lon="4.452839"><ele>273.9</ele><time>2008-29-09T10:23:55Z</time></trkpt>
<trkpt lat="45.378466" lon="4.452843"><ele>273.6</ele><time>2008-29-09T10:23:56Z</time></trkpt>
<trkpt lat="45.378446" lon="4.452848"><ele>274.1</ele><time>2008-29-09T10:23:57Z</time></trkpt>
<trkpt lat="45.378423" lon="4.45285"><ele>276.2</ele><time>2008-29-09T10:23:58Z</time></trkpt>
<trkpt lat="45.378401" lon="4.452851"><ele>277.9</ele><time>2008-29-09T10:23:59Z</time></trkpt>
<trkpt lat="45.37838" lon="4.452855"><ele>277.7</ele><time>2008-29-09T10:24:00Z</time></trkpt>
<trkpt lat="45.37836" lon="4.452856"><ele>277.3</ele><time>2008-29-09T10:24:01Z</time></trkpt>
<trkpt lat="45.378343" lon="4.452852"><ele>277.3</ele><time>2008-29-09T10:24:02Z</time></trkpt>
<trkpt lat="45.378326" lon="4.45285"><ele>276.7</ele><time>2008-29-09T10:24:03Z</time></trkpt>
<trkpt lat="45.378308" lon="4.452852"><ele>277.1</ele><time>2008-29-09T10:24:04Z</time></trkpt>
<trkpt lat="45.37829" lon="4.452854"><ele>278</ele><time>2008-29-09T10:24:05Z</time></trkpt>
<trkpt lat="45.378271" lon="4.452861"><ele>278.1</ele><time>2008-29-09T10:24:06Z</time></trkpt>
<trkpt lat="45.378252" lon="4.452862"><ele>278.4</ele><time>2008-29-09T10:24:07Z</time></trkpt>
<trkpt lat="45.378234" lon="4.452859"><ele>277.6</ele><time>2008-29-09T10:24:08Z</time></trkpt>
<trkpt lat="45.378215" lon="4.452854"><ele>278</ele><time>2008-29-09T10:24:09Z</time></trkpt>
<trkpt lat="45.378195" lon="4.452856"><ele>277.7</ele><time>2008-29-09T10:24:10Z</time></trkpt>
<trkpt lat="45.378177" lon="4.452859"><ele>278.1</ele><time>2008-29-09T10:24:11Z</time></trkpt>
<trkpt lat="45.378156" lon="4.452862"><ele>278.2</ele><time>2008-29-09T10:24:12Z</time></trkpt>
<trkpt lat="45.378137" lon="4.452865"><ele>278.5</ele><time>2008-29-09T10:24:13Z</time></trkpt>
<trkpt lat="45.378119" lon="4.452869"><ele>278.5</ele><time>2008-29-09T10:24:14Z</time></trkpt>
<trkpt lat="45.378101" lon="4.452873"><ele>278.9</ele><time>2008-29-09T10:24:15Z</time></trkpt>
<trkpt lat="45.378084" lon="4.452876"><ele>279</ele><time>2008-29-09T10:24:16Z</time></trkpt>
<trkpt lat="45.378067" lon="4.45288"><ele>279.2</ele><time>2008-29-09T10:24:17Z</time></trkpt>
<trkpt lat="45.37805" lon="4.452879"><ele>280.1</ele><time>2008-29-09T10:24:18Z</time></trkpt>
<trkpt lat="45.378035" lon="4.452874"><ele>280.8</ele><time>2008-29-09T10:24:19Z</time></trkpt>
<trkpt lat="45.378021" lon="4.452872"><ele>281.4</ele><time>2008-29-09T10:24:20Z</time></trkpt>
<trkpt lat="45.378008" lon="4.452872"><ele>281.4</ele><time>2008-29-09T10:24:21Z</time></trkpt>
<trkpt lat="45.377997" lon="4.452873"><ele>281.8</ele><time>2008-29-09T10:24:22Z</time></trkpt>
<trkpt lat="45.377988" lon="4.452872"><ele>281.9</ele><time>2008-29-09T10:24:23Z</time></trkpt>
<trkpt lat="45.37798" lon="4.452867"><ele>282.8</ele><time>2008-29-09T10:24:24Z</time></trkpt>
<trkpt lat="45.377971" lon="4.452862"><ele>282.2</ele><time>2008-29-09T10:24:25Z</time></trkpt>
<trkpt lat="45.377961" lon="4.452856"><ele>282.2</ele><time>2008-29-09T10:24:26Z</time></trkpt>
<trkpt lat="45.377952" lon="4.452848"><ele>282.3</ele><time>2008-29-09T10:24:27Z</time></trkpt>
<trkpt lat="45.377945" lon="4.452843"><ele>283.3</ele><time>2008-29-09T10:24:28Z</time></trkpt>
<trkpt lat="45.377939" lon="4.452841"><ele>278.8</ele><time>2008-29-09T10:24:29Z</time></trkpt>
<trkpt lat="45.37793" lon="4.452822"><ele>278.6</ele><time>2008-29-09T10:24:30Z</time></trkpt>
<trkpt lat="45.377923" lon="4.452811"><ele>279.1</ele><time>2008-29-09T10:24:31Z</time></trkpt>
<trkpt lat="45.377918" lon="4.45281"><ele>279.7</ele><time>2008-29-09T10:24:32Z</time></trkpt>
<trkpt lat="45.377911" lon="4.452802"><ele>279.8</ele><time>2008-29-09T10:24:33Z</time></trkpt>
<trkpt lat="45.377905" lon="4.452792"><ele>280.2</ele><time>2008-29-09T10:24:34Z</time></trkpt>
<trkpt lat="45.377901" lon="4.45278"><ele>280.3</ele><time>2008-29-09T10:24:35Z</time></trkpt>
<trkpt lat="45.377898" lon="4.452771"><ele>280.3</ele><time>2008-29-09T10:24:36Z</time></trkpt>
<trkpt lat="45.377898" lon="4.452771"><ele>280.3</ele><time>2008-29-09T10:24:37Z</time></trkpt>
<trkpt lat="45.377898" lon="4.452771"><ele>280.3</ele><time>2008-29-09T10:24:38Z</time></trkpt>
<trkpt lat="45.377898" lon="4.452771"><ele>280.7</ele><time>2008-29-09T10:24:39Z</time></trkpt>
<trkpt lat="45.377898" lon="4.452776"><ele>283.4</ele><time>2008-29-09T10:24:40Z</time></trkpt>
<trkpt lat="45.377895" lon="4.452788"><ele>286.1</ele><time>2008-29-09T10:24:41Z</time></trkpt>
<trkpt lat="45.3779" lon="4.452806"><ele>287.7</ele><time>2008-29-09T10:24:42Z</time></trkpt>
<trkpt lat="45.377905" lon="4.452833"><ele>292</ele><time>2008-29-09T10:24:43Z</time></trkpt>
<trkpt lat="45.377906" lon="4.452853"><ele>292.2</ele><time>2008-29-09T10:24:44Z</time></trkpt>
<trkpt lat="45.37791" lon="4.452883"><ele>292.1</ele><time>2008-29-09T10:24:45Z</time></trkpt>
<trkpt lat="45.377913" lon="4.452919"><ele>291.4</ele><time>2008-29-09T10:24:46Z</time></trkpt>
<trkpt lat="45.377916" lon="4.45296"><ele>289.8</ele><time>2008-29-09T10:24:47Z</time></trkpt>
<trkpt lat="45.377921" lon="4.453002"><ele>290.2</ele><time>2008-29-09T10:24:48Z</time></trkpt>
<trkpt lat="45.377927" lon="4.453042"><ele>289.5</ele><time>2008-29-09T10:24:49Z</time></trkpt>
<trkpt lat="45.377936" lon="4.453085"><ele>288.6</ele><time>2008-29-09T10:24:50Z</time></trkpt>
<trkpt lat="45.377943" lon="4.453128"><ele>287.9</ele><time>2008-29-09T10:24:51Z</time></trkpt>
<trkpt lat="45.377956" lon="4.453163"><ele>287.7</ele><time>2008-29-09T10:24:52Z</time></trkpt>
<trkpt lat="45.377969" lon="4.45319"><ele>287.4</ele><time>2008-29-09T10:24:53Z</time></trkpt>
<trkpt lat="45.377979" lon="4.453216"><ele>287.5</ele><time>2008-29-09T10:24:54Z</time></trkpt>
<trkpt lat="45.377981" lon="4.45324"><ele>287.5</ele><time>2008-29-09T10:24:55Z</time></trkpt>
<trkpt lat="45.377977" lon="4.453264"><ele>288</ele><time>2008-29-09T10:24:56Z</time></trkpt>
<trkpt lat="45.377973" lon="4.453287"><ele>288.6</ele><time>2008-29-09T10:24:57Z</time></trkpt>
<trkpt lat="45.377967" lon="4.45331"><ele>287.5</ele><time>2008-29-09T10:24:58Z</time></trkpt>
<trkpt lat="45.377959" lon="4.45333"><ele>286.9</ele><time>2008-29-09T10:24:59Z</time></trkpt>
<trkpt lat="45.377952" lon="4.453346"><ele>288.4</ele><time>2008-29-09T10:25:00Z</time></trkpt>
<trkpt lat="45.377946" lon="4.453359"><ele>287.5</ele><time>2008-29-09T10:25:01Z</time></trkpt>
<trkpt lat="45.377941" lon="4.453373"><ele>287.8</ele><time>2008-29-09T10:25:02Z</time></trkpt>
<trkpt lat="45.377935" lon="4.453384"><ele>277.9</ele><time>2008-29-09T10:25:03Z</time></trkpt>
<trkpt lat="45.377896" lon="4.453383"><ele>277.7</ele><time>2008-29-09T10:25:04Z</time></trkpt>
<trkpt lat="45.377885" lon="4.453403"><ele>276.2</ele><time>2008-29-09T10:25:05Z</time></trkpt>
<trkpt lat="45.377878" lon="4.453416"><ele>275.4</ele><time>2008-29-09T10:25:06Z</time></trkpt>
<trkpt lat="45.377872" lon="4.453421"><ele>275</ele><time>2008-29-09T10:25:07Z</time></trkpt>
<trkpt lat="45.377864" lon="4.453425"><ele>274.5</ele><time>2008-29-09T10:25:08Z</time></trkpt>
<trkpt lat="45.377854" lon="4.453428"><ele>273.9</ele><time>2008-29-09T10:25:09Z</time></trkpt>
<trkpt lat="45.377842" lon="4.453427"><ele>273.5</ele><time>2008-29-09T10:25:10Z</time></trkpt>
<trkpt lat="45.377834" lon="4.453425"><ele>273.5</ele><time>2008-29-09T10:25:11Z</time></trkpt>
<trkpt lat="45.377834" lon="4.453425"><ele>273.5</ele><time>2008-29-09T10:25:12Z</time></trkpt>
<trkpt lat="45.377834" lon="4.453425"><ele>274.1</ele><time>2008-29-09T10:25:13Z</time></trkpt>
<trkpt lat="45.37783" lon="4.453427"><ele>274.2</ele><time>2008-29-09T10:25:14Z</time></trkpt>
<trkpt lat="45.37782" lon="4.453429"><ele>274</ele><time>2008-29-09T10:25:15Z</time></trkpt>
<trkpt lat="45.377804" lon="4.453428"><ele>274</ele><time>2008-29-09T10:25:16Z</time></trkpt>
<trkpt lat="45.37779" lon="4.453423"><ele>273.9</ele><time>2008-29-09T10:25:17Z</time></trkpt>
<trkpt lat="45.37778" lon="4.453416"><ele>273.5</ele><time>2008-29-09T10:25:18Z</time></trkpt>
<trkpt lat="45.377774" lon="4.453411"><ele>273.3</ele><time>2008-29-09T10:25:19Z</time></trkpt>
<trkpt lat="45.377766" lon="4.453412"><ele>273</ele><time>2008-29-09T10:25:20Z</time></trkpt>
<trkpt lat="45.377759" lon="4.453413"><ele>272.3</ele><time>2008-29-09T10:25:21Z</time></trkpt>
<trkpt lat="45.377752" lon="4.453423"><ele>271.4</ele><time>2008-29-09T10:25:22Z</time></trkpt>
<trkpt lat="45.377746" lon="4.453437"><ele>270.2</ele><time>2008-29-09T10:25:23Z</time></trkpt>
<trkpt lat="45.377742" lon="4.453451"><ele>272.9</ele><time>2008-29-09T10:25:24Z</time></trkpt>
<trkpt lat="45.377736" lon="4.45346"><ele>273</ele><time>2008-29-09T10:25:25Z</time></trkpt>
<trkpt lat="45.377733" lon="4.453468"><ele>275.4</ele><time>2008-29-09T10:25:26Z</time></trkpt>
<trkpt lat="45.377734" lon="4.453472"><ele>276.5</ele><time>2008-29-09T10:25:27Z</time></trkpt>
<trkpt lat="45.377737" lon="4.453479"><ele>276.4</ele><time>2008-29-09T10:25:28Z</time></trkpt>
<trkpt lat="45.377741" lon="4.453489"><ele>275.5</ele><time>2008-29-09T10:25:29Z</time></trkpt>
<trkpt lat="45.377747" lon="4.4535"><ele>274.2</ele><time>2008-29-09T10:25:30Z</time></trkpt>
<trkpt lat="45.377756" lon="4.453513"><ele>274.2</ele><time>2008-29-09T10:25:31Z</time></trkpt>
<trkpt lat="45.377767" lon="4.453526"><ele>272.8</ele><time>2008-29-09T10:25:32Z</time></trkpt>
<trkpt lat="45.377775" lon="4.453543"><ele>268.5</ele><time>2008-29-09T10:25:33Z</time></trkpt>
<trkpt lat="45.377783" lon="4.453552"><ele>265.7</ele><time>2008-29-09T10:25:34Z</time></trkpt>
<trkpt lat="45.377791" lon="4.453564"><ele>264.2</ele><time>2008-29-09T10:25:35Z</time></trkpt>
<trkpt lat="45.377802" lon="4.45357"><ele>262.5</ele><time>2008-29-09T10:25:36Z</time></trkpt>
<trkpt lat="45.377812" lon="4.453582"><ele>261.2</ele><time>2008-29-09T10:25:37Z</time></trkpt>
<trkpt lat="45.377823" lon="4.4536"><ele>260</ele><time>2008-29-09T10:25:38Z</time></trkpt>
<trkpt lat="45.377835" lon="4.453618"><ele>258.9</ele><time>2008-29-09T10:25:39Z</time></trkpt>
<trkpt lat="45.377842" lon="4.453647"><ele>257.6</ele><time>2008-29-09T10:25:40Z</time></trkpt>
<trkpt lat="45.377846" lon="4.453676"><ele>256.1</ele><time>2008-29-09T10:25:41Z</time></trkpt>
<trkpt lat="45.377846" lon="4.453708"><ele>254.5</ele><time>2008-29-09T10:25:42Z</time></trkpt>
<trkpt lat="45.377845" lon="4.453743"><ele>253</ele><time>2008-29-09T10:25:43Z</time></trkpt>
<trkpt lat="45.377845" lon="4.453778"><ele>251.2</ele><time>2008-29-09T10:25:44Z</time></trkpt>
<trkpt lat="45.377844" lon="4.45381"><ele>249.5</ele><time>2008-29-09T10:25:45Z</time></trkpt>
<trkpt lat="45.377843" lon="4.45384"><ele>248</ele><time>2008-29-09T10:25:46Z</time></trkpt>
<trkpt lat="45.377843" lon="4.453867"><ele>246.6</ele><time>2008-29-09T10:25:47Z</time></trkpt>
<trkpt lat="45.37784" lon="4.453893"><ele>245.6</ele><time>2008-29-09T10:25:48Z</time></trkpt>
<trkpt lat="45.377835" lon="4.453922"><ele>244</ele><time>2008-29-09T10:25:49Z</time></trkpt>
<trkpt lat="45.377831" lon="4.453951"><ele>242.9</ele><time>2008-29-09T10:25:50Z</time></trkpt>
<trkpt lat="45.377827" lon="4.453983"><ele>241.4</ele><time>2008-29-09T10:25:51Z</time></trkpt>
<trkpt lat="45.377826" lon="4.454017"><ele>239.9</ele><time>2008-29-09T10:25:52Z</time></trkpt>
<trkpt lat="45.377827" lon="4.454057"><ele>238.6</ele><time>2008-29-09T10:25:53Z</time></trkpt>
<trkpt lat="45.37783" lon="4.454095"><ele>237.1</ele><time>2008-29-09T10:25:54Z</time></trkpt>
<trkpt lat="45.377834" lon="4.454131"><ele>235.5</ele><time>2008-29-09T10:25:55Z</time></trkpt>
<trkpt lat="45.377837" lon="4.454162"><ele>234.6</ele><time>2008-29-09T10:25:56Z</time></trkpt>
<trkpt lat="45.377841" lon="4.454191"><ele>233.4</ele><time>2008-29-09T10:25:57Z</time></trkpt>
<trkpt lat="45.377842" lon="4.454218"><ele>232.6</ele><time>2008-29-09T10:25:58Z</time></trkpt>
<trkpt lat="45.377846" lon="4.454248"><ele>231.6</ele><time>2008-29-09T10:25:59Z</time></trkpt>
<trkpt lat="45.377849" lon="4.454285"><ele>230.4</ele><time>2008-29-09T10:26:00Z</time></trkpt>
<trkpt lat="45.377853" lon="4.454323"><ele>229.2</ele><time>2008-29-09T10:26:01Z</time></trkpt>
<trkpt lat="45.377854" lon="4.454361"><ele>228.6</ele><time>2008-29-09T10:26:02Z</time></trkpt>
<trkpt lat="45.37786" lon="4.454393"><ele>227.9</ele><time>2008-29-09T10:26:03Z</time></trkpt>
<trkpt lat="45.377865" lon="4.454428"><ele>227.1</ele><time>2008-29-09T10:26:04Z</time></trkpt>
<trkpt lat="45.377868" lon="4.454467"><ele>226.6</ele><time>2008-29-09T10:26:05Z</time></trkpt>
<trkpt lat="45.377866" lon="4.45451"><ele>225.8</ele><time>2008-29-09T10:26:06Z</time></trkpt>
<trkpt lat="45.377863" lon="4.454556"><ele>224.7</ele><time>2008-29-09T10:26:07Z</time></trkpt>
<trkpt lat="45.377862" lon="4.4546"><ele>223.8</ele><time>2008-29-09T10:26:08Z</time></trkpt>
<trkpt lat="45.377862" lon="4.454637"><ele>222.7</ele><time>2008-29-09T10:26:09Z</time></trkpt>
<trkpt lat="45.377859" lon="4.454666"><ele>223.7</ele><time>2008-29-09T10:26:10Z</time></trkpt>
<trkpt lat="45.377852" lon="4.454689"><ele>223</ele><time>2008-29-09T10:26:11Z</time></trkpt>
<trkpt lat="45.377844" lon="4.454713"><ele>222.7</ele><time>2008-29-09T10:26:12Z</time></trkpt>
<trkpt lat="45.377839" lon="4.454732"><ele>222.6</ele><time>2008-29-09T10:26:13Z</time></trkpt>
<trkpt lat="45.377835" lon="4.45475"><ele>222.1</ele><time>2008-29-09T10:26:14Z</time></trkpt>
<trkpt lat="45.37783" lon="4.454769"><ele>233.5</ele><time>2008-29-09T10:26:15Z</time></trkpt>
<trkpt lat="45.37785" lon="4.454814"><ele>236.7</ele><time>2008-29-09T10:26:16Z</time></trkpt>
<trkpt lat="45.377844" lon="4.454839"><ele>235.9</ele><time>2008-29-09T10:26:17Z</time></trkpt>
<trkpt lat="45.37783" lon="4.454858"><ele>235.2</ele><time>2008-29-09T10:26:18Z</time></trkpt>
<trkpt lat="45.377819" lon="4.454882"><ele>237.4</ele><time>2008-29-09T10:26:19Z</time></trkpt>
<trkpt lat="45.377808" lon="4.454912"><ele>239</ele><time>2008-29-09T10:26:20Z</time></trkpt>
<trkpt lat="45.377804" lon="4.45495"><ele>240.5</ele><time>2008-29-09T10:26:21Z</time></trkpt>
<trkpt lat="45.377807" lon="4.454989"><ele>240.5</ele><time>2008-29-09T10:26:22Z</time></trkpt>
<trkpt lat="45.377811" lon="4.455029"><ele>240.1</ele><time>2008-29-09T10:26:23Z</time></trkpt>
<trkpt lat="45.377814" lon="4.45507"><ele>240.6</ele><time>2008-29-09T10:26:24Z</time></trkpt>
<trkpt lat="45.377813" lon="4.455115"><ele>241</ele><time>2008-29-09T10:26:25Z</time></trkpt>
<trkpt lat="45.377815" lon="4.455158"><ele>241.3</ele><time>2008-29-09T10:26:26Z</time></trkpt>
<trkpt lat="45.377816" lon="4.455201"><ele>240.3</ele><time>2008-29-09T10:26:27Z</time></trkpt>
<trkpt lat="45.377815" lon="4.455241"><ele>237.5</ele><time>2008-29-09T10:26:28Z</time></trkpt>
<trkpt lat="45.377814" lon="4.455281"><ele>237.4</ele><time>2008-29-09T10:26:29Z</time></trkpt>
<trkpt lat="45.377808" lon="4.455326"><ele>237.5</ele><time>2008-29-09T10:26:30Z</time></trkpt>
<trkpt lat="45.377802" lon="4.455372"><ele>237.7</ele><time>2008-29-09T10:26:31Z</time></trkpt>
<trkpt lat="45.377797" lon="4.455421"><ele>237.3</ele><time>2008-29-09T10:26:32Z</time></trkpt>
<trkpt lat="45.377792" lon="4.455465"><ele>234.3</ele><time>2008-29-09T10:26:33Z</time></trkpt>
<trkpt lat="45.377784" lon="4.455516"><ele>233.2</ele><time>2008-29-09T10:26:34Z</time></trkpt>
<trkpt lat="45.377777" lon="4.455567"><ele>233.8</ele><time>2008-29-09T10:26:35Z</time></trkpt>
<trkpt lat="45.377769" lon="4.455614"><ele>233.8</ele><time>2008-29-09T10:26:36Z</time></trkpt>
<trkpt lat="45.377762" lon="4.455661"><ele>233.4</ele><time>2008-29-09T10:26:37Z</time></trkpt>
<trkpt lat="45.377752" lon="4.455703"><ele>232.8</ele><time>2008-29-09T10:26:38Z</time></trkpt>
<trkpt lat="45.37774" lon="4.455747"><ele>232.2</ele><time>2008-29-09T10:26:39Z</time></trkpt>
<trkpt lat="45.37773" lon="4.455794"><ele>231.5</ele><time>2008-29-09T10:26:40Z</time></trkpt>
<trkpt lat="45.37772" lon="4.45584"><ele>231.3</ele><time>2008-29-09T10:26:41Z</time></trkpt>
<trkpt lat="45.377717" lon="4.455887"><ele>231</ele><time>2008-29-09T10:26:42Z</time></trkpt>
<trkpt lat="45.377716" lon="4.455934"><ele>239.9</ele><time>2008-29-09T10:26:43Z</time></trkpt>
<trkpt lat="45.37773" lon="4.456004"><ele>240.3</ele><time>2008-29-09T10:26:44Z</time></trkpt>
<trkpt lat="45.377728" lon="4.456049"><ele>240.6</ele><time>2008-29-09T10:26:45Z</time></trkpt>
<trkpt lat="45.377727" lon="4.456091"><ele>238.8</ele><time>2008-29-09T10:26:46Z</time></trkpt>
<trkpt lat="45.377727" lon="4.456134"><ele>242.7</ele><time>2008-29-09T10:26:47Z</time></trkpt>
<trkpt lat="45.377734" lon="4.456191"><ele>243.1</ele><time>2008-29-09T10:26:48Z</time></trkpt>
<trkpt lat="45.377733" lon="4.456239"><ele>241.9</ele><time>2008-29-09T10:26:49Z</time></trkpt>
<trkpt lat="45.377728" lon="4.456282"><ele>240</ele><time>2008-29-09T10:26:50Z</time></trkpt>
<trkpt lat="45.377723" lon="4.456323"><ele>239.1</ele><time>2008-29-09T10:26:51Z</time></trkpt>
<trkpt lat="45.377717" lon="4.456369"><ele>239.3</ele><time>2008-29-09T10:26:52Z</time></trkpt>
<trkpt lat="45.377712" lon="4.456418"><ele>242.4</ele><time>2008-29-09T10:26:53Z</time></trkpt>
<trkpt lat="45.377707" lon="4.456475"><ele>242.5</ele><time>2008-29-09T10:26:54Z</time></trkpt>
<trkpt lat="45.377707" lon="4.456526"><ele>243.6</ele><time>2008-29-09T10:26:55Z</time></trkpt>
<trkpt lat="45.377708" lon="4.456563"><ele>243.3</ele><time>2008-29-09T10:26:56Z</time></trkpt>
<trkpt lat="45.377711" lon="4.456605"><ele>243.9</ele><time>2008-29-09T10:26:57Z</time></trkpt>
<trkpt lat="45.377714" lon="4.456646"><ele>243.8</ele><time>2008-29-09T10:26:58Z</time></trkpt>
<trkpt lat="45.377719" lon="4.456689"><ele>243.6</ele><time>2008-29-09T10:26:59Z</time></trkpt>
<trkpt lat="45.377726" lon="4.456719"><ele>242.4</ele><time>2008-29-09T10:27:00Z</time></trkpt>
<trkpt lat="45.377737" lon="4.456754"><ele>241.1</ele><time>2008-29-09T10:27:01Z</time></trkpt>
<trkpt lat="45.377748" lon="4.456795"><ele>240.2</ele><time>2008-29-09T10:27:02Z</time></trkpt>
<trkpt lat="45.37776" lon="4.456833"><ele>239.6</ele><time>2008-29-09T10:27:03Z</time></trkpt>
<trkpt lat="45.37777" lon="4.456868"><ele>239.3</ele><time>2008-29-09T10:27:04Z</time></trkpt>
<trkpt lat="45.37778" lon="4.456904"><ele>239.5</ele><time>2008-29-09T10:27:05Z</time></trkpt>
<trkpt lat="45.377793" lon="4.456948"><ele>240.9</ele><time>2008-29-09T10:27:06Z</time></trkpt>
<trkpt lat="45.377813" lon="4.456993"><ele>242.9</ele><time>2008-29-09T10:27:07Z</time></trkpt>
<trkpt lat="45.377827" lon="4.457033"><ele>244</ele><time>2008-29-09T10:27:08Z</time></trkpt>
<trkpt lat="45.37784" lon="4.457071"><ele>243.6</ele><time>2008-29-09T10:27:09Z</time></trkpt>
<trkpt lat="45.377849" lon="4.457108"><ele>242.9</ele><time>2008-29-09T10:27:10Z</time></trkpt>
<trkpt lat="45.377858" lon="4.457147"><ele>242.8</ele><time>2008-29-09T10:27:11Z</time></trkpt>
<trkpt lat="45.37787" lon="4.457182"><ele>242.1</ele><time>2008-29-09T10:27:12Z</time></trkpt>
<trkpt lat="45.377882" lon="4.457222"><ele>242.2</ele><time>2008-29-09T10:27:13Z</time></trkpt>
<trkpt lat="45.377897" lon="4.457262"><ele>242.3</ele><time>2008-29-09T10:27:14Z</time></trkpt>
<trkpt lat="45.377909" lon="4.457301"><ele>242.3</ele><time>2008-29-09T10:27:15Z</time></trkpt>
<trkpt lat="45.377922" lon="4.45734"><ele>242.2</ele><time>2008-29-09T10:27:16Z</time></trkpt>
<trkpt lat="45.377937" lon="4.457377"><ele>241.7</ele><time>2008-29-09T10:27:17Z</time></trkpt>
<trkpt lat="45.377953" lon="4.457416"><ele>242.2</ele><time>2008-29-09T10:27:18Z</time></trkpt>
<trkpt lat="45.377966" lon="4.457451"><ele>242.6</ele><time>2008-29-09T10:27:19Z</time></trkpt>
<trkpt lat="45.377977" lon="4.457486"><ele>242.7</ele><time>2008-29-09T10:27:20Z</time></trkpt>
<trkpt lat="45.377986" lon="4.45752"><ele>243.1</ele><time>2008-29-09T10:27:21Z</time></trkpt>
<trkpt lat="45.377996" lon="4.457554"><ele>243.4</ele><time>2008-29-09T10:27:22Z</time></trkpt>
<trkpt lat="45.378005" lon="4.45759"><ele>243.6</ele><time>2008-29-09T10:27:23Z</time></trkpt>
<trkpt lat="45.378012" lon="4.457627"><ele>243.8</ele><time>2008-29-09T10:27:24Z</time></trkpt>
<trkpt lat="45.378019" lon="4.457664"><ele>244.3</ele><time>2008-29-09T10:27:25Z</time></trkpt>
<trkpt lat="45.37803" lon="4.457697"><ele>244.5</ele><time>2008-29-09T10:27:26Z</time></trkpt>
<trkpt lat="45.37804" lon="4.45773"><ele>245</ele><time>2008-29-09T10:27:27Z</time></trkpt>
<trkpt lat="45.378052" lon="4.457762"><ele>244.6</ele><time>2008-29-09T10:27:28Z</time></trkpt>
<trkpt lat="45.378062" lon="4.457795"><ele>244.6</ele><time>2008-29-09T10:27:29Z</time></trkpt>
<trkpt lat="45.378071" lon="4.457832"><ele>244.9</ele><time>2008-29-09T10:27:30Z</time></trkpt>
<trkpt lat="45.378079" lon="4.457868"><ele>247</ele><time>2008-29-09T10:27:31Z</time></trkpt>
<trkpt lat="45.378091" lon="4.457904"><ele>248.5</ele><time>2008-29-09T10:27:32Z</time></trkpt>
<trkpt lat="45.3781" lon="4.457937"><ele>249.6</ele><time>2008-29-09T10:27:33Z</time></trkpt>
<trkpt lat="45.378109" lon="4.457971"><ele>250</ele><time>2008-29-09T10:27:34Z</time></trkpt>
<trkpt lat="45.378117" lon="4.458005"><ele>250.5</ele><time>2008-29-09T10:27:35Z</time></trkpt>
<trkpt lat="45.378126" lon="4.458037"><ele>251.1</ele><time>2008-29-09T10:27:36Z</time></trkpt>
<trkpt lat="45.378135" lon="4.458067"><ele>251.4</ele><time>2008-29-09T10:27:37Z</time></trkpt>
<trkpt lat="45.378143" lon="4.458099"><ele>251</ele><time>2008-29-09T10:27:38Z</time></trkpt>
<trkpt lat="45.378151" lon="4.458132"><ele>251</ele><time>2008-29-09T10:27:39Z</time></trkpt>
<trkpt lat="45.378159" lon="4.458164"><ele>251.1</ele><time>2008-29-09T10:27:40Z</time></trkpt>
<trkpt lat="45.378164" lon="4.458197"><ele>251.5</ele><time>2008-29-09T10:27:41Z</time></trkpt>
<trkpt lat="45.378168" lon="4.458231"><ele>252</ele><time>2008-29-09T10:27:42Z</time></trkpt>
<trkpt lat="45.378171" lon="4.458264"><ele>255.1</ele><time>2008-29-09T10:27:43Z</time></trkpt>
<trkpt lat="45.378168" lon="4.458303"><ele>256.8</ele><time>2008-29-09T10:27:44Z</time></trkpt>
<trkpt lat="45.378171" lon="4.458341"><ele>256.9</ele><time>2008-29-09T10:27:45Z</time></trkpt>
<trkpt lat="45.378176" lon="4.458376"><ele>257.9</ele><time>2008-29-09T10:27:46Z</time></trkpt>
<trkpt lat="45.37818" lon="4.458412"><ele>258.8</ele><time>2008-29-09T10:27:47Z</time></trkpt>
<trkpt lat="45.378182" lon="4.458446"><ele>260.8</ele><time>2008-29-09T10:27:48Z</time></trkpt>
<trkpt lat="45.378182" lon="4.458479"><ele>260.1</ele><time>2008-29-09T10:27:49Z</time></trkpt>
<trkpt lat="45.378184" lon="4.458513"><ele>259.6</ele><time>2008-29-09T10:27:50Z</time></trkpt>
<trkpt lat="45.378185" lon="4.458549"><ele>259.1</ele><time>2008-29-09T10:27:51Z</time></trkpt>
<trkpt lat="45.378185" lon="4.458584"><ele>259.5</ele><time>2008-29-09T10:27:52Z</time></trkpt>
<trkpt lat="45.378187" lon="4.458616"><ele>259.7</ele><time>2008-29-09T10:27:53Z</time></trkpt>
<trkpt lat="45.378188" lon="4.458648"><ele>258.2</ele><time>2008-29-09T10:27:54Z</time></trkpt>
<trkpt lat="45.378182" lon="4.458674"><ele>257.6</ele><time>2008-29-09T10:27:55Z</time></trkpt>
<trkpt lat="45.378184" lon="4.458705"><ele>257.1</ele><time>2008-29-09T10:27:56Z</time></trkpt>
<trkpt lat="45.378185" lon="4.458737"><ele>258.3</ele><time>2008-29-09T10:27:57Z</time></trkpt>
<trkpt lat="45.378185" lon="4.45877"><ele>257.9</ele><time>2008-29-09T10:27:58Z</time></trkpt>
<trkpt lat="45.378182" lon="4.4588"><ele>256.9</ele><time>2008-29-09T10:27:59Z</time></trkpt>
<trkpt lat="45.378177" lon="4.458829"><ele>257</ele><time>2008-29-09T10:28:00Z</time></trkpt>
<trkpt lat="45.378176" lon="4.458857"><ele>258.1</ele><time>2008-29-09T10:28:01Z</time></trkpt>
<trkpt lat="45.378174" lon="4.45889"><ele>258.9</ele><time>2008-29-09T10:28:02Z</time></trkpt>
<trkpt lat="45.378169" lon="4.458919"><ele>259.2</ele><time>2008-29-09T10:28:03Z</time></trkpt>
<trkpt lat="45.378163" lon="4.458948"><ele>258.8</ele><time>2008-29-09T10:28:04Z</time></trkpt>
<trkpt lat="45.378157" lon="4.458974"><ele>255.1</ele><time>2008-29-09T10:28:05Z</time></trkpt>
<trkpt lat="45.378158" lon="4.459012"><ele>253.3</ele><time>2008-29-09T10:28:06Z</time></trkpt>
<trkpt lat="45.378159" lon="4.459049"><ele>252.8</ele><time>2008-29-09T10:28:07Z</time></trkpt>
<trkpt lat="45.37816" lon="4.459082"><ele>253</ele><time>2008-29-09T10:28:08Z</time></trkpt>
<trkpt lat="45.378159" lon="4.459112"><ele>253.3</ele><time>2008-29-09T10:28:09Z</time></trkpt>
<trkpt lat="45.378159" lon="4.459142"><ele>254.5</ele><time>2008-29-09T10:28:10Z</time></trkpt>
<trkpt lat="45.378156" lon="4.459168"><ele>255.7</ele><time>2008-29-09T10:28:11Z</time></trkpt>
<trkpt lat="45.378151" lon="4.459195"><ele>254.6</ele><time>2008-29-09T10:28:12Z</time></trkpt>
<trkpt lat="45.378145" lon="4.459219"><ele>253.9</ele><time>2008-29-09T10:28:13Z</time></trkpt>
<trkpt lat="45.378143" lon="4.459245"><ele>252.9</ele><time>2008-29-09T10:28:14Z</time></trkpt>
<trkpt lat="45.37814" lon="4.459273"><ele>252.3</ele><time>2008-29-09T10:28:15Z</time></trkpt>
<trkpt lat="45.378133" lon="4.459302"><ele>252.9</ele><time>2008-29-09T10:28:16Z</time></trkpt>
<trkpt lat="45.378127" lon="4.459326"><ele>253.4</ele><time>2008-29-09T10:28:17Z</time></trkpt>
<trkpt lat="45.378122" lon="4.45935"><ele>254.9</ele><time>2008-29-09T10:28:18Z</time></trkpt>
<trkpt lat="45.378117" lon="4.45938"><ele>252.9</ele><time>2008-29-09T10:28:19Z</time></trkpt>
<trkpt lat="45.378109" lon="4.459409"><ele>252.3</ele><time>2008-29-09T10:28:20Z</time></trkpt>
<trkpt lat="45.378101" lon="4.459438"><ele>252.9</ele><time>2008-29-09T10:28:21Z</time></trkpt>
<trkpt lat="45.378093" lon="4.459465"><ele>254</ele><time>2008-29-09T10:28:22Z</time></trkpt>
<trkpt lat="45.378082" lon="4.459499"><ele>253.1</ele><time>2008-29-09T10:28:23Z</time></trkpt>
<trkpt lat="45.378073" lon="4.459527"><ele>254.3</ele><time>2008-29-09T10:28:24Z</time></trkpt>
<trkpt lat="45.378066" lon="4.459552"><ele>255</ele><time>2008-29-09T10:28:25Z</time></trkpt>
<trkpt lat="45.378059" lon="4.459573"><ele>255.1</ele><time>2008-29-09T10:28:26Z</time></trkpt>
<trkpt lat="45.378052" lon="4.459598"><ele>255</ele><time>2008-29-09T10:28:27Z</time></trkpt>
<trkpt lat="45.378044" lon="4.459622"><ele>254.9</ele><time>2008-29-09T10:28:28Z</time></trkpt>
<trkpt lat="45.378037" lon="4.459643"><ele>253.9</ele><time>2008-29-09T10:28:29Z</time></trkpt>
<trkpt lat="45.378028" lon="4.459662"><ele>253.6</ele><time>2008-29-09T10:28:30Z</time></trkpt>
<trkpt lat="45.378016" lon="4.459683"><ele>253.7</ele><time>2008-29-09T10:28:31Z</time></trkpt>
<trkpt lat="45.378005" lon="4.459705"><ele>254.3</ele><time>2008-29-09T10:28:32Z</time></trkpt>
<trkpt lat="45.377993" lon="4.459729"><ele>254.8</ele><time>2008-29-09T10:28:33Z</time></trkpt>
<trkpt lat="45.377982" lon="4.459754"><ele>255.1</ele><time>2008-29-09T10:28:34Z</time></trkpt>
<trkpt lat="45.37797" lon="4.459777"><ele>255.5</ele><time>2008-29-09T10:28:35Z</time></trkpt>
<trkpt lat="45.377961" lon="4.459801"><ele>255.8</ele><time>2008-29-09T10:28:36Z</time></trkpt>
<trkpt lat="45.377953" lon="4.459824"><ele>256.3</ele><time>2008-29-09T10:28:37Z</time></trkpt>
<trkpt lat="45.377944" lon="4.459845"><ele>254.9</ele><time>2008-29-09T10:28:38Z</time></trkpt>
<trkpt lat="45.377934" lon="4.459869"><ele>256.1</ele><time>2008-29-09T10:28:39Z</time></trkpt>
<trkpt lat="45.377923" lon="4.459893"><ele>256.3</ele><time>2008-29-09T10:28:40Z</time></trkpt>
<trkpt lat="45.377914" lon="4.459915"><ele>256.4</ele><time>2008-29-09T10:28:41Z</time></trkpt>
<trkpt lat="45.377907" lon="4.459938"><ele>256.3</ele><time>2008-29-09T10:28:42Z</time></trkpt>
<trkpt lat="45.377902" lon="4.459965"><ele>253.6</ele><time>2008-29-09T10:28:43Z</time></trkpt>
<trkpt lat="45.377898" lon="4.459997"><ele>260</ele><time>2008-29-09T10:28:44Z</time></trkpt>
<trkpt lat="45.377897" lon="4.460043"><ele>262.2</ele><time>2008-29-09T10:28:45Z</time></trkpt>
<trkpt lat="45.377895" lon="4.460081"><ele>260.4</ele><time>2008-29-09T10:28:46Z</time></trkpt>
<trkpt lat="45.377892" lon="4.460114"><ele>258.5</ele><time>2008-29-09T10:28:47Z</time></trkpt>
<trkpt lat="45.377888" lon="4.460141"><ele>257.3</ele><time>2008-29-09T10:28:48Z</time></trkpt>
<trkpt lat="45.377885" lon="4.460163"><ele>258.6</ele><time>2008-29-09T10:28:49Z</time></trkpt>
<trkpt lat="45.377882" lon="4.460191"><ele>258.6</ele><time>2008-29-09T10:28:50Z</time></trkpt>
<trkpt lat="45.377875" lon="4.460222"><ele>258.1</ele><time>2008-29-09T10:28:51Z</time></trkpt>
<trkpt lat="45.377868" lon="4.460249"><ele>257</ele><time>2008-29-09T10:28:52Z</time></trkpt>
<trkpt lat="45.37786" lon="4.460275"><ele>257.3</ele><time>2008-29-09T10:28:53Z</time></trkpt>
<trkpt lat="45.377853" lon="4.460301"><ele>256.6</ele><time>2008-29-09T10:28:54Z</time></trkpt>
<trkpt lat="45.377845" lon="4.460327"><ele>256.3</ele><time>2008-29-09T10:28:55Z</time></trkpt>
<trkpt lat="45.377837" lon="4.460351"><ele>257</ele><time>2008-29-09T10:28:56Z</time></trkpt>
<trkpt lat="45.377829" lon="4.460377"><ele>256.3</ele><time>2008-29-09T10:28:57Z</time></trkpt>
<trkpt lat="45.377821" lon="4.460405"><ele>256.7</ele><time>2008-29-09T10:28:58Z</time></trkpt>
<trkpt lat="45.377813" lon="4.460436"><ele>257.6</ele><time>2008-29-09T10:28:59Z</time></trkpt>
<trkpt lat="45.377805" lon="4.460465"><ele>257.5</ele><time>2008-29-09T10:29:00Z</time></trkpt>
<trkpt lat="45.377798" lon="4.460492"><ele>256.9</ele><time>2008-29-09T10:29:01Z</time></trkpt>
<trkpt lat="45.377792" lon="4.460518"><ele>257.4</ele><time>2008-29-09T10:29:02Z</time></trkpt>
<trkpt lat="45.377785" lon="4.460546"><ele>258.1</ele><time>2008-29-09T10:29:03Z</time></trkpt>
<trkpt lat="45.377779" lon="4.460574"><ele>258</ele><time>2008-29-09T10:29:04Z</time></trkpt>
<trkpt lat="45.377772" lon="4.460603"><ele>258.2</ele><time>2008-29-09T10:29:05Z</time></trkpt>
<trkpt lat="45.377766" lon="4.460636"><ele>257.8</ele><time>2008-29-09T10:29:06Z</time></trkpt>
<trkpt lat="45.377757" lon="4.460661"><ele>258.3</ele><time>2008-29-09T10:29:07Z</time></trkpt>
<trkpt lat="45.377748" lon="4.460687"><ele>258.9</ele><time>2008-29-09T10:29:08Z</time></trkpt>
<trkpt lat="45.377741" lon="4.460714"><ele>259.7</ele><time>2008-29-09T10:29:09Z</time></trkpt>
<trkpt lat="45.377735" lon="4.46074"><ele>261.3</ele><time>2008-29-09T10:29:10Z</time></trkpt>
<trkpt lat="45.377733" lon="4.460773"><ele>261.5</ele><time>2008-29-09T10:29:11Z</time></trkpt>
<trkpt lat="45.377726" lon="4.460802"><ele>261.9</ele><time>2008-29-09T10:29:12Z</time></trkpt>
<trkpt lat="45.377719" lon="4.460825"><ele>261.7</ele><time>2008-29-09T10:29:13Z</time></trkpt>
<trkpt lat="45.377711" lon="4.46085"><ele>260.3</ele><time>2008-29-09T10:29:14Z</time></trkpt>
<trkpt lat="45.377702" lon="4.460878"><ele>258.1</ele><time>2008-29-09T10:29:15Z</time></trkpt>
<trkpt lat="45.377692" lon="4.460908"><ele>259.2</ele><time>2008-29-09T10:29:16Z</time></trkpt>
<trkpt lat="45.377682" lon="4.460935"><ele>260.1</ele><time>2008-29-09T10:29:17Z</time></trkpt>
<trkpt lat="45.377673" lon="4.460959"><ele>260.3</ele><time>2008-29-09T10:29:18Z</time></trkpt>
<trkpt lat="45.377664" lon="4.460987"><ele>260</ele><time>2008-29-09T10:29:19Z</time></trkpt>
<trkpt lat="45.377656" lon="4.461005"><ele>260</ele><time>2008-29-09T10:29:20Z</time></trkpt>
<trkpt lat="45.377646" lon="4.461024"><ele>260.4</ele><time>2008-29-09T10:29:21Z</time></trkpt>
<trkpt lat="45.377638" lon="4.461043"><ele>260.4</ele><time>2008-29-09T10:29:22Z</time></trkpt>
<trkpt lat="45.377629" lon="4.461066"><ele>260.5</ele><time>2008-29-09T10:29:23Z</time></trkpt>
<trkpt lat="45.377621" lon="4.461091"><ele>262.5</ele><time>2008-29-09T10:29:24Z</time></trkpt>
<trkpt lat="45.377608" lon="4.461115"><ele>263.7</ele><time>2008-29-09T10:29:25Z</time></trkpt>
<trkpt lat="45.377594" lon="4.461143"><ele>263.8</ele><time>2008-29-09T10:29:26Z</time></trkpt>
<trkpt lat="45.377583" lon="4.46117"><ele>265</ele><time>2008-29-09T10:29:27Z</time></trkpt>
<trkpt lat="45.377576" lon="4.461203"><ele>263.5</ele><time>2008-29-09T10:29:28Z</time></trkpt>
<trkpt lat="45.377567" lon="4.461225"><ele>263.1</ele><time>2008-29-09T10:29:29Z</time></trkpt>
<trkpt lat="45.377556" lon="4.46125"><ele>262.9</ele><time>2008-29-09T10:29:30Z</time></trkpt>
<trkpt lat="45.377547" lon="4.461276"><ele>262.3</ele><time>2008-29-09T10:29:31Z</time></trkpt>
<trkpt lat="45.37754" lon="4.461298"><ele>262.1</ele><time>2008-29-09T10:29:32Z</time></trkpt>
<trkpt lat="45.377531" lon="4.461322"><ele>263.2</ele><time>2008-29-09T10:29:33Z</time></trkpt>
<trkpt lat="45.377523" lon="4.461347"><ele>263.7</ele><time>2008-29-09T10:29:34Z</time></trkpt>
<trkpt lat="45.377518" lon="4.461375"><ele>264.1</ele><time>2008-29-09T10:29:35Z</time></trkpt>
<trkpt lat="45.377518" lon="4.461404"><ele>264.1</ele><time>2008-29-09T10:29:36Z</time></trkpt>
<trkpt lat="45.377517" lon="4.461434"><ele>261.9</ele><time>2008-29-09T10:29:37Z</time></trkpt>
<trkpt lat="45.377511" lon="4.461454"><ele>262.1</ele><time>2008-29-09T10:29:38Z</time></trkpt>
<trkpt lat="45.377507" lon="4.461486"><ele>267</ele><time>2008-29-09T10:29:39Z</time></trkpt>
<trkpt lat="45.377499" lon="4.46151"><ele>267.3</ele><time>2008-29-09T10:29:40Z</time></trkpt>
<trkpt lat="45.377502" lon="4.461533"><ele>263.9</ele><time>2008-29-09T10:29:41Z</time></trkpt>
<trkpt lat="45.377505" lon="4.461545"><ele>264.5</ele><time>2008-29-09T10:29:42Z</time></trkpt>
<trkpt lat="45.377506" lon="4.461557"><ele>263.9</ele><time>2008-29-09T10:29:43Z</time></trkpt>
<trkpt lat="45.377513" lon="4.461571"><ele>263.7</ele><time>2008-29-09T10:29:44Z</time></trkpt>
<trkpt lat="45.377527" lon="4.461593"><ele>260.7</ele><time>2008-29-09T10:29:45Z</time></trkpt>
<trkpt lat="45.377552" lon="4.461591"><ele>257.8</ele><time>2008-29-09T10:29:46Z</time></trkpt>
<trkpt lat="45.377578" lon="4.461585"><ele>259.3</ele><time>2008-29-09T10:29:47Z</time></trkpt>
<trkpt lat="45.377602" lon="4.461598"><ele>258.6</ele><time>2008-29-09T10:29:48Z</time></trkpt>
<trkpt lat="45.377628" lon="4.461602"><ele>257.5</ele><time>2008-29-09T10:29:49Z</time></trkpt>
<trkpt lat="45.377645" lon="4.461598"><ele>258.1</ele><time>2008-29-09T10:29:50Z</time></trkpt>
<trkpt lat="45.377665" lon="4.4616"><ele>261.6</ele><time>2008-29-09T10:29:51Z</time></trkpt>
<trkpt lat="45.377681" lon="4.461613"><ele>260.1</ele><time>2008-29-09T10:29:52Z</time></trkpt>
<trkpt lat="45.377703" lon="4.461618"><ele>254.4</ele><time>2008-29-09T10:29:53Z</time></trkpt>
<trkpt lat="45.377715" lon="4.461602"><ele>253.2</ele><time>2008-29-09T10:29:54Z</time></trkpt>
<trkpt lat="45.377739" lon="4.461599"><ele>252.5</ele><time>2008-29-09T10:29:55Z</time></trkpt>
<trkpt lat="45.377766" lon="4.461594"><ele>252</ele><time>2008-29-09T10:29:56Z</time></trkpt>
<trkpt lat="45.377792" lon="4.46159"><ele>253.3</ele><time>2008-29-09T10:29:57Z</time></trkpt>
<trkpt lat="45.377816" lon="4.461589"><ele>254.7</ele><time>2008-29-09T10:29:58Z</time></trkpt>
<trkpt lat="45.377836" lon="4.461591"><ele>253.6</ele><time>2008-29-09T10:29:59Z</time></trkpt>
<trkpt lat="45.37786" lon="4.461584"><ele>257</ele><time>2008-29-09T10:30:00Z</time></trkpt>
<trkpt lat="45.377875" lon="4.461614"><ele>260.8</ele><time>2008-29-09T10:30:01Z</time></trkpt>
<trkpt lat="45.377891" lon="4.461637"><ele>262.3</ele><time>2008-29-09T10:30:02Z</time></trkpt>
<trkpt lat="45.377909" lon="4.461643"><ele>259.8</ele><time>2008-29-09T10:30:03Z</time></trkpt>
<trkpt lat="45.377934" lon="4.461626"><ele>257.8</ele><time>2008-29-09T10:30:04Z</time></trkpt>
<trkpt lat="45.377959" lon="4.461621"><ele>255.6</ele><time>2008-29-09T10:30:05Z</time></trkpt>
<trkpt lat="45.377984" lon="4.46161"><ele>256.1</ele><time>2008-29-09T10:30:06Z</time></trkpt>
<trkpt lat="45.377998" lon="4.461609"><ele>256.5</ele><time>2008-29-09T10:30:07Z</time></trkpt>
<trkpt lat="45.378021" lon="4.461602"><ele>256.4</ele><time>2008-29-09T10:30:08Z</time></trkpt>
<trkpt lat="45.378042" lon="4.461606"><ele>257.9</ele><time>2008-29-09T10:30:09Z</time></trkpt>
<trkpt lat="45.378063" lon="4.46161"><ele>258.1</ele><time>2008-29-09T10:30:10Z</time></trkpt>
<trkpt lat="45.378084" lon="4.461612"><ele>264.2</ele><time>2008-29-09T10:30:11Z</time></trkpt>
<trkpt lat="45.378103" lon="4.461645"><ele>266.6</ele><time>2008-29-09T10:30:12Z</time></trkpt>
<trkpt lat="45.378126" lon="4.461665"><ele>268</ele><time>2008-29-09T10:30:13Z</time></trkpt>
<trkpt lat="45.37815" lon="4.461685"><ele>264.7</ele><time>2008-29-09T10:30:14Z</time></trkpt>
<trkpt lat="45.378173" lon="4.461689"><ele>263.4</ele><time>2008-29-09T10:30:15Z</time></trkpt>
<trkpt lat="45.378195" lon="4.46169"><ele>263.1</ele><time>2008-29-09T10:30:16Z</time></trkpt>
<trkpt lat="45.378218" lon="4.461693"><ele>261.8</ele><time>2008-29-09T10:30:17Z</time></trkpt>
<trkpt lat="45.378244" lon="4.461693"><ele>261.6</ele><time>2008-29-09T10:30:18Z</time></trkpt>
<trkpt lat="45.378269" lon="4.461693"><ele>260.7</ele><time>2008-29-09T10:30:19Z</time></trkpt>
<trkpt lat="45.378294" lon="4.46169"><ele>260.3</ele><time>2008-29-09T10:30:20Z</time></trkpt>
<trkpt lat="45.378318" lon="4.461686"><ele>258.8</ele><time>2008-29-09T10:30:21Z</time></trkpt>
<trkpt lat="45.378343" lon="4.46168"><ele>258.2</ele><time>2008-29-09T10:30:22Z</time></trkpt>
<trkpt lat="45.378368" lon="4.461676"><ele>268.1</ele><time>2008-29-09T10:30:23Z</time></trkpt>
<trkpt lat="45.378395" lon="4.461711"><ele>270.2</ele><time>2008-29-09T10:30:24Z</time></trkpt>
<trkpt lat="45.37842" lon="4.461715"><ele>270.3</ele><time>2008-29-09T10:30:25Z</time></trkpt>
<trkpt lat="45.378444" lon="4.461713"><ele>270.5</ele><time>2008-29-09T10:30:26Z</time></trkpt>
<trkpt lat="45.378467" lon="4.461712"><ele>268.7</ele><time>2008-29-09T10:30:27Z</time></trkpt>
<trkpt lat="45.37849" lon="4.461712"><ele>261.5</ele><time>2008-29-09T10:30:28Z</time></trkpt>
<trkpt lat="45.378501" lon="4.461694"><ele>259.5</ele><time>2008-29-09T10:30:29Z</time></trkpt>
<trkpt lat="45.378522" lon="4.461686"><ele>260</ele><time>2008-29-09T10:30:30Z</time></trkpt>
<trkpt lat="45.378546" lon="4.461682"><ele>259.6</ele><time>2008-29-09T10:30:31Z</time></trkpt>
<trkpt lat="45.378569" lon="4.461681"><ele>259</ele><time>2008-29-09T10:30:32Z</time></trkpt>
<trkpt lat="45.378592" lon="4.461681"><ele>259.1</ele><time>2008-29-09T10:30:33Z</time></trkpt>
<trkpt lat="45.378616" lon="4.461678"><ele>258</ele><time>2008-29-09T10:30:34Z</time></trkpt>
<trkpt lat="45.378639" lon="4.461672"><ele>259.1</ele><time>2008-29-09T10:30:35Z</time></trkpt>
<trkpt lat="45.378641" lon="4.461686"><ele>259.6</ele><time>2008-29-09T10:30:36Z</time></trkpt>
<trkpt lat="45.378661" lon="4.461688"><ele>259.6</ele><time>2008-29-09T10:30:37Z</time></trkpt>
<trkpt lat="45.378686" lon="4.461686"><ele>259.3</ele><time>2008-29-09T10:30:38Z</time></trkpt>
<trkpt lat="45.37871" lon="4.461683"><ele>262.1</ele><time>2008-29-09T10:30:39Z</time></trkpt>
<trkpt lat="45.37873" lon="4.461691"><ele>265.8</ele><time>2008-29-09T10:30:40Z</time></trkpt>
<trkpt lat="45.378751" lon="4.461699"><ele>269.5</ele><time>2008-29-09T10:30:41Z</time></trkpt>
<trkpt lat="45.378774" lon="4.461696"><ele>269.7</ele><time>2008-29-09T10:30:42Z</time></trkpt>
<trkpt lat="45.378797" lon="4.461687"><ele>269.5</ele><time>2008-29-09T10:30:43Z</time></trkpt>
<trkpt lat="45.378817" lon="4.461688"><ele>269.5</ele><time>2008-29-09T10:30:44Z</time></trkpt>
<trkpt lat="45.378837" lon="4.461689"><ele>270.8</ele><time>2008-29-09T10:30:45Z</time></trkpt>
<trkpt lat="45.37886" lon="4.461676"><ele>272.6</ele><time>2008-29-09T10:30:46Z</time></trkpt>
<trkpt lat="45.378885" lon="4.461661"><ele>275.3</ele><time>2008-29-09T10:30:47Z</time></trkpt>
<trkpt lat="45.378909" lon="4.461649"><ele>278.5</ele><time>2008-29-09T10:30:48Z</time></trkpt>
<trkpt lat="45.378933" lon="4.461646"><ele>277.8</ele><time>2008-29-09T10:30:49Z</time></trkpt>
<trkpt lat="45.378957" lon="4.461642"><ele>278.5</ele><time>2008-29-09T10:30:50Z</time></trkpt>
<trkpt lat="45.378981" lon="4.461635"><ele>280.7</ele><time>2008-29-09T10:30:51Z</time></trkpt>
<trkpt lat="45.379009" lon="4.461623"><ele>282.8</ele><time>2008-29-09T10:30:52Z</time></trkpt>
<trkpt lat="45.379036" lon="4.461612"><ele>283.9</ele><time>2008-29-09T10:30:53Z</time></trkpt>
<trkpt lat="45.379063" lon="4.461599"><ele>284.6</ele><time>2008-29-09T10:30:54Z</time></trkpt>
<trkpt lat="45.379087" lon="4.461589"><ele>281.1</ele><time>2008-29-09T10:30:55Z</time></trkpt>
<trkpt lat="45.379115" lon="4.461588"><ele>280.6</ele><time>2008-29-09T10:30:56Z</time></trkpt>
<trkpt lat="45.379144" lon="4.461599"><ele>280.8</ele><time>2008-29-09T10:30:57Z</time></trkpt>
<trkpt lat="45.379172" lon="4.461607"><ele>279.9</ele><time>2008-29-09T10:30:58Z</time></trkpt>
<trkpt lat="45.379201" lon="4.461609"><ele>283</ele><time>2008-29-09T10:30:59Z</time></trkpt>
<trkpt lat="45.379227" lon="4.461603"><ele>269.1</ele><time>2008-29-09T10:31:00Z</time></trkpt>
<trkpt lat="45.379242" lon="4.461608"><ele>269.4</ele><time>2008-29-09T10:31:01Z</time></trkpt>
<trkpt lat="45.379267" lon="4.461612"><ele>267.8</ele><time>2008-29-09T10:31:02Z</time></trkpt>
<trkpt lat="45.37929" lon="4.461602"><ele>264.5</ele><time>2008-29-09T10:31:03Z</time></trkpt>
<trkpt lat="45.379322" lon="4.461602"><ele>264.6</ele><time>2008-29-09T10:31:04Z</time></trkpt>
<trkpt lat="45.37935" lon="4.461605"><ele>268</ele><time>2008-29-09T10:31:05Z</time></trkpt>
<trkpt lat="45.37938" lon="4.461602"><ele>268.7</ele><time>2008-29-09T10:31:06Z</time></trkpt>
<trkpt lat="45.37941" lon="4.461586"><ele>269.2</ele><time>2008-29-09T10:31:07Z</time></trkpt>
<trkpt lat="45.37944" lon="4.461575"><ele>269.8</ele><time>2008-29-09T10:31:08Z</time></trkpt>
<trkpt lat="45.379471" lon="4.461567"><ele>273.2</ele><time>2008-29-09T10:31:09Z</time></trkpt>
<trkpt lat="45.379502" lon="4.461562"><ele>272.8</ele><time>2008-29-09T10:31:10Z</time></trkpt>
<trkpt lat="45.379534" lon="4.461557"><ele>273.7</ele><time>2008-29-09T10:31:11Z</time></trkpt>
<trkpt lat="45.379565" lon="4.461547"><ele>272.7</ele><time>2008-29-09T10:31:12Z</time></trkpt>
<trkpt lat="45.379595" lon="4.461541"><ele>272.3</ele><time>2008-29-09T10:31:13Z</time></trkpt>
<trkpt lat="45.379623" lon="4.461534"><ele>274.1</ele><time>2008-29-09T10:31:14Z</time></trkpt>
<trkpt lat="45.379654" lon="4.46153"><ele>273.6</ele><time>2008-29-09T10:31:15Z</time></trkpt>
<trkpt lat="45.379686" lon="4.461518"><ele>275.9</ele><time>2008-29-09T10:31:16Z</time></trkpt>
<trkpt lat="45.379718" lon="4.461509"><ele>271.6</ele><time>2008-29-09T10:31:17Z</time></trkpt>
<trkpt lat="45.379753" lon="4.46151"><ele>265.7</ele><time>2008-29-09T10:31:18Z</time></trkpt>
<trkpt lat="45.379778" lon="4.461491"><ele>263</ele><time>2008-29-09T10:31:19Z</time></trkpt>
<trkpt lat="45.379809" lon="4.461479"><ele>264.4</ele><time>2008-29-09T10:31:20Z</time></trkpt>
<trkpt lat="45.379839" lon="4.461487"><ele>264.1</ele><time>2008-29-09T10:31:21Z</time></trkpt>
<trkpt lat="45.379868" lon="4.461487"><ele>262.5</ele><time>2008-29-09T10:31:22Z</time></trkpt>
<trkpt lat="45.379898" lon="4.461485"><ele>255.6</ele><time>2008-29-09T10:31:23Z</time></trkpt>
<trkpt lat="45.379922" lon="4.461453"><ele>253</ele><time>2008-29-09T10:31:24Z</time></trkpt>
<trkpt lat="45.379955" lon="4.461441"><ele>251.7</ele><time>2008-29-09T10:31:25Z</time></trkpt>
<trkpt lat="45.379989" lon="4.461425"><ele>251</ele><time>2008-29-09T10:31:26Z</time></trkpt>
<trkpt lat="45.380023" lon="4.461408"><ele>251.1</ele><time>2008-29-09T10:31:27Z</time></trkpt>
<trkpt lat="45.380055" lon="4.461393"><ele>251.8</ele><time>2008-29-09T10:31:28Z</time></trkpt>
<trkpt lat="45.380085" lon="4.461384"><ele>250.6</ele><time>2008-29-09T10:31:29Z</time></trkpt>
<trkpt lat="45.380117" lon="4.461368"><ele>250.4</ele><time>2008-29-09T10:31:30Z</time></trkpt>
<trkpt lat="45.380147" lon="4.461363"><ele>250.3</ele><time>2008-29-09T10:31:31Z</time></trkpt>
<trkpt lat="45.380177" lon="4.461356"><ele>250.6</ele><time>2008-29-09T10:31:32Z</time></trkpt>
<trkpt lat="45.380207" lon="4.461351"><ele>253.3</ele><time>2008-29-09T10:31:33Z</time></trkpt>
<trkpt lat="45.380238" lon="4.461358"><ele>251.6</ele><time>2008-29-09T10:31:34Z</time></trkpt>
<trkpt lat="45.380271" lon="4.461341"><ele>256.8</ele><time>2008-29-09T10:31:35Z</time></trkpt>
<trkpt lat="45.380302" lon="4.461346"><ele>267.4</ele><time>2008-29-09T10:31:36Z</time></trkpt>
<trkpt lat="45.380333" lon="4.461365"><ele>271.2</ele><time>2008-29-09T10:31:37Z</time></trkpt>
<trkpt lat="45.380366" lon="4.461386"><ele>271</ele><time>2008-29-09T10:31:38Z</time></trkpt>
<trkpt lat="45.380383" lon="4.461378"><ele>272.3</ele><time>2008-29-09T10:31:39Z</time></trkpt>
<trkpt lat="45.380413" lon="4.461374"><ele>277.3</ele><time>2008-29-09T10:31:40Z</time></trkpt>
<trkpt lat="45.380443" lon="4.461365"><ele>280.1</ele><time>2008-29-09T10:31:41Z</time></trkpt>
<trkpt lat="45.380473" lon="4.461355"><ele>281.4</ele><time>2008-29-09T10:31:42Z</time></trkpt>
<trkpt lat="45.380504" lon="4.461347"><ele>281.6</ele><time>2008-29-09T10:31:43Z</time></trkpt>
<trkpt lat="45.380534" lon="4.46134"><ele>282.3</ele><time>2008-29-09T10:31:44Z</time></trkpt>
<trkpt lat="45.380563" lon="4.46133"><ele>285.5</ele><time>2008-29-09T10:31:45Z</time></trkpt>
<trkpt lat="45.380593" lon="4.461322"><ele>286.8</ele><time>2008-29-09T10:31:46Z</time></trkpt>
<trkpt lat="45.380624" lon="4.461315"><ele>271.1</ele><time>2008-29-09T10:31:47Z</time></trkpt>
<trkpt lat="45.380647" lon="4.461313"><ele>268.4</ele><time>2008-29-09T10:31:48Z</time></trkpt>
<trkpt lat="45.380677" lon="4.461337"><ele>265.3</ele><time>2008-29-09T10:31:49Z</time></trkpt>
<trkpt lat="45.380704" lon="4.461353"><ele>257.7</ele><time>2008-29-09T10:31:50Z</time></trkpt>
<trkpt lat="45.380724" lon="4.46135"><ele>256</ele><time>2008-29-09T10:31:51Z</time></trkpt>
<trkpt lat="45.380736" lon="4.461365"><ele>256.4</ele><time>2008-29-09T10:31:52Z</time></trkpt>
<trkpt lat="45.380748" lon="4.461386"><ele>254.5</ele><time>2008-29-09T10:31:53Z</time></trkpt>
<trkpt lat="45.380762" lon="4.461409"><ele>252.2</ele><time>2008-29-09T10:31:54Z</time></trkpt>
<trkpt lat="45.38079" lon="4.46143"><ele>252.7</ele><time>2008-29-09T10:31:55Z</time></trkpt>
<trkpt lat="45.380821" lon="4.461442"><ele>254.2</ele><time>2008-29-09T10:31:56Z</time></trkpt>
<trkpt lat="45.380841" lon="4.46145"><ele>252.6</ele><time>2008-29-09T10:31:57Z</time></trkpt>
<trkpt lat="45.380858" lon="4.461435"><ele>250</ele><time>2008-29-09T10:31:58Z</time></trkpt>
<trkpt lat="45.38088" lon="4.46144"><ele>249.3</ele><time>2008-29-09T10:31:59Z</time></trkpt>
<trkpt lat="45.380901" lon="4.461452"><ele>247.8</ele><time>2008-29-09T10:32:00Z</time></trkpt>
<trkpt lat="45.380926" lon="4.461457"><ele>249.1</ele><time>2008-29-09T10:32:01Z</time></trkpt>
<trkpt lat="45.380952" lon="4.461452"><ele>250.3</ele><time>2008-29-09T10:32:02Z</time></trkpt>
<trkpt lat="45.380971" lon="4.461448"><ele>251.8</ele><time>2008-29-09T10:32:03Z</time></trkpt>
<trkpt lat="45.380992" lon="4.461449"><ele>252.9</ele><time>2008-29-09T10:32:04Z</time></trkpt>
<trkpt lat="45.381012" lon="4.461439"><ele>254.1</ele><time>2008-29-09T10:32:05Z</time></trkpt>
<trkpt lat="45.381038" lon="4.461431"><ele>254.5</ele><time>2008-29-09T10:32:06Z</time></trkpt>
<trkpt lat="45.381064" lon="4.461426"><ele>256.7</ele><time>2008-29-09T10:32:07Z</time></trkpt>
<trkpt lat="45.38109" lon="4.461423"><ele>259.7</ele><time>2008-29-09T10:32:08Z</time></trkpt>
<trkpt lat="45.381116" lon="4.461421"><ele>258.3</ele><time>2008-29-09T10:32:09Z</time></trkpt>
<trkpt lat="45.381142" lon="4.461431"><ele>259.4</ele><time>2008-29-09T10:32:10Z</time></trkpt>
<trkpt lat="45.381167" lon="4.461426"><ele>260.2</ele><time>2008-29-09T10:32:11Z</time></trkpt>
<trkpt lat="45.381196" lon="4.461416"><ele>260</ele><time>2008-29-09T10:32:12Z</time></trkpt>
<trkpt lat="45.381227" lon="4.461399"><ele>261.3</ele><time>2008-29-09T10:32:13Z</time></trkpt>
<trkpt lat="45.381257" lon="4.461389"><ele>262.1</ele><time>2008-29-09T10:32:14Z</time></trkpt>
<trkpt lat="45.381289" lon="4.461367"><ele>260.8</ele><time>2008-29-09T10:32:15Z</time></trkpt>
<trkpt lat="45.381322" lon="4.461364"><ele>264.9</ele><time>2008-29-09T10:32:16Z</time></trkpt>
<trkpt lat="45.381353" lon="4.461352"><ele>266.4</ele><time>2008-29-09T10:32:17Z</time></trkpt>
<trkpt lat="45.381384" lon="4.461337"><ele>265.5</ele><time>2008-29-09T10:32:18Z</time></trkpt>
<trkpt lat="45.381417" lon="4.461331"><ele>261.6</ele><time>2008-29-09T10:32:19Z</time></trkpt>
<trkpt lat="45.381451" lon="4.461335"><ele>252.2</ele><time>2008-29-09T10:32:20Z</time></trkpt>
<trkpt lat="45.381486" lon="4.461341"><ele>256</ele><time>2008-29-09T10:32:21Z</time></trkpt>
<trkpt lat="45.381516" lon="4.461335"><ele>258.6</ele><time>2008-29-09T10:32:22Z</time></trkpt>
<trkpt lat="45.381544" lon="4.461325"><ele>263.1</ele><time>2008-29-09T10:32:23Z</time></trkpt>
<trkpt lat="45.381573" lon="4.461315"><ele>261.5</ele><time>2008-29-09T10:32:24Z</time></trkpt>
<trkpt lat="45.381607" lon="4.461319"><ele>260.3</ele><time>2008-29-09T10:32:25Z</time></trkpt>
<trkpt lat="45.381639" lon="4.461317"><ele>260.6</ele><time>2008-29-09T10:32:26Z</time></trkpt>
<trkpt lat="45.381668" lon="4.461309"><ele>259.8</ele><time>2008-29-09T10:32:27Z</time></trkpt>
<trkpt lat="45.381702" lon="4.461324"><ele>252.8</ele><time>2008-29-09T10:32:28Z</time></trkpt>
<trkpt lat="45.381728" lon="4.461334"><ele>255.9</ele><time>2008-29-09T10:32:29Z</time></trkpt>
<trkpt lat="45.381755" lon="4.461324"><ele>256</ele><time>2008-29-09T10:32:30Z</time></trkpt>
<trkpt lat="45.381784" lon="4.46132"><ele>256.8</ele><time>2008-29-09T10:32:31Z</time></trkpt>
<trkpt lat="45.381812" lon="4.461307"><ele>257.4</ele><time>2008-29-09T10:32:32Z</time></trkpt>
<trkpt lat="45.381839" lon="4.461298"><ele>252.1</ele><time>2008-29-09T10:32:33Z</time></trkpt>
<trkpt lat="45.381869" lon="4.461293"><ele>252.9</ele><time>2008-29-09T10:32:34Z</time></trkpt>
<trkpt lat="45.381899" lon="4.461309"><ele>254</ele><time>2008-29-09T10:32:35Z</time></trkpt>
<trkpt lat="45.381927" lon="4.461304"><ele>258.3</ele><time>2008-29-09T10:32:36Z</time></trkpt>
<trkpt lat="45.381953" lon="4.461297"><ele>264.3</ele><time>2008-29-09T10:32:37Z</time></trkpt>
<trkpt lat="45.381979" lon="4.46129"><ele>268.1</ele><time>2008-29-09T10:32:38Z</time></trkpt>
<trkpt lat="45.382007" lon="4.461275"><ele>266.3</ele><time>2008-29-09T10:32:39Z</time></trkpt>
<trkpt lat="45.38204" lon="4.461291"><ele>263.5</ele><time>2008-29-09T10:32:40Z</time></trkpt>
<trkpt lat="45.382072" lon="4.461305"><ele>260.8</ele><time>2008-29-09T10:32:41Z</time></trkpt>
<trkpt lat="45.382105" lon="4.46131"><ele>261.4</ele><time>2008-29-09T10:32:42Z</time></trkpt>
<trkpt lat="45.382134" lon="4.461307"><ele>260.3</ele><time>2008-29-09T10:32:43Z</time></trkpt>
<trkpt lat="45.382162" lon="4.461304"><ele>257.7</ele><time>2008-29-09T10:32:44Z</time></trkpt>
<trkpt lat="45.382192" lon="4.461292"><ele>262.6</ele><time>2008-29-09T10:32:45Z</time></trkpt>
<trkpt lat="45.382223" lon="4.461286"><ele>265.1</ele><time>2008-29-09T10:32:46Z</time></trkpt>
<trkpt lat="45.382254" lon="4.461267"><ele>269.9</ele><time>2008-29-09T10:32:47Z</time></trkpt>
<trkpt lat="45.382285" lon="4.461252"><ele>273.9</ele><time>2008-29-09T10:32:48Z</time></trkpt>
<trkpt lat="45.382316" lon="4.461231"><ele>277.3</ele><time>2008-29-09T10:32:49Z</time></trkpt>
<trkpt lat="45.382345" lon="4.461217"><ele>275.9</ele><time>2008-29-09T10:32:50Z</time></trkpt>
<trkpt lat="45.382375" lon="4.461219"><ele>275.1</ele><time>2008-29-09T10:32:51Z</time></trkpt>
<trkpt lat="45.382406" lon="4.461231"><ele>275.1</ele><time>2008-29-09T10:32:52Z</time></trkpt>
<trkpt lat="45.382438" lon="4.461239"><ele>279.3</ele><time>2008-29-09T10:32:53Z</time></trkpt>
<trkpt lat="45.382469" lon="4.461239"><ele>283.2</ele><time>2008-29-09T10:32:54Z</time></trkpt>
<trkpt lat="45.382499" lon="4.461229"><ele>282.6</ele><time>2008-29-09T10:32:55Z</time></trkpt>
<trkpt lat="45.38253" lon="4.461226"><ele>279.2</ele><time>2008-29-09T10:32:56Z</time></trkpt>
<trkpt lat="45.382562" lon="4.461237"><ele>279.2</ele><time>2008-29-09T10:32:57Z</time></trkpt>
<trkpt lat="45.382592" lon="4.461234"><ele>275.4</ele><time>2008-29-09T10:32:58Z</time></trkpt>
<trkpt lat="45.382624" lon="4.461232"><ele>277</ele><time>2008-29-09T10:32:59Z</time></trkpt>
<trkpt lat="45.382655" lon="4.461222"><ele>278.1</ele><time>2008-29-09T10:33:00Z</time></trkpt>
<trkpt lat="45.382687" lon="4.461213"><ele>278.9</ele><time>2008-29-09T10:33:01Z</time></trkpt>
<trkpt lat="45.382718" lon="4.461211"><ele>273.8</ele><time>2008-29-09T10:33:02Z</time></trkpt>
<trkpt lat="45.382725" lon="4.461191"><ele>274.3</ele><time>2008-29-09T10:33:03Z</time></trkpt>
<trkpt lat="45.382754" lon="4.46119"><ele>276.7</ele><time>2008-29-09T10:33:04Z</time></trkpt>
<trkpt lat="45.382783" lon="4.461178"><ele>272.8</ele><time>2008-29-09T10:33:05Z</time></trkpt>
<trkpt lat="45.382817" lon="4.461182"><ele>271.7</ele><time>2008-29-09T10:33:06Z</time></trkpt>
<trkpt lat="45.382849" lon="4.461188"><ele>274.1</ele><time>2008-29-09T10:33:07Z</time></trkpt>
<trkpt lat="45.382881" lon="4.461182"><ele>272.3</ele><time>2008-29-09T10:33:08Z</time></trkpt>
<trkpt lat="45.382912" lon="4.46118"><ele>272.9</ele><time>2008-29-09T10:33:09Z</time></trkpt>
<trkpt lat="45.382945" lon="4.461176"><ele>274.2</ele><time>2008-29-09T10:33:10Z</time></trkpt>
<trkpt lat="45.382976" lon="4.461167"><ele>274.7</ele><time>2008-29-09T10:33:11Z</time></trkpt>
<trkpt lat="45.383008" lon="4.46117"><ele>277.2</ele><time>2008-29-09T10:33:12Z</time></trkpt>
<trkpt lat="45.383036" lon="4.461165"><ele>278.5</ele><time>2008-29-09T10:33:13Z</time></trkpt>
<trkpt lat="45.383064" lon="4.461153"><ele>279.3</ele><time>2008-29-09T10:33:14Z</time></trkpt>
<trkpt lat="45.383089" lon="4.461143"><ele>280.1</ele><time>2008-29-09T10:33:15Z</time></trkpt>
<trkpt lat="45.383118" lon="4.461122"><ele>282.3</ele><time>2008-29-09T10:33:16Z</time></trkpt>
<trkpt lat="45.383145" lon="4.461107"><ele>285.7</ele><time>2008-29-09T10:33:17Z</time></trkpt>
<trkpt lat="45.383175" lon="4.461093"><ele>287.3</ele><time>2008-29-09T10:33:18Z</time></trkpt>
<trkpt lat="45.383205" lon="4.46108"><ele>288</ele><time>2008-29-09T10:33:19Z</time></trkpt>
<trkpt lat="45.383233" lon="4.461069"><ele>288.9</ele><time>2008-29-09T10:33:20Z</time></trkpt>
<trkpt lat="45.38326" lon="4.461055"><ele>289.5</ele><time>2008-29-09T10:33:21Z</time></trkpt>
<trkpt lat="45.383287" lon="4.461039"><ele>289.9</ele><time>2008-29-09T10:33:22Z</time></trkpt>
<trkpt lat="45.383313" lon="4.461027"><ele>289.5</ele><time>2008-29-09T10:33:23Z</time></trkpt>
<trkpt lat="45.383341" lon="4.461012"><ele>289.3</ele><time>2008-29-09T10:33:24Z</time></trkpt>
<trkpt lat="45.383369" lon="4.461004"><ele>289.7</ele><time>2008-29-09T10:33:25Z</time></trkpt>
<trkpt lat="45.383396" lon="4.460994"><ele>290.5</ele><time>2008-29-09T10:33:26Z</time></trkpt>
<trkpt lat="45.383423" lon="4.460982"><ele>287.4</ele><time>2008-29-09T10:33:27Z</time></trkpt>
<trkpt lat="45.383439" lon="4.460979"><ele>289</ele><time>2008-29-09T10:33:28Z</time></trkpt>
<trkpt lat="45.383468" lon="4.460968"><ele>288.2</ele><time>2008-29-09T10:33:29Z</time></trkpt>
<trkpt lat="45.383498" lon="4.460959"><ele>288.1</ele><time>2008-29-09T10:33:30Z</time></trkpt>
<trkpt lat="45.383527" lon="4.460949"><ele>287.5</ele><time>2008-29-09T10:33:31Z</time></trkpt>
<trkpt lat="45.383556" lon="4.460938"><ele>282.6</ele><time>2008-29-09T10:33:32Z</time></trkpt>
<trkpt lat="45.383587" lon="4.46094"><ele>279.3</ele><time>2008-29-09T10:33:33Z</time></trkpt>
<trkpt lat="45.383616" lon="4.460941"><ele>277.9</ele><time>2008-29-09T10:33:34Z</time></trkpt>
<trkpt lat="45.383643" lon="4.460937"><ele>277.3</ele><time>2008-29-09T10:33:35Z</time></trkpt>
<trkpt lat="45.383672" lon="4.460929"><ele>277.8</ele><time>2008-29-09T10:33:36Z</time></trkpt>
<trkpt lat="45.3837" lon="4.460917"><ele>274</ele><time>2008-29-09T10:33:37Z</time></trkpt>
<trkpt lat="45.383719" lon="4.460904"><ele>266</ele><time>2008-29-09T10:33:38Z</time></trkpt>
<trkpt lat="45.38373" lon="4.460898"><ele>263</ele><time>2008-29-09T10:33:39Z</time></trkpt>
<trkpt lat="45.383747" lon="4.46089"><ele>264.7</ele><time>2008-29-09T10:33:40Z</time></trkpt>
<trkpt lat="45.383773" lon="4.460877"><ele>265.3</ele><time>2008-29-09T10:33:41Z</time></trkpt>
<trkpt lat="45.383802" lon="4.460866"><ele>260.6</ele><time>2008-29-09T10:33:42Z</time></trkpt>
<trkpt lat="45.383823" lon="4.460852"><ele>258.4</ele><time>2008-29-09T10:33:43Z</time></trkpt>
<trkpt lat="45.38385" lon="4.460836"><ele>261.5</ele><time>2008-29-09T10:33:44Z</time></trkpt>
<trkpt lat="45.383877" lon="4.460824"><ele>263.2</ele><time>2008-29-09T10:33:45Z</time></trkpt>
<trkpt lat="45.383906" lon="4.460816"><ele>264.2</ele><time>2008-29-09T10:33:46Z</time></trkpt>
<trkpt lat="45.383935" lon="4.460808"><ele>265.6</ele><time>2008-29-09T10:33:47Z</time></trkpt>
<trkpt lat="45.383964" lon="4.460795"><ele>267.1</ele><time>2008-29-09T10:33:48Z</time></trkpt>
<trkpt lat="45.383994" lon="4.460779"><ele>267.8</ele><time>2008-29-09T10:33:49Z</time></trkpt>
<trkpt lat="45.384023" lon="4.460765"><ele>270.3</ele><time>2008-29-09T10:33:50Z</time></trkpt>
<trkpt lat="45.384053" lon="4.460749"><ele>272.9</ele><time>2008-29-09T10:33:51Z</time></trkpt>
<trkpt lat="45.384082" lon="4.460733"><ele>274.2</ele><time>2008-29-09T10:33:52Z</time></trkpt>
<trkpt lat="45.384109" lon="4.460718"><ele>276.4</ele><time>2008-29-09T10:33:53Z</time></trkpt>
<trkpt lat="45.384134" lon="4.4607"><ele>276.5</ele><time>2008-29-09T10:33:54Z</time></trkpt>
<trkpt lat="45.384161" lon="4.460682"><ele>277.8</ele><time>2008-29-09T10:33:55Z</time></trkpt>
<trkpt lat="45.38419" lon="4.460674"><ele>279.3</ele><time>2008-29-09T10:33:56Z</time></trkpt>
<trkpt lat="45.384219" lon="4.460668"><ele>281.2</ele><time>2008-29-09T10:33:57Z</time></trkpt>
<trkpt lat="45.384248" lon="4.460666"><ele>282.6</ele><time>2008-29-09T10:33:58Z</time></trkpt>
<trkpt lat="45.384279" lon="4.460667"><ele>282.5</ele><time>2008-29-09T10:33:59Z</time></trkpt>
<trkpt lat="45.384309" lon="4.460664"><ele>283.5</ele><time>2008-29-09T10:34:00Z</time></trkpt>
<trkpt lat="45.384337" lon="4.460659"><ele>280.9</ele><time>2008-29-09T10:34:01Z</time></trkpt>
<trkpt lat="45.384354" lon="4.460642"><ele>284.1</ele><time>2008-29-09T10:34:02Z</time></trkpt>
<trkpt lat="45.384383" lon="4.460633"><ele>283.7</ele><time>2008-29-09T10:34:03Z</time></trkpt>
<trkpt lat="45.384397" lon="4.460615"><ele>285.2</ele><time>2008-29-09T10:34:04Z</time></trkpt>
<trkpt lat="45.384425" lon="4.460615"><ele>285.5</ele><time>2008-29-09T10:34:05Z</time></trkpt>
<trkpt lat="45.384453" lon="4.460612"><ele>281.3</ele><time>2008-29-09T10:34:06Z</time></trkpt>
<trkpt lat="45.38447" lon="4.460597"><ele>283.2</ele><time>2008-29-09T10:34:07Z</time></trkpt>
<trkpt lat="45.384494" lon="4.460595"><ele>283.9</ele><time>2008-29-09T10:34:08Z</time></trkpt>
<trkpt lat="45.384516" lon="4.460595"><ele>283.5</ele><time>2008-29-09T10:34:09Z</time></trkpt>
<trkpt lat="45.384537" lon="4.460596"><ele>282.8</ele><time>2008-29-09T10:34:10Z</time></trkpt>
<trkpt lat="45.384556" lon="4.460603"><ele>282.3</ele><time>2008-29-09T10:34:11Z</time></trkpt>
<trkpt lat="45.384569" lon="4.460609"><ele>278.7</ele><time>2008-29-09T10:34:12Z</time></trkpt>
<trkpt lat="45.384572" lon="4.4606"><ele>276.8</ele><time>2008-29-09T10:34:13Z</time></trkpt>
<trkpt lat="45.384579" lon="4.460606"><ele>276.9</ele><time>2008-29-09T10:34:14Z</time></trkpt>
<trkpt lat="45.384584" lon="4.460611"><ele>276.9</ele><time>2008-29-09T10:34:15Z</time></trkpt>
<trkpt lat="45.384584" lon="4.460611"><ele>276.9</ele><time>2008-29-09T10:34:16Z</time></trkpt>
<trkpt lat="45.384584" lon="4.460611"><ele>276.9</ele><time>2008-29-09T10:34:17Z</time></trkpt>
<trkpt lat="45.384584" lon="4.460611"><ele>276.9</ele><time>2008-29-09T10:34:18Z</time></trkpt>
<trkpt lat="45.384584" lon="4.460611"><ele>276.9</ele><time>2008-29-09T10:34:19Z</time></trkpt>
<trkpt lat="45.384584" lon="4.460611"><ele>276.9</ele><time>2008-29-09T10:34:20Z</time></trkpt>
<trkpt lat="45.384584" lon="4.460611"><ele>274.4</ele><time>2008-29-09T10:34:21Z</time></trkpt>
<trkpt lat="45.384587" lon="4.460623"><ele>274.3</ele><time>2008-29-09T10:34:22Z</time></trkpt>
<trkpt lat="45.384591" lon="4.460629"><ele>274.3</ele><time>2008-29-09T10:34:23Z</time></trkpt>
<trkpt lat="45.384596" lon="4.460631"><ele>274.3</ele><time>2008-29-09T10:34:24Z</time></trkpt>
<trkpt lat="45.384596" lon="4.460631"><ele>274.3</ele><time>2008-29-09T10:34:25Z</time></trkpt>
<trkpt lat="45.384596" lon="4.460631"><ele>274.3</ele><time>2008-29-09T10:34:26Z</time></trkpt>
<trkpt lat="45.384596" lon="4.460631"><ele>274.3</ele><time>2008-29-09T10:34:27Z</time></trkpt>
<trkpt lat="45.384596" lon="4.460631"><ele>274.3</ele><time>2008-29-09T10:34:28Z</time></trkpt>
<trkpt lat="45.384596" lon="4.460631"><ele>274.3</ele><time>2008-29-09T10:34:29Z</time></trkpt>
<trkpt lat="45.384596" lon="4.460631"><ele>274.3</ele><time>2008-29-09T10:34:30Z</time></trkpt>
<trkpt lat="45.384596" lon="4.460631"><ele>274.3</ele><time>2008-29-09T10:34:31Z</time></trkpt>
<trkpt lat="45.384596" lon="4.460631"><ele>274.3</ele><time>2008-29-09T10:34:32Z</time></trkpt>
<trkpt lat="45.384596" lon="4.460631"><ele>274.3</ele><time>2008-29-09T10:34:33Z</time></trkpt>
<trkpt lat="45.384596" lon="4.460631"><ele>274.3</ele><time>2008-29-09T10:34:34Z</time></trkpt>
<trkpt lat="45.384596" lon="4.460631"><ele>274.3</ele><time>2008-29-09T10:34:35Z</time></trkpt>
<trkpt lat="45.384596" lon="4.460631"><ele>274.3</ele><time>2008-29-09T10:34:36Z</time></trkpt>
<trkpt lat="45.384596" lon="4.460631"><ele>274.3</ele><time>2008-29-09T10:34:37Z</time></trkpt>
<trkpt lat="45.384596" lon="4.460631"><ele>274.3</ele><time>2008-29-09T10:34:38Z</time></trkpt>
<trkpt lat="45.384596" lon="4.460631"><ele>274.3</ele><time>2008-29-09T10:34:39Z</time></trkpt>
<trkpt lat="45.384596" lon="4.460631"><ele>274.3</ele><time>2008-29-09T10:34:40Z</time></trkpt>
<trkpt lat="45.384596" lon="4.460631"><ele>274.3</ele><time>2008-29-09T10:34:41Z</time></trkpt>
<trkpt lat="45.384596" lon="4.460631"><ele>274.3</ele><time>2008-29-09T10:34:42Z</time></trkpt>
<trkpt lat="45.384596" lon="4.460631"><ele>274.3</ele><time>2008-29-09T10:34:43Z</time></trkpt>
<trkpt lat="45.384596" lon="4.460631"><ele>274.3</ele><time>2008-29-09T10:34:44Z</time></trkpt>
<trkpt lat="45.384596" lon="4.460631"><ele>274.3</ele><time>2008-29-09T10:34:45Z</time></trkpt>
<trkpt lat="45.384596" lon="4.460631"><ele>274.3</ele><time>2008-29-09T10:34:46Z</time></trkpt>
<trkpt lat="45.384596" lon="4.460631"><ele>274.3</ele><time>2008-29-09T10:34:47Z</time></trkpt>
<trkpt lat="45.384596" lon="4.460631"><ele>274.3</ele><time>2008-29-09T10:34:48Z</time></trkpt>
<trkpt lat="45.384596" lon="4.460631"><ele>274.3</ele><time>2008-29-09T10:34:49Z</time></trkpt>
<trkpt lat="45.384596" lon="4.460631"><ele>274.3</ele><time>2008-29-09T10:34:50Z</time></trkpt>
<trkpt lat="45.384596" lon="4.460631"><ele>272.1</ele><time>2008-29-09T10:34:51Z</time></trkpt>
<trkpt lat="45.384593" lon="4.460621"><ele>269.9</ele><time>2008-29-09T10:34:52Z</time></trkpt>
<trkpt lat="45.384593" lon="4.460609"><ele>272</ele><time>2008-29-09T10:34:53Z</time></trkpt>
<trkpt lat="45.384585" lon="4.46061"><ele>270.6</ele><time>2008-29-09T10:34:54Z</time></trkpt>
<trkpt lat="45.384591" lon="4.460615"><ele>269.8</ele><time>2008-29-09T10:34:55Z</time></trkpt>
<trkpt lat="45.384603" lon="4.460621"><ele>270.5</ele><time>2008-29-09T10:34:56Z</time></trkpt>
<trkpt lat="45.384615" lon="4.460627"><ele>270.3</ele><time>2008-29-09T10:34:57Z</time></trkpt>
<trkpt lat="45.384627" lon="4.46063"><ele>268.4</ele><time>2008-29-09T10:34:58Z</time></trkpt>
<trkpt lat="45.384643" lon="4.460627"><ele>267.8</ele><time>2008-29-09T10:34:59Z</time></trkpt>
<trkpt lat="45.384661" lon="4.460623"><ele>267.1</ele><time>2008-29-09T10:35:00Z</time></trkpt>
<trkpt lat="45.384681" lon="4.46062"><ele>264.3</ele><time>2008-29-09T10:35:01Z</time></trkpt>
<trkpt lat="45.384702" lon="4.460622"><ele>267.3</ele><time>2008-29-09T10:35:02Z</time></trkpt>
<trkpt lat="45.384722" lon="4.460623"><ele>265.6</ele><time>2008-29-09T10:35:03Z</time></trkpt>
<trkpt lat="45.38474" lon="4.460623"><ele>264.3</ele><time>2008-29-09T10:35:04Z</time></trkpt>
<trkpt lat="45.384756" lon="4.460623"><ele>266.1</ele><time>2008-29-09T10:35:05Z</time></trkpt>
<trkpt lat="45.384772" lon="4.460633"><ele>265.6</ele><time>2008-29-09T10:35:06Z</time></trkpt>
<trkpt lat="45.384791" lon="4.460637"><ele>266.1</ele><time>2008-29-09T10:35:07Z</time></trkpt>
<trkpt lat="45.384809" lon="4.460638"><ele>265.7</ele><time>2008-29-09T10:35:08Z</time></trkpt>
<trkpt lat="45.384813" lon="4.460624"><ele>263.6</ele><time>2008-29-09T10:35:09Z</time></trkpt>
<trkpt lat="45.384821" lon="4.460613"><ele>263.2</ele><time>2008-29-09T10:35:10Z</time></trkpt>
<trkpt lat="45.384832" lon="4.460607"><ele>263.6</ele><time>2008-29-09T10:35:11Z</time></trkpt>
<trkpt lat="45.384843" lon="4.460603"><ele>261.8</ele><time>2008-29-09T10:35:12Z</time></trkpt>
<trkpt lat="45.384856" lon="4.460598"><ele>260.5</ele><time>2008-29-09T10:35:13Z</time></trkpt>
<trkpt lat="45.384869" lon="4.460583"><ele>258.8</ele><time>2008-29-09T10:35:14Z</time></trkpt>
<trkpt lat="45.384885" lon="4.460571"><ele>258.5</ele><time>2008-29-09T10:35:15Z</time></trkpt>
<trkpt lat="45.384896" lon="4.460545"><ele>257</ele><time>2008-29-09T10:35:16Z</time></trkpt>
<trkpt lat="45.384904" lon="4.460516"><ele>256.5</ele><time>2008-29-09T10:35:17Z</time></trkpt>
<trkpt lat="45.384914" lon="4.460494"><ele>255.8</ele><time>2008-29-09T10:35:18Z</time></trkpt>
<trkpt lat="45.384919" lon="4.460469"><ele>256.5</ele><time>2008-29-09T10:35:19Z</time></trkpt>
<trkpt lat="45.384924" lon="4.460447"><ele>256.8</ele><time>2008-29-09T10:35:20Z</time></trkpt>
<trkpt lat="45.384928" lon="4.460426"><ele>256.2</ele><time>2008-29-09T10:35:21Z</time></trkpt>
<trkpt lat="45.384933" lon="4.4604"><ele>255.8</ele><time>2008-29-09T10:35:22Z</time></trkpt>
<trkpt lat="45.384937" lon="4.460372"><ele>255.7</ele><time>2008-29-09T10:35:23Z</time></trkpt>
<trkpt lat="45.384939" lon="4.460342"><ele>256.9</ele><time>2008-29-09T10:35:24Z</time></trkpt>
<trkpt lat="45.384943" lon="4.460311"><ele>256.5</ele><time>2008-29-09T10:35:25Z</time></trkpt>
<trkpt lat="45.384942" lon="4.460282"><ele>256.4</ele><time>2008-29-09T10:35:26Z</time></trkpt>
<trkpt lat="45.384942" lon="4.460253"><ele>256.6</ele><time>2008-29-09T10:35:27Z</time></trkpt>
<trkpt lat="45.38494" lon="4.460223"><ele>256.2</ele><time>2008-29-09T10:35:28Z</time></trkpt>
<trkpt lat="45.384939" lon="4.460192"><ele>256</ele><time>2008-29-09T10:35:29Z</time></trkpt>
<trkpt lat="45.384942" lon="4.460159"><ele>254.9</ele><time>2008-29-09T10:35:30Z</time></trkpt>
<trkpt lat="45.384946" lon="4.460127"><ele>254.7</ele><time>2008-29-09T10:35:31Z</time></trkpt>
<trkpt lat="45.384947" lon="4.460094"><ele>254.5</ele><time>2008-29-09T10:35:32Z</time></trkpt>
<trkpt lat="45.384946" lon="4.460062"><ele>254.5</ele><time>2008-29-09T10:35:33Z</time></trkpt>
<trkpt lat="45.384947" lon="4.46003"><ele>255.5</ele><time>2008-29-09T10:35:34Z</time></trkpt>
<trkpt lat="45.384953" lon="4.46"><ele>255.7</ele><time>2008-29-09T10:35:35Z</time></trkpt>
<trkpt lat="45.384957" lon="4.459971"><ele>256.6</ele><time>2008-29-09T10:35:36Z</time></trkpt>
<trkpt lat="45.384968" lon="4.459946"><ele>257.2</ele><time>2008-29-09T10:35:37Z</time></trkpt>
<trkpt lat="45.384985" lon="4.459924"><ele>258.9</ele><time>2008-29-09T10:35:38Z</time></trkpt>
<trkpt lat="45.385" lon="4.459908"><ele>258.8</ele><time>2008-29-09T10:35:39Z</time></trkpt>
<trkpt lat="45.385018" lon="4.459901"><ele>258.2</ele><time>2008-29-09T10:35:40Z</time></trkpt>
<trkpt lat="45.385037" lon="4.459897"><ele>259.5</ele><time>2008-29-09T10:35:41Z</time></trkpt>
<trkpt lat="45.385059" lon="4.459893"><ele>258.9</ele><time>2008-29-09T10:35:42Z</time></trkpt>
<trkpt lat="45.385079" lon="4.459894"><ele>259</ele><time>2008-29-09T10:35:43Z</time></trkpt>
<trkpt lat="45.385097" lon="4.459899"><ele>259</ele><time>2008-29-09T10:35:44Z</time></trkpt>
<trkpt lat="45.385116" lon="4.459896"><ele>258.5</ele><time>2008-29-09T10:35:45Z</time></trkpt>
<trkpt lat="45.385135" lon="4.459893"><ele>257.6</ele><time>2008-29-09T10:35:46Z</time></trkpt>
<trkpt lat="45.385153" lon="4.459891"><ele>257.4</ele><time>2008-29-09T10:35:47Z</time></trkpt>
<trkpt lat="45.385171" lon="4.459891"><ele>258.3</ele><time>2008-29-09T10:35:48Z</time></trkpt>
<trkpt lat="45.38519" lon="4.459885"><ele>258.2</ele><time>2008-29-09T10:35:49Z</time></trkpt>
<trkpt lat="45.385211" lon="4.459877"><ele>258.2</ele><time>2008-29-09T10:35:50Z</time></trkpt>
<trkpt lat="45.385233" lon="4.459873"><ele>257.5</ele><time>2008-29-09T10:35:51Z</time></trkpt>
<trkpt lat="45.385254" lon="4.459865"><ele>256</ele><time>2008-29-09T10:35:52Z</time></trkpt>
<trkpt lat="45.385269" lon="4.459852"><ele>256.1</ele><time>2008-29-09T10:35:53Z</time></trkpt>
<trkpt lat="45.38529" lon="4.459848"><ele>254.9</ele><time>2008-29-09T10:35:54Z</time></trkpt>
<trkpt lat="45.38531" lon="4.459853"><ele>253</ele><time>2008-29-09T10:35:55Z</time></trkpt>
<trkpt lat="45.385328" lon="4.459851"><ele>251.6</ele><time>2008-29-09T10:35:56Z</time></trkpt>
<trkpt lat="45.385345" lon="4.459844"><ele>252</ele><time>2008-29-09T10:35:57Z</time></trkpt>
<trkpt lat="45.385366" lon="4.459838"><ele>252.8</ele><time>2008-29-09T10:35:58Z</time></trkpt>
<trkpt lat="45.385384" lon="4.459837"><ele>252.6</ele><time>2008-29-09T10:35:59Z</time></trkpt>
<trkpt lat="45.385405" lon="4.459835"><ele>254.7</ele><time>2008-29-09T10:36:00Z</time></trkpt>
<trkpt lat="45.385423" lon="4.459832"><ele>254.9</ele><time>2008-29-09T10:36:01Z</time></trkpt>
<trkpt lat="45.385442" lon="4.459828"><ele>252.6</ele><time>2008-29-09T10:36:02Z</time></trkpt>
<trkpt lat="45.385463" lon="4.459828"><ele>250.4</ele><time>2008-29-09T10:36:03Z</time></trkpt>
<trkpt lat="45.385482" lon="4.459825"><ele>249.5</ele><time>2008-29-09T10:36:04Z</time></trkpt>
<trkpt lat="45.385499" lon="4.459822"><ele>250</ele><time>2008-29-09T10:36:05Z</time></trkpt>
<trkpt lat="45.385519" lon="4.459819"><ele>250.6</ele><time>2008-29-09T10:36:06Z</time></trkpt>
<trkpt lat="45.38554" lon="4.459819"><ele>249.6</ele><time>2008-29-09T10:36:07Z</time></trkpt>
<trkpt lat="45.385564" lon="4.459818"><ele>249.9</ele><time>2008-29-09T10:36:08Z</time></trkpt>
<trkpt lat="45.385585" lon="4.459813"><ele>251.2</ele><time>2008-29-09T10:36:09Z</time></trkpt>
<trkpt lat="45.385606" lon="4.459806"><ele>252.1</ele><time>2008-29-09T10:36:10Z</time></trkpt>
<trkpt lat="45.385626" lon="4.459796"><ele>253.1</ele><time>2008-29-09T10:36:11Z</time></trkpt>
<trkpt lat="45.385649" lon="4.459787"><ele>253.4</ele><time>2008-29-09T10:36:12Z</time></trkpt>
<trkpt lat="45.385672" lon="4.459779"><ele>253.4</ele><time>2008-29-09T10:36:13Z</time></trkpt>
<trkpt lat="45.385696" lon="4.45977"><ele>252.5</ele><time>2008-29-09T10:36:14Z</time></trkpt>
<trkpt lat="45.385721" lon="4.45976"><ele>251.8</ele><time>2008-29-09T10:36:15Z</time></trkpt>
<trkpt lat="45.385747" lon="4.45975"><ele>251.3</ele><time>2008-29-09T10:36:16Z</time></trkpt>
<trkpt lat="45.385771" lon="4.459742"><ele>252.8</ele><time>2008-29-09T10:36:17Z</time></trkpt>
<trkpt lat="45.385794" lon="4.45974"><ele>253.3</ele><time>2008-29-09T10:36:18Z</time></trkpt>
<trkpt lat="45.385822" lon="4.459734"><ele>252.9</ele><time>2008-29-09T10:36:19Z</time></trkpt>
<trkpt lat="45.385853" lon="4.459731"><ele>252.8</ele><time>2008-29-09T10:36:20Z</time></trkpt>
<trkpt lat="45.385885" lon="4.459727"><ele>253.3</ele><time>2008-29-09T10:36:21Z</time></trkpt>
<trkpt lat="45.385918" lon="4.459718"><ele>253.5</ele><time>2008-29-09T10:36:22Z</time></trkpt>
<trkpt lat="45.38595" lon="4.459714"><ele>252.8</ele><time>2008-29-09T10:36:23Z</time></trkpt>
<trkpt lat="45.385977" lon="4.4597"><ele>253.8</ele><time>2008-29-09T10:36:24Z</time></trkpt>
<trkpt lat="45.386005" lon="4.459688"><ele>254.4</ele><time>2008-29-09T10:36:25Z</time></trkpt>
<trkpt lat="45.386036" lon="4.459671"><ele>255.4</ele><time>2008-29-09T10:36:26Z</time></trkpt>
<trkpt lat="45.386067" lon="4.459667"><ele>256.1</ele><time>2008-29-09T10:36:27Z</time></trkpt>
<trkpt lat="45.3861" lon="4.459663"><ele>256.1</ele><time>2008-29-09T10:36:28Z</time></trkpt>
<trkpt lat="45.386131" lon="4.459655"><ele>256</ele><time>2008-29-09T10:36:29Z</time></trkpt>
<trkpt lat="45.386163" lon="4.459649"><ele>255</ele><time>2008-29-09T10:36:30Z</time></trkpt>
<trkpt lat="45.386189" lon="4.459641"><ele>254.1</ele><time>2008-29-09T10:36:31Z</time></trkpt>
<trkpt lat="45.386215" lon="4.459631"><ele>253.1</ele><time>2008-29-09T10:36:32Z</time></trkpt>
<trkpt lat="45.386233" lon="4.459617"><ele>253.2</ele><time>2008-29-09T10:36:33Z</time></trkpt>
<trkpt lat="45.386261" lon="4.459607"><ele>252.6</ele><time>2008-29-09T10:36:34Z</time></trkpt>
<trkpt lat="45.386289" lon="4.459606"><ele>252.7</ele><time>2008-29-09T10:36:35Z</time></trkpt>
<trkpt lat="45.38632" lon="4.459608"><ele>252.5</ele><time>2008-29-09T10:36:36Z</time></trkpt>
<trkpt lat="45.386349" lon="4.459608"><ele>250.8</ele><time>2008-29-09T10:36:37Z</time></trkpt>
<trkpt lat="45.386376" lon="4.459602"><ele>248.6</ele><time>2008-29-09T10:36:38Z</time></trkpt>
<trkpt lat="45.386403" lon="4.459587"><ele>250.2</ele><time>2008-29-09T10:36:39Z</time></trkpt>
<trkpt lat="45.386437" lon="4.459577"><ele>251.3</ele><time>2008-29-09T10:36:40Z</time></trkpt>
<trkpt lat="45.386459" lon="4.459548"><ele>250.9</ele><time>2008-29-09T10:36:41Z</time></trkpt>
<trkpt lat="45.386473" lon="4.459511"><ele>251.6</ele><time>2008-29-09T10:36:42Z</time></trkpt>
<trkpt lat="45.386482" lon="4.459472"><ele>254.1</ele><time>2008-29-09T10:36:43Z</time></trkpt>
<trkpt lat="45.38649" lon="4.459426"><ele>256.5</ele><time>2008-29-09T10:36:44Z</time></trkpt>
<trkpt lat="45.386503" lon="4.459383"><ele>256.8</ele><time>2008-29-09T10:36:45Z</time></trkpt>
<trkpt lat="45.386524" lon="4.459359"><ele>257.2</ele><time>2008-29-09T10:36:46Z</time></trkpt>
<trkpt lat="45.386548" lon="4.459344"><ele>257.1</ele><time>2008-29-09T10:36:47Z</time></trkpt>
<trkpt lat="45.386572" lon="4.459336"><ele>257.5</ele><time>2008-29-09T10:36:48Z</time></trkpt>
<trkpt lat="45.386596" lon="4.459332"><ele>257.1</ele><time>2008-29-09T10:36:49Z</time></trkpt>
<trkpt lat="45.386623" lon="4.459325"><ele>257.2</ele><time>2008-29-09T10:36:50Z</time></trkpt>
<trkpt lat="45.38665" lon="4.459322"><ele>257.8</ele><time>2008-29-09T10:36:51Z</time></trkpt>
<trkpt lat="45.386676" lon="4.459312"><ele>256.9</ele><time>2008-29-09T10:36:52Z</time></trkpt>
<trkpt lat="45.386702" lon="4.459299"><ele>255.9</ele><time>2008-29-09T10:36:53Z</time></trkpt>
<trkpt lat="45.386724" lon="4.459288"><ele>254.6</ele><time>2008-29-09T10:36:54Z</time></trkpt>
<trkpt lat="45.386746" lon="4.459284"><ele>254.1</ele><time>2008-29-09T10:36:55Z</time></trkpt>
<trkpt lat="45.386772" lon="4.459284"><ele>253.8</ele><time>2008-29-09T10:36:56Z</time></trkpt>
<trkpt lat="45.386799" lon="4.459283"><ele>254.8</ele><time>2008-29-09T10:36:57Z</time></trkpt>
<trkpt lat="45.386821" lon="4.459282"><ele>255.4</ele><time>2008-29-09T10:36:58Z</time></trkpt>
<trkpt lat="45.386845" lon="4.459276"><ele>255.9</ele><time>2008-29-09T10:36:59Z</time></trkpt>
<trkpt lat="45.386866" lon="4.459274"><ele>257</ele><time>2008-29-09T10:37:00Z</time></trkpt>
<trkpt lat="45.386881" lon="4.459273"><ele>257.9</ele><time>2008-29-09T10:37:01Z</time></trkpt>
<trkpt lat="45.386896" lon="4.459277"><ele>258.6</ele><time>2008-29-09T10:37:02Z</time></trkpt>
<trkpt lat="45.386912" lon="4.459279"><ele>261.6</ele><time>2008-29-09T10:37:03Z</time></trkpt>
<trkpt lat="45.386924" lon="4.45927"><ele>262</ele><time>2008-29-09T10:37:04Z</time></trkpt>
<trkpt lat="45.386935" lon="4.459268"><ele>262.6</ele><time>2008-29-09T10:37:05Z</time></trkpt>
<trkpt lat="45.386948" lon="4.459265"><ele>262.6</ele><time>2008-29-09T10:37:06Z</time></trkpt>
<trkpt lat="45.386965" lon="4.45926"><ele>263</ele><time>2008-29-09T10:37:07Z</time></trkpt>
<trkpt lat="45.386985" lon="4.459258"><ele>263.3</ele><time>2008-29-09T10:37:08Z</time></trkpt>
<trkpt lat="45.387" lon="4.459245"><ele>263.1</ele><time>2008-29-09T10:37:09Z</time></trkpt>
<trkpt lat="45.387015" lon="4.459241"><ele>262.2</ele><time>2008-29-09T10:37:10Z</time></trkpt>
<trkpt lat="45.387034" lon="4.459235"><ele>260.9</ele><time>2008-29-09T10:37:11Z</time></trkpt>
<trkpt lat="45.387052" lon="4.459227"><ele>260.5</ele><time>2008-29-09T10:37:12Z</time></trkpt>
<trkpt lat="45.387071" lon="4.459218"><ele>261.2</ele><time>2008-29-09T10:37:13Z</time></trkpt>
<trkpt lat="45.387087" lon="4.459213"><ele>262.8</ele><time>2008-29-09T10:37:14Z</time></trkpt>
<trkpt lat="45.387106" lon="4.459206"><ele>264.1</ele><time>2008-29-09T10:37:15Z</time></trkpt>
<trkpt lat="45.387125" lon="4.459193"><ele>263.5</ele><time>2008-29-09T10:37:16Z</time></trkpt>
<trkpt lat="45.387147" lon="4.459185"><ele>263.7</ele><time>2008-29-09T10:37:17Z</time></trkpt>
<trkpt lat="45.387173" lon="4.459183"><ele>262.8</ele><time>2008-29-09T10:37:18Z</time></trkpt>
<trkpt lat="45.387192" lon="4.459175"><ele>263.7</ele><time>2008-29-09T10:37:19Z</time></trkpt>
<trkpt lat="45.387213" lon="4.459165"><ele>263.2</ele><time>2008-29-09T10:37:20Z</time></trkpt>
<trkpt lat="45.387237" lon="4.459157"><ele>263.5</ele><time>2008-29-09T10:37:21Z</time></trkpt>
<trkpt lat="45.387262" lon="4.459144"><ele>264.2</ele><time>2008-29-09T10:37:22Z</time></trkpt>
<trkpt lat="45.38729" lon="4.459134"><ele>266</ele><time>2008-29-09T10:37:23Z</time></trkpt>
<trkpt lat="45.387312" lon="4.459128"><ele>267.4</ele><time>2008-29-09T10:37:24Z</time></trkpt>
<trkpt lat="45.387339" lon="4.459125"><ele>267.5</ele><time>2008-29-09T10:37:25Z</time></trkpt>
<trkpt lat="45.387367" lon="4.459128"><ele>266.8</ele><time>2008-29-09T10:37:26Z</time></trkpt>
<trkpt lat="45.387395" lon="4.459128"><ele>267.5</ele><time>2008-29-09T10:37:27Z</time></trkpt>
<trkpt lat="45.387423" lon="4.45913"><ele>267.6</ele><time>2008-29-09T10:37:28Z</time></trkpt>
<trkpt lat="45.387448" lon="4.459132"><ele>267.2</ele><time>2008-29-09T10:37:29Z</time></trkpt>
<trkpt lat="45.387475" lon="4.459131"><ele>266.9</ele><time>2008-29-09T10:37:30Z</time></trkpt>
<trkpt lat="45.387503" lon="4.459129"><ele>268.6</ele><time>2008-29-09T10:37:31Z</time></trkpt>
<trkpt lat="45.387524" lon="4.459129"><ele>268.3</ele><time>2008-29-09T10:37:32Z</time></trkpt>
<trkpt lat="45.38755" lon="4.459127"><ele>266.9</ele><time>2008-29-09T10:37:33Z</time></trkpt>
<trkpt lat="45.387574" lon="4.459126"><ele>266.3</ele><time>2008-29-09T10:37:34Z</time></trkpt>
<trkpt lat="45.3876" lon="4.459128"><ele>264</ele><time>2008-29-09T10:37:35Z</time></trkpt>
<trkpt lat="45.387629" lon="4.459135"><ele>263.5</ele><time>2008-29-09T10:37:36Z</time></trkpt>
<trkpt lat="45.387658" lon="4.459139"><ele>262.9</ele><time>2008-29-09T10:37:37Z</time></trkpt>
<trkpt lat="45.387685" lon="4.459149"><ele>263.3</ele><time>2008-29-09T10:37:38Z</time></trkpt>
<trkpt lat="45.387711" lon="4.459154"><ele>264.5</ele><time>2008-29-09T10:37:39Z</time></trkpt>
<trkpt lat="45.387741" lon="4.459158"><ele>265.3</ele><time>2008-29-09T10:37:40Z</time></trkpt>
<trkpt lat="45.387769" lon="4.45916"><ele>264.9</ele><time>2008-29-09T10:37:41Z</time></trkpt>
<trkpt lat="45.387797" lon="4.459169"><ele>264.7</ele><time>2008-29-09T10:37:42Z</time></trkpt>
<trkpt lat="45.387827" lon="4.459178"><ele>263.9</ele><time>2008-29-09T10:37:43Z</time></trkpt>
<trkpt lat="45.387851" lon="4.459189"><ele>262.2</ele><time>2008-29-09T10:37:44Z</time></trkpt>
<trkpt lat="45.387875" lon="4.459195"><ele>262.5</ele><time>2008-29-09T10:37:45Z</time></trkpt>
<trkpt lat="45.387902" lon="4.459202"><ele>263</ele><time>2008-29-09T10:37:46Z</time></trkpt>
<trkpt lat="45.38793" lon="4.459206"><ele>262.9</ele><time>2008-29-09T10:37:47Z</time></trkpt>
<trkpt lat="45.387959" lon="4.459213"><ele>263.6</ele><time>2008-29-09T10:37:48Z</time></trkpt>
<trkpt lat="45.387986" lon="4.459219"><ele>262.6</ele><time>2008-29-09T10:37:49Z</time></trkpt>
<trkpt lat="45.388012" lon="4.459228"><ele>263.3</ele><time>2008-29-09T10:37:50Z</time></trkpt>
<trkpt lat="45.388038" lon="4.459236"><ele>264.3</ele><time>2008-29-09T10:37:51Z</time></trkpt>
<trkpt lat="45.388065" lon="4.459243"><ele>263.8</ele><time>2008-29-09T10:37:52Z</time></trkpt>
<trkpt lat="45.388088" lon="4.459252"><ele>264.9</ele><time>2008-29-09T10:37:53Z</time></trkpt>
<trkpt lat="45.388112" lon="4.459257"><ele>266.4</ele><time>2008-29-09T10:37:54Z</time></trkpt>
<trkpt lat="45.388138" lon="4.459258"><ele>268</ele><time>2008-29-09T10:37:55Z</time></trkpt>
<trkpt lat="45.388164" lon="4.45926"><ele>268.5</ele><time>2008-29-09T10:37:56Z</time></trkpt>
<trkpt lat="45.38819" lon="4.459264"><ele>270.7</ele><time>2008-29-09T10:37:57Z</time></trkpt>
<trkpt lat="45.388214" lon="4.459271"><ele>270.2</ele><time>2008-29-09T10:37:58Z</time></trkpt>
<trkpt lat="45.388239" lon="4.459274"><ele>272.4</ele><time>2008-29-09T10:37:59Z</time></trkpt>
<trkpt lat="45.388256" lon="4.459281"><ele>271.9</ele><time>2008-29-09T10:38:00Z</time></trkpt>
<trkpt lat="45.388277" lon="4.459284"><ele>270.9</ele><time>2008-29-09T10:38:01Z</time></trkpt>
<trkpt lat="45.388297" lon="4.459277"><ele>271.4</ele><time>2008-29-09T10:38:02Z</time></trkpt>
<trkpt lat="45.388316" lon="4.45927"><ele>271.3</ele><time>2008-29-09T10:38:03Z</time></trkpt>
<trkpt lat="45.388337" lon="4.459262"><ele>271.9</ele><time>2008-29-09T10:38:04Z</time></trkpt>
<trkpt lat="45.388362" lon="4.459255"><ele>272.6</ele><time>2008-29-09T10:38:05Z</time></trkpt>
<trkpt lat="45.388386" lon="4.459247"><ele>272</ele><time>2008-29-09T10:38:06Z</time></trkpt>
<trkpt lat="45.38841" lon="4.45924"><ele>273.2</ele><time>2008-29-09T10:38:07Z</time></trkpt>
<trkpt lat="45.388437" lon="4.459229"><ele>274</ele><time>2008-29-09T10:38:08Z</time></trkpt>
<trkpt lat="45.388466" lon="4.459217"><ele>271.8</ele><time>2008-29-09T10:38:09Z</time></trkpt>
<trkpt lat="45.388495" lon="4.459205"><ele>269.5</ele><time>2008-29-09T10:38:10Z</time></trkpt>
<trkpt lat="45.388523" lon="4.45919"><ele>268.2</ele><time>2008-29-09T10:38:11Z</time></trkpt>
<trkpt lat="45.388557" lon="4.459177"><ele>268.1</ele><time>2008-29-09T10:38:12Z</time></trkpt>
<trkpt lat="45.38859" lon="4.459163"><ele>269</ele><time>2008-29-09T10:38:13Z</time></trkpt>
<trkpt lat="45.388622" lon="4.459145"><ele>268.6</ele><time>2008-29-09T10:38:14Z</time></trkpt>
<trkpt lat="45.388658" lon="4.459131"><ele>268.3</ele><time>2008-29-09T10:38:15Z</time></trkpt>
<trkpt lat="45.388698" lon="4.459123"><ele>269.4</ele><time>2008-29-09T10:38:16Z</time></trkpt>
<trkpt lat="45.388757" lon="4.459133"><ele>268.8</ele><time>2008-29-09T10:38:17Z</time></trkpt>
<trkpt lat="45.388816" lon="4.459138"><ele>268.6</ele><time>2008-29-09T10:38:18Z</time></trkpt>
<trkpt lat="45.388871" lon="4.459143"><ele>268.3</ele><time>2008-29-09T10:38:19Z</time></trkpt>
<trkpt lat="45.388925" lon="4.459144"><ele>268.4</ele><time>2008-29-09T10:38:20Z</time></trkpt>
<trkpt lat="45.388977" lon="4.459144"><ele>268.4</ele><time>2008-29-09T10:38:21Z</time></trkpt>
<trkpt lat="45.389033" lon="4.45915"><ele>267.9</ele><time>2008-29-09T10:38:22Z</time></trkpt>
<trkpt lat="45.389086" lon="4.45916"><ele>267.4</ele><time>2008-29-09T10:38:23Z</time></trkpt>
<trkpt lat="45.389137" lon="4.459175"><ele>266.9</ele><time>2008-29-09T10:38:24Z</time></trkpt>
<trkpt lat="45.389187" lon="4.459201"><ele>266.9</ele><time>2008-29-09T10:38:25Z</time></trkpt>
<trkpt lat="45.389228" lon="4.45923"><ele>265.8</ele><time>2008-29-09T10:38:26Z</time></trkpt>
<trkpt lat="45.389273" lon="4.45927"><ele>264.4</ele><time>2008-29-09T10:38:27Z</time></trkpt>
<trkpt lat="45.389313" lon="4.459308"><ele>262.8</ele><time>2008-29-09T10:38:28Z</time></trkpt>
<trkpt lat="45.389353" lon="4.459343"><ele>262.5</ele><time>2008-29-09T10:38:29Z</time></trkpt>
<trkpt lat="45.389399" lon="4.459373"><ele>261.6</ele><time>2008-29-09T10:38:30Z</time></trkpt>
<trkpt lat="45.389439" lon="4.459402"><ele>261.1</ele><time>2008-29-09T10:38:31Z</time></trkpt>
<trkpt lat="45.389479" lon="4.45943"><ele>261</ele><time>2008-29-09T10:38:32Z</time></trkpt>
<trkpt lat="45.389519" lon="4.459462"><ele>260.5</ele><time>2008-29-09T10:38:33Z</time></trkpt>
<trkpt lat="45.389563" lon="4.459497"><ele>260.4</ele><time>2008-29-09T10:38:34Z</time></trkpt>
<trkpt lat="45.389606" lon="4.45953"><ele>261.9</ele><time>2008-29-09T10:38:35Z</time></trkpt>
<trkpt lat="45.389654" lon="4.459569"><ele>257.9</ele><time>2008-29-09T10:38:36Z</time></trkpt>
<trkpt lat="45.389712" lon="4.459616"><ele>256.6</ele><time>2008-29-09T10:38:37Z</time></trkpt>
<trkpt lat="45.389756" lon="4.459645"><ele>257.6</ele><time>2008-29-09T10:38:38Z</time></trkpt>
<trkpt lat="45.389803" lon="4.459676"><ele>258</ele><time>2008-29-09T10:38:39Z</time></trkpt>
<trkpt lat="45.389846" lon="4.459705"><ele>258.9</ele><time>2008-29-09T10:38:40Z</time></trkpt>
<trkpt lat="45.389884" lon="4.459738"><ele>247.9</ele><time>2008-29-09T10:38:41Z</time></trkpt>
<trkpt lat="45.389942" lon="4.459801"><ele>245.7</ele><time>2008-29-09T10:38:42Z</time></trkpt>
<trkpt lat="45.389975" lon="4.459843"><ele>245.6</ele><time>2008-29-09T10:38:43Z</time></trkpt>
<trkpt lat="45.390003" lon="4.459886"><ele>246.2</ele><time>2008-29-09T10:38:44Z</time></trkpt>
<trkpt lat="45.390031" lon="4.459916"><ele>246.4</ele><time>2008-29-09T10:38:45Z</time></trkpt>
<trkpt lat="45.390062" lon="4.459942"><ele>247.4</ele><time>2008-29-09T10:38:46Z</time></trkpt>
<trkpt lat="45.390092" lon="4.459969"><ele>248.7</ele><time>2008-29-09T10:38:47Z</time></trkpt>
<trkpt lat="45.390125" lon="4.459994"><ele>248.8</ele><time>2008-29-09T10:38:48Z</time></trkpt>
<trkpt lat="45.390156" lon="4.460017"><ele>247.5</ele><time>2008-29-09T10:38:49Z</time></trkpt>
<trkpt lat="45.390189" lon="4.460037"><ele>246.3</ele><time>2008-29-09T10:38:50Z</time></trkpt>
<trkpt lat="45.390218" lon="4.460059"><ele>244.1</ele><time>2008-29-09T10:38:51Z</time></trkpt>
<trkpt lat="45.390243" lon="4.460076"><ele>242.1</ele><time>2008-29-09T10:38:52Z</time></trkpt>
<trkpt lat="45.390269" lon="4.460087"><ele>242.1</ele><time>2008-29-09T10:38:53Z</time></trkpt>
<trkpt lat="45.390294" lon="4.460099"><ele>244.9</ele><time>2008-29-09T10:38:54Z</time></trkpt>
<trkpt lat="45.390307" lon="4.46011"><ele>246</ele><time>2008-29-09T10:38:55Z</time></trkpt>
<trkpt lat="45.390316" lon="4.460112"><ele>245.7</ele><time>2008-29-09T10:38:56Z</time></trkpt>
<trkpt lat="45.390329" lon="4.460117"><ele>245.7</ele><time>2008-29-09T10:38:57Z</time></trkpt>
<trkpt lat="45.390329" lon="4.460117"><ele>245.7</ele><time>2008-29-09T10:38:58Z</time></trkpt>
<trkpt lat="45.390329" lon="4.460117"><ele>245.7</ele><time>2008-29-09T10:38:59Z</time></trkpt>
<trkpt lat="45.390329" lon="4.460117"><ele>244.9</ele><time>2008-29-09T10:39:00Z</time></trkpt>
<trkpt lat="45.390326" lon="4.460103"><ele>243.9</ele><time>2008-29-09T10:39:01Z</time></trkpt>
<trkpt lat="45.390338" lon="4.460094"><ele>243.4</ele><time>2008-29-09T10:39:02Z</time></trkpt>
<trkpt lat="45.390353" lon="4.460071"><ele>243.6</ele><time>2008-29-09T10:39:03Z</time></trkpt>
<trkpt lat="45.390357" lon="4.46003"><ele>245</ele><time>2008-29-09T10:39:04Z</time></trkpt>
<trkpt lat="45.390366" lon="4.459987"><ele>244.8</ele><time>2008-29-09T10:39:05Z</time></trkpt>
<trkpt lat="45.390371" lon="4.45994"><ele>244.9</ele><time>2008-29-09T10:39:06Z</time></trkpt>
<trkpt lat="45.390377" lon="4.459893"><ele>245.8</ele><time>2008-29-09T10:39:07Z</time></trkpt>
<trkpt lat="45.390381" lon="4.459845"><ele>245.6</ele><time>2008-29-09T10:39:08Z</time></trkpt>
<trkpt lat="45.390384" lon="4.459797"><ele>245.5</ele><time>2008-29-09T10:39:09Z</time></trkpt>
<trkpt lat="45.390386" lon="4.459747"><ele>246.5</ele><time>2008-29-09T10:39:10Z</time></trkpt>
<trkpt lat="45.390387" lon="4.459701"><ele>247.4</ele><time>2008-29-09T10:39:11Z</time></trkpt>
<trkpt lat="45.390393" lon="4.459651"><ele>247</ele><time>2008-29-09T10:39:12Z</time></trkpt>
<trkpt lat="45.390401" lon="4.459597"><ele>243.3</ele><time>2008-29-09T10:39:13Z</time></trkpt>
<trkpt lat="45.39042" lon="4.45955"><ele>243.1</ele><time>2008-29-09T10:39:14Z</time></trkpt>
<trkpt lat="45.39043" lon="4.459503"><ele>242.9</ele><time>2008-29-09T10:39:15Z</time></trkpt>
<trkpt lat="45.390438" lon="4.459451"><ele>242.4</ele><time>2008-29-09T10:39:16Z</time></trkpt>
<trkpt lat="45.39045" lon="4.459395"><ele>242.5</ele><time>2008-29-09T10:39:17Z</time></trkpt>
<trkpt lat="45.390458" lon="4.459341"><ele>242.5</ele><time>2008-29-09T10:39:18Z</time></trkpt>
<trkpt lat="45.390467" lon="4.459294"><ele>243.1</ele><time>2008-29-09T10:39:19Z</time></trkpt>
<trkpt lat="45.390477" lon="4.459243"><ele>244.5</ele><time>2008-29-09T10:39:20Z</time></trkpt>
<trkpt lat="45.390487" lon="4.45919"><ele>245.3</ele><time>2008-29-09T10:39:21Z</time></trkpt>
<trkpt lat="45.3905" lon="4.459143"><ele>248.3</ele><time>2008-29-09T10:39:22Z</time></trkpt>
<trkpt lat="45.390517" lon="4.459094"><ele>248.3</ele><time>2008-29-09T10:39:23Z</time></trkpt>
<trkpt lat="45.390544" lon="4.459056"><ele>251.1</ele><time>2008-29-09T10:39:24Z</time></trkpt>
<trkpt lat="45.390566" lon="4.459019"><ele>253.2</ele><time>2008-29-09T10:39:25Z</time></trkpt>
<trkpt lat="45.390587" lon="4.45898"><ele>254</ele><time>2008-29-09T10:39:26Z</time></trkpt>
<trkpt lat="45.390607" lon="4.458938"><ele>253.5</ele><time>2008-29-09T10:39:27Z</time></trkpt>
<trkpt lat="45.390624" lon="4.458894"><ele>252.6</ele><time>2008-29-09T10:39:28Z</time></trkpt>
<trkpt lat="45.390638" lon="4.458847"><ele>250.4</ele><time>2008-29-09T10:39:29Z</time></trkpt>
<trkpt lat="45.390648" lon="4.458796"><ele>250</ele><time>2008-29-09T10:39:30Z</time></trkpt>
<trkpt lat="45.390652" lon="4.45875"><ele>249</ele><time>2008-29-09T10:39:31Z</time></trkpt>
<trkpt lat="45.390652" lon="4.458702"><ele>248.3</ele><time>2008-29-09T10:39:32Z</time></trkpt>
<trkpt lat="45.390644" lon="4.458657"><ele>245.8</ele><time>2008-29-09T10:39:33Z</time></trkpt>
<trkpt lat="45.390636" lon="4.458611"><ele>245.8</ele><time>2008-29-09T10:39:34Z</time></trkpt>
<trkpt lat="45.390627" lon="4.458566"><ele>245.5</ele><time>2008-29-09T10:39:35Z</time></trkpt>
<trkpt lat="45.390618" lon="4.458521"><ele>244.5</ele><time>2008-29-09T10:39:36Z</time></trkpt>
<trkpt lat="45.390607" lon="4.458478"><ele>243.8</ele><time>2008-29-09T10:39:37Z</time></trkpt>
<trkpt lat="45.390597" lon="4.458438"><ele>244.4</ele><time>2008-29-09T10:39:38Z</time></trkpt>
<trkpt lat="45.390591" lon="4.458398"><ele>244.8</ele><time>2008-29-09T10:39:39Z</time></trkpt>
<trkpt lat="45.390586" lon="4.458359"><ele>244.9</ele><time>2008-29-09T10:39:40Z</time></trkpt>
<trkpt lat="45.390582" lon="4.458325"><ele>244</ele><time>2008-29-09T10:39:41Z</time></trkpt>
<trkpt lat="45.390578" lon="4.458294"><ele>244.1</ele><time>2008-29-09T10:39:42Z</time></trkpt>
<trkpt lat="45.390578" lon="4.458261"><ele>243.8</ele><time>2008-29-09T10:39:43Z</time></trkpt>
<trkpt lat="45.390577" lon="4.458227"><ele>243.4</ele><time>2008-29-09T10:39:44Z</time></trkpt>
<trkpt lat="45.390578" lon="4.458194"><ele>243.6</ele><time>2008-29-09T10:39:45Z</time></trkpt>
<trkpt lat="45.39058" lon="4.458167"><ele>244.1</ele><time>2008-29-09T10:39:46Z</time></trkpt>
<trkpt lat="45.390586" lon="4.458137"><ele>244.3</ele><time>2008-29-09T10:39:47Z</time></trkpt>
<trkpt lat="45.390594" lon="4.458103"><ele>244.1</ele><time>2008-29-09T10:39:48Z</time></trkpt>
<trkpt lat="45.390599" lon="4.458072"><ele>244.5</ele><time>2008-29-09T10:39:49Z</time></trkpt>
<trkpt lat="45.390603" lon="4.458041"><ele>243.8</ele><time>2008-29-09T10:39:50Z</time></trkpt>
<trkpt lat="45.390607" lon="4.458012"><ele>242.7</ele><time>2008-29-09T10:39:51Z</time></trkpt>
<trkpt lat="45.390608" lon="4.457989"><ele>242.6</ele><time>2008-29-09T10:39:52Z</time></trkpt>
<trkpt lat="45.390613" lon="4.457962"><ele>242.3</ele><time>2008-29-09T10:39:53Z</time></trkpt>
<trkpt lat="45.390622" lon="4.457943"><ele>242.8</ele><time>2008-29-09T10:39:54Z</time></trkpt>
<trkpt lat="45.390631" lon="4.45792"><ele>242.8</ele><time>2008-29-09T10:39:55Z</time></trkpt>
<trkpt lat="45.390638" lon="4.457897"><ele>242.6</ele><time>2008-29-09T10:39:56Z</time></trkpt>
<trkpt lat="45.390645" lon="4.457877"><ele>244.2</ele><time>2008-29-09T10:39:57Z</time></trkpt>
<trkpt lat="45.390654" lon="4.45785"><ele>245.1</ele><time>2008-29-09T10:39:58Z</time></trkpt>
<trkpt lat="45.390662" lon="4.457828"><ele>245.6</ele><time>2008-29-09T10:39:59Z</time></trkpt>
<trkpt lat="45.390672" lon="4.457809"><ele>245.5</ele><time>2008-29-09T10:40:00Z</time></trkpt>
<trkpt lat="45.390682" lon="4.457786"><ele>246.6</ele><time>2008-29-09T10:40:01Z</time></trkpt>
<trkpt lat="45.390694" lon="4.457765"><ele>246.8</ele><time>2008-29-09T10:40:02Z</time></trkpt>
<trkpt lat="45.390705" lon="4.457745"><ele>248.6</ele><time>2008-29-09T10:40:03Z</time></trkpt>
<trkpt lat="45.390718" lon="4.457721"><ele>250.6</ele><time>2008-29-09T10:40:04Z</time></trkpt>
<trkpt lat="45.390731" lon="4.457696"><ele>252.3</ele><time>2008-29-09T10:40:05Z</time></trkpt>
<trkpt lat="45.390741" lon="4.457673"><ele>254</ele><time>2008-29-09T10:40:06Z</time></trkpt>
<trkpt lat="45.390754" lon="4.457643"><ele>254.6</ele><time>2008-29-09T10:40:07Z</time></trkpt>
<trkpt lat="45.390765" lon="4.457619"><ele>254.9</ele><time>2008-29-09T10:40:08Z</time></trkpt>
<trkpt lat="45.390775" lon="4.457594"><ele>254.7</ele><time>2008-29-09T10:40:09Z</time></trkpt>
<trkpt lat="45.390783" lon="4.457571"><ele>257.5</ele><time>2008-29-09T10:40:10Z</time></trkpt>
<trkpt lat="45.390786" lon="4.45754"><ele>260.2</ele><time>2008-29-09T10:40:11Z</time></trkpt>
<trkpt lat="45.390794" lon="4.457512"><ele>262.5</ele><time>2008-29-09T10:40:12Z</time></trkpt>
<trkpt lat="45.390806" lon="4.457485"><ele>264.5</ele><time>2008-29-09T10:40:13Z</time></trkpt>
<trkpt lat="45.390812" lon="4.45746"><ele>264.1</ele><time>2008-29-09T10:40:14Z</time></trkpt>
<trkpt lat="45.390818" lon="4.457433"><ele>263.2</ele><time>2008-29-09T10:40:15Z</time></trkpt>
<trkpt lat="45.390825" lon="4.457408"><ele>262.5</ele><time>2008-29-09T10:40:16Z</time></trkpt>
<trkpt lat="45.390832" lon="4.457379"><ele>261.3</ele><time>2008-29-09T10:40:17Z</time></trkpt>
<trkpt lat="45.390839" lon="4.457358"><ele>261.9</ele><time>2008-29-09T10:40:18Z</time></trkpt>
<trkpt lat="45.390844" lon="4.457341"><ele>260.9</ele><time>2008-29-09T10:40:19Z</time></trkpt>
<trkpt lat="45.390851" lon="4.457318"><ele>261</ele><time>2008-29-09T10:40:20Z</time></trkpt>
<trkpt lat="45.390859" lon="4.457299"><ele>261.1</ele><time>2008-29-09T10:40:21Z</time></trkpt>
<trkpt lat="45.390863" lon="4.457273"><ele>261.1</ele><time>2008-29-09T10:40:22Z</time></trkpt>
<trkpt lat="45.390865" lon="4.457246"><ele>259.6</ele><time>2008-29-09T10:40:23Z</time></trkpt>
<trkpt lat="45.39087" lon="4.457223"><ele>259.5</ele><time>2008-29-09T10:40:24Z</time></trkpt>
<trkpt lat="45.390872" lon="4.457203"><ele>259.2</ele><time>2008-29-09T10:40:25Z</time></trkpt>
<trkpt lat="45.390875" lon="4.457178"><ele>260.3</ele><time>2008-29-09T10:40:26Z</time></trkpt>
<trkpt lat="45.390875" lon="4.457156"><ele>259.2</ele><time>2008-29-09T10:40:27Z</time></trkpt>
<trkpt lat="45.390878" lon="4.457129"><ele>259.3</ele><time>2008-29-09T10:40:28Z</time></trkpt>
<trkpt lat="45.390885" lon="4.457098"><ele>259</ele><time>2008-29-09T10:40:29Z</time></trkpt>
<trkpt lat="45.390893" lon="4.457075"><ele>258.2</ele><time>2008-29-09T10:40:30Z</time></trkpt>
<trkpt lat="45.390899" lon="4.457048"><ele>256.5</ele><time>2008-29-09T10:40:31Z</time></trkpt>
<trkpt lat="45.390906" lon="4.457023"><ele>255.8</ele><time>2008-29-09T10:40:32Z</time></trkpt>
<trkpt lat="45.390914" lon="4.456996"><ele>256.1</ele><time>2008-29-09T10:40:33Z</time></trkpt>
<trkpt lat="45.390922" lon="4.456966"><ele>255.9</ele><time>2008-29-09T10:40:34Z</time></trkpt>
<trkpt lat="45.390932" lon="4.456934"><ele>257.5</ele><time>2008-29-09T10:40:35Z</time></trkpt>
<trkpt lat="45.39094" lon="4.4569"><ele>258.1</ele><time>2008-29-09T10:40:36Z</time></trkpt>
<trkpt lat="45.39095" lon="4.456864"><ele>257.9</ele><time>2008-29-09T10:40:37Z</time></trkpt>
<trkpt lat="45.390958" lon="4.456832"><ele>257.3</ele><time>2008-29-09T10:40:38Z</time></trkpt>
<trkpt lat="45.390965" lon="4.456797"><ele>256</ele><time>2008-29-09T10:40:39Z</time></trkpt>
<trkpt lat="45.390975" lon="4.456765"><ele>256.4</ele><time>2008-29-09T10:40:40Z</time></trkpt>
<trkpt lat="45.390981" lon="4.456731"><ele>257</ele><time>2008-29-09T10:40:41Z</time></trkpt>
<trkpt lat="45.390988" lon="4.456695"><ele>255.7</ele><time>2008-29-09T10:40:42Z</time></trkpt>
<trkpt lat="45.390995" lon="4.456657"><ele>257.2</ele><time>2008-29-09T10:40:43Z</time></trkpt>
<trkpt lat="45.391" lon="4.456619"><ele>260</ele><time>2008-29-09T10:40:44Z</time></trkpt>
<trkpt lat="45.391004" lon="4.456584"><ele>259.1</ele><time>2008-29-09T10:40:45Z</time></trkpt>
<trkpt lat="45.391009" lon="4.456549"><ele>259.7</ele><time>2008-29-09T10:40:46Z</time></trkpt>
<trkpt lat="45.391016" lon="4.45651"><ele>259.6</ele><time>2008-29-09T10:40:47Z</time></trkpt>
<trkpt lat="45.391024" lon="4.45647"><ele>258.7</ele><time>2008-29-09T10:40:48Z</time></trkpt>
<trkpt lat="45.39103" lon="4.456434"><ele>259.3</ele><time>2008-29-09T10:40:49Z</time></trkpt>
<trkpt lat="45.391038" lon="4.456397"><ele>259.6</ele><time>2008-29-09T10:40:50Z</time></trkpt>
<trkpt lat="45.391045" lon="4.456362"><ele>259.5</ele><time>2008-29-09T10:40:51Z</time></trkpt>
<trkpt lat="45.391052" lon="4.456326"><ele>260</ele><time>2008-29-09T10:40:52Z</time></trkpt>
<trkpt lat="45.391059" lon="4.456288"><ele>259.5</ele><time>2008-29-09T10:40:53Z</time></trkpt>
<trkpt lat="45.391066" lon="4.456252"><ele>260.3</ele><time>2008-29-09T10:40:54Z</time></trkpt>
<trkpt lat="45.391073" lon="4.456217"><ele>260.2</ele><time>2008-29-09T10:40:55Z</time></trkpt>
<trkpt lat="45.39108" lon="4.456181"><ele>260.4</ele><time>2008-29-09T10:40:56Z</time></trkpt>
<trkpt lat="45.391086" lon="4.456142"><ele>260.3</ele><time>2008-29-09T10:40:57Z</time></trkpt>
<trkpt lat="45.39109" lon="4.456103"><ele>259.7</ele><time>2008-29-09T10:40:58Z</time></trkpt>
<trkpt lat="45.391096" lon="4.456066"><ele>260.1</ele><time>2008-29-09T10:40:59Z</time></trkpt>
<trkpt lat="45.391101" lon="4.456028"><ele>260.8</ele><time>2008-29-09T10:41:00Z</time></trkpt>
<trkpt lat="45.391102" lon="4.455991"><ele>260.7</ele><time>2008-29-09T10:41:01Z</time></trkpt>
<trkpt lat="45.391104" lon="4.45595"><ele>259.7</ele><time>2008-29-09T10:41:02Z</time></trkpt>
<trkpt lat="45.391107" lon="4.455914"><ele>258.8</ele><time>2008-29-09T10:41:03Z</time></trkpt>
<trkpt lat="45.391109" lon="4.455876"><ele>257.9</ele><time>2008-29-09T10:41:04Z</time></trkpt>
<trkpt lat="45.391112" lon="4.455838"><ele>257.4</ele><time>2008-29-09T10:41:05Z</time></trkpt>
<trkpt lat="45.391112" lon="4.455801"><ele>258</ele><time>2008-29-09T10:41:06Z</time></trkpt>
<trkpt lat="45.391115" lon="4.455761"><ele>257.9</ele><time>2008-29-09T10:41:07Z</time></trkpt>
<trkpt lat="45.391113" lon="4.455724"><ele>257</ele><time>2008-29-09T10:41:08Z</time></trkpt>
<trkpt lat="45.391114" lon="4.455686"><ele>256</ele><time>2008-29-09T10:41:09Z</time></trkpt>
<trkpt lat="45.391113" lon="4.455646"><ele>254.7</ele><time>2008-29-09T10:41:10Z</time></trkpt>
<trkpt lat="45.391118" lon="4.45561"><ele>253.8</ele><time>2008-29-09T10:41:11Z</time></trkpt>
<trkpt lat="45.391123" lon="4.455574"><ele>253.1</ele><time>2008-29-09T10:41:12Z</time></trkpt>
<trkpt lat="45.391126" lon="4.455536"><ele>252.6</ele><time>2008-29-09T10:41:13Z</time></trkpt>
<trkpt lat="45.391129" lon="4.455493"><ele>253.2</ele><time>2008-29-09T10:41:14Z</time></trkpt>
<trkpt lat="45.391133" lon="4.455456"><ele>253.8</ele><time>2008-29-09T10:41:15Z</time></trkpt>
<trkpt lat="45.391135" lon="4.455421"><ele>253.8</ele><time>2008-29-09T10:41:16Z</time></trkpt>
<trkpt lat="45.391136" lon="4.455388"><ele>253.6</ele><time>2008-29-09T10:41:17Z</time></trkpt>
<trkpt lat="45.391141" lon="4.455354"><ele>253</ele><time>2008-29-09T10:41:18Z</time></trkpt>
<trkpt lat="45.391146" lon="4.455324"><ele>254.4</ele><time>2008-29-09T10:41:19Z</time></trkpt>
<trkpt lat="45.391157" lon="4.455294"><ele>255.6</ele><time>2008-29-09T10:41:20Z</time></trkpt>
<trkpt lat="45.391167" lon="4.455267"><ele>254.7</ele><time>2008-29-09T10:41:21Z</time></trkpt>
<trkpt lat="45.391181" lon="4.455249"><ele>254.7</ele><time>2008-29-09T10:41:22Z</time></trkpt>
<trkpt lat="45.391197" lon="4.455244"><ele>256</ele><time>2008-29-09T10:41:23Z</time></trkpt>
<trkpt lat="45.391218" lon="4.455233"><ele>257.9</ele><time>2008-29-09T10:41:24Z</time></trkpt>
<trkpt lat="45.391243" lon="4.455232"><ele>259.8</ele><time>2008-29-09T10:41:25Z</time></trkpt>
<trkpt lat="45.391269" lon="4.45523"><ele>259.2</ele><time>2008-29-09T10:41:26Z</time></trkpt>
<trkpt lat="45.391295" lon="4.455228"><ele>259.9</ele><time>2008-29-09T10:41:27Z</time></trkpt>
<trkpt lat="45.391321" lon="4.455232"><ele>260.2</ele><time>2008-29-09T10:41:28Z</time></trkpt>
<trkpt lat="45.391348" lon="4.455241"><ele>259.3</ele><time>2008-29-09T10:41:29Z</time></trkpt>
<trkpt lat="45.391376" lon="4.455252"><ele>258.8</ele><time>2008-29-09T10:41:30Z</time></trkpt>
<trkpt lat="45.391401" lon="4.45526"><ele>258.3</ele><time>2008-29-09T10:41:31Z</time></trkpt>
<trkpt lat="45.391423" lon="4.455269"><ele>258.5</ele><time>2008-29-09T10:41:32Z</time></trkpt>
<trkpt lat="45.39145" lon="4.455279"><ele>259.4</ele><time>2008-29-09T10:41:33Z</time></trkpt>
<trkpt lat="45.391475" lon="4.455286"><ele>259.5</ele><time>2008-29-09T10:41:34Z</time></trkpt>
<trkpt lat="45.391504" lon="4.455291"><ele>259.7</ele><time>2008-29-09T10:41:35Z</time></trkpt>
<trkpt lat="45.39153" lon="4.4553"><ele>260.5</ele><time>2008-29-09T10:41:36Z</time></trkpt>
<trkpt lat="45.391557" lon="4.455303"><ele>262</ele><time>2008-29-09T10:41:37Z</time></trkpt>
<trkpt lat="45.391584" lon="4.455306"><ele>263.1</ele><time>2008-29-09T10:41:38Z</time></trkpt>
<trkpt lat="45.391612" lon="4.455314"><ele>263.4</ele><time>2008-29-09T10:41:39Z</time></trkpt>
<trkpt lat="45.39164" lon="4.455322"><ele>268</ele><time>2008-29-09T10:41:40Z</time></trkpt>
<trkpt lat="45.391659" lon="4.455329"><ele>262.6</ele><time>2008-29-09T10:41:41Z</time></trkpt>
<trkpt lat="45.39168" lon="4.455367"><ele>263.1</ele><time>2008-29-09T10:41:42Z</time></trkpt>
<trkpt lat="45.3917" lon="4.455387"><ele>264.4</ele><time>2008-29-09T10:41:43Z</time></trkpt>
<trkpt lat="45.391719" lon="4.455399"><ele>258.6</ele><time>2008-29-09T10:41:44Z</time></trkpt>
<trkpt lat="45.391742" lon="4.455433"><ele>253.2</ele><time>2008-29-09T10:41:45Z</time></trkpt>
<trkpt lat="45.39177" lon="4.455441"><ele>251</ele><time>2008-29-09T10:41:46Z</time></trkpt>
<trkpt lat="45.391794" lon="4.455462"><ele>252.1</ele><time>2008-29-09T10:41:47Z</time></trkpt>
<trkpt lat="45.391813" lon="4.455475"><ele>252.5</ele><time>2008-29-09T10:41:48Z</time></trkpt>
<trkpt lat="45.391828" lon="4.455484"><ele>252.4</ele><time>2008-29-09T10:41:49Z</time></trkpt>
<trkpt lat="45.391833" lon="4.455486"><ele>252.8</ele><time>2008-29-09T10:41:50Z</time></trkpt>
<trkpt lat="45.391838" lon="4.455489"><ele>252.9</ele><time>2008-29-09T10:41:51Z</time></trkpt>
<trkpt lat="45.391844" lon="4.455488"><ele>252.9</ele><time>2008-29-09T10:41:52Z</time></trkpt>
<trkpt lat="45.391844" lon="4.455488"><ele>252.9</ele><time>2008-29-09T10:41:53Z</time></trkpt>
<trkpt lat="45.391844" lon="4.455488"><ele>252.9</ele><time>2008-29-09T10:41:54Z</time></trkpt>
<trkpt lat="45.391844" lon="4.455488"><ele>252.9</ele><time>2008-29-09T10:41:55Z</time></trkpt>
<trkpt lat="45.391844" lon="4.455488"><ele>252.9</ele><time>2008-29-09T10:41:56Z</time></trkpt>
<trkpt lat="45.391844" lon="4.455488"><ele>252.9</ele><time>2008-29-09T10:41:57Z</time></trkpt>
<trkpt lat="45.391844" lon="4.455488"><ele>252.9</ele><time>2008-29-09T10:41:58Z</time></trkpt>
<trkpt lat="45.391844" lon="4.455488"><ele>252.9</ele><time>2008-29-09T10:41:59Z</time></trkpt>
<trkpt lat="45.391844" lon="4.455488"><ele>252.9</ele><time>2008-29-09T10:42:00Z</time></trkpt>
<trkpt lat="45.391844" lon="4.455488"><ele>252.9</ele><time>2008-29-09T10:42:01Z</time></trkpt>
<trkpt lat="45.391844" lon="4.455488"><ele>252.9</ele><time>2008-29-09T10:42:02Z</time></trkpt>
<trkpt lat="45.391844" lon="4.455488"><ele>252.9</ele><time>2008-29-09T10:42:03Z</time></trkpt>
<trkpt lat="45.391844" lon="4.455488"><ele>252.9</ele><time>2008-29-09T10:42:04Z</time></trkpt>
<trkpt lat="45.391844" lon="4.455488"><ele>252.9</ele><time>2008-29-09T10:42:05Z</time></trkpt>
<trkpt lat="45.391844" lon="4.455488"><ele>252.9</ele><time>2008-29-09T10:42:06Z</time></trkpt>
<trkpt lat="45.391844" lon="4.455488"><ele>252.9</ele><time>2008-29-09T10:42:07Z</time></trkpt>
<trkpt lat="45.391844" lon="4.455488"><ele>252.9</ele><time>2008-29-09T10:42:08Z</time></trkpt>
<trkpt lat="45.391844" lon="4.455488"><ele>252.9</ele><time>2008-29-09T10:42:09Z</time></trkpt>
<trkpt lat="45.391844" lon="4.455488"><ele>252.9</ele><time>2008-29-09T10:42:10Z</time></trkpt>
<trkpt lat="45.391844" lon="4.455488"><ele>252.9</ele><time>2008-29-09T10:42:11Z</time></trkpt>
<trkpt lat="45.391844" lon="4.455488"><ele>252.9</ele><time>2008-29-09T10:42:12Z</time></trkpt>
<trkpt lat="45.391844" lon="4.455488"><ele>252.9</ele><time>2008-29-09T10:42:13Z</time></trkpt>
<trkpt lat="45.391844" lon="4.455488"><ele>252.9</ele><time>2008-29-09T10:42:14Z</time></trkpt>
<trkpt lat="45.391844" lon="4.455488"><ele>252.9</ele><time>2008-29-09T10:42:15Z</time></trkpt>
<trkpt lat="45.391844" lon="4.455488"><ele>252.9</ele><time>2008-29-09T10:42:16Z</time></trkpt>
<trkpt lat="45.391844" lon="4.455488"><ele>252.9</ele><time>2008-29-09T10:42:17Z</time></trkpt>
<trkpt lat="45.391844" lon="4.455488"><ele>253</ele><time>2008-29-09T10:42:18Z</time></trkpt>
<trkpt lat="45.39185" lon="4.455486"><ele>253.2</ele><time>2008-29-09T10:42:19Z</time></trkpt>
<trkpt lat="45.391857" lon="4.455484"><ele>255.2</ele><time>2008-29-09T10:42:20Z</time></trkpt>
<trkpt lat="45.391871" lon="4.455475"><ele>257.4</ele><time>2008-29-09T10:42:21Z</time></trkpt>
<trkpt lat="45.391882" lon="4.455472"><ele>258.7</ele><time>2008-29-09T10:42:22Z</time></trkpt>
<trkpt lat="45.391895" lon="4.455476"><ele>260.3</ele><time>2008-29-09T10:42:23Z</time></trkpt>
<trkpt lat="45.391913" lon="4.45548"><ele>261.9</ele><time>2008-29-09T10:42:24Z</time></trkpt>
<trkpt lat="45.391933" lon="4.455481"><ele>263.9</ele><time>2008-29-09T10:42:25Z</time></trkpt>
<trkpt lat="45.391956" lon="4.455488"><ele>265.7</ele><time>2008-29-09T10:42:26Z</time></trkpt>
<trkpt lat="45.391978" lon="4.455498"><ele>255.8</ele><time>2008-29-09T10:42:27Z</time></trkpt>
<trkpt lat="45.392007" lon="4.455537"><ele>252.9</ele><time>2008-29-09T10:42:28Z</time></trkpt>
<trkpt lat="45.392032" lon="4.455563"><ele>252.3</ele><time>2008-29-09T10:42:29Z</time></trkpt>
<trkpt lat="45.392056" lon="4.455581"><ele>252</ele><time>2008-29-09T10:42:30Z</time></trkpt>
<trkpt lat="45.392077" lon="4.455601"><ele>251.1</ele><time>2008-29-09T10:42:31Z</time></trkpt>
<trkpt lat="45.392096" lon="4.455621"><ele>248.6</ele><time>2008-29-09T10:42:32Z</time></trkpt>
<trkpt lat="45.392115" lon="4.455649"><ele>247</ele><time>2008-29-09T10:42:33Z</time></trkpt>
<trkpt lat="45.392134" lon="4.455669"><ele>246.3</ele><time>2008-29-09T10:42:34Z</time></trkpt>
<trkpt lat="45.392155" lon="4.45568"><ele>248</ele><time>2008-29-09T10:42:35Z</time></trkpt>
<trkpt lat="45.392177" lon="4.455695"><ele>248.5</ele><time>2008-29-09T10:42:36Z</time></trkpt>
<trkpt lat="45.392198" lon="4.455711"><ele>248.1</ele><time>2008-29-09T10:42:37Z</time></trkpt>
<trkpt lat="45.392222" lon="4.455728"><ele>247.9</ele><time>2008-29-09T10:42:38Z</time></trkpt>
<trkpt lat="45.392247" lon="4.455747"><ele>248.3</ele><time>2008-29-09T10:42:39Z</time></trkpt>
<trkpt lat="45.39227" lon="4.455757"><ele>248.3</ele><time>2008-29-09T10:42:40Z</time></trkpt>
<trkpt lat="45.392289" lon="4.455773"><ele>248.2</ele><time>2008-29-09T10:42:41Z</time></trkpt>
<trkpt lat="45.39231" lon="4.455792"><ele>247.4</ele><time>2008-29-09T10:42:42Z</time></trkpt>
<trkpt lat="45.392326" lon="4.45581"><ele>248.8</ele><time>2008-29-09T10:42:43Z</time></trkpt>
<trkpt lat="45.392336" lon="4.455827"><ele>250</ele><time>2008-29-09T10:42:44Z</time></trkpt>
<trkpt lat="45.392342" lon="4.455843"><ele>252.2</ele><time>2008-29-09T10:42:45Z</time></trkpt>
<trkpt lat="45.392342" lon="4.455854"><ele>252.8</ele><time>2008-29-09T10:42:46Z</time></trkpt>
<trkpt lat="45.392346" lon="4.455863"><ele>252.9</ele><time>2008-29-09T10:42:47Z</time></trkpt>
<trkpt lat="45.392349" lon="4.455871"><ele>252.9</ele><time>2008-29-09T10:42:48Z</time></trkpt>
<trkpt lat="45.392349" lon="4.455871"><ele>252.9</ele><time>2008-29-09T10:42:49Z</time></trkpt>
<trkpt lat="45.392349" lon="4.455871"><ele>252.9</ele><time>2008-29-09T10:42:50Z</time></trkpt>
<trkpt lat="45.392349" lon="4.455871"><ele>252.9</ele><time>2008-29-09T10:42:51Z</time></trkpt>
<trkpt lat="45.392349" lon="4.455871"><ele>252.9</ele><time>2008-29-09T10:42:52Z</time></trkpt>
<trkpt lat="45.392349" lon="4.455871"><ele>252.9</ele><time>2008-29-09T10:42:53Z</time></trkpt>
<trkpt lat="45.392349" lon="4.455871"><ele>252.9</ele><time>2008-29-09T10:42:54Z</time></trkpt>
<trkpt lat="45.392349" lon="4.455871"><ele>252.9</ele><time>2008-29-09T10:42:55Z</time></trkpt>
<trkpt lat="45.392349" lon="4.455871"><ele>252.9</ele><time>2008-29-09T10:42:56Z</time></trkpt>
<trkpt lat="45.392349" lon="4.455871"><ele>252.9</ele><time>2008-29-09T10:42:57Z</time></trkpt>
<trkpt lat="45.392349" lon="4.455871"><ele>252.9</ele><time>2008-29-09T10:42:58Z</time></trkpt>
<trkpt lat="45.392349" lon="4.455871"><ele>252.9</ele><time>2008-29-09T10:42:59Z</time></trkpt>
<trkpt lat="45.392349" lon="4.455871"><ele>252.9</ele><time>2008-29-09T10:43:00Z</time></trkpt>
<trkpt lat="45.392349" lon="4.455871"><ele>252.9</ele><time>2008-29-09T10:43:01Z</time></trkpt>
<trkpt lat="45.392349" lon="4.455871"><ele>252.9</ele><time>2008-29-09T10:43:02Z</time></trkpt>
<trkpt lat="45.392349" lon="4.455871"><ele>252.9</ele><time>2008-29-09T10:43:03Z</time></trkpt>
<trkpt lat="45.392349" lon="4.455871"><ele>252.9</ele><time>2008-29-09T10:43:04Z</time></trkpt>
<trkpt lat="45.392349" lon="4.455871"><ele>252.9</ele><time>2008-29-09T10:43:05Z</time></trkpt>
<trkpt lat="45.392349" lon="4.455871"><ele>252.9</ele><time>2008-29-09T10:43:06Z</time></trkpt>
<trkpt lat="45.392349" lon="4.455871"><ele>252.9</ele><time>2008-29-09T10:43:07Z</time></trkpt>
<trkpt lat="45.392349" lon="4.455871"><ele>252.9</ele><time>2008-29-09T10:43:08Z</time></trkpt>
<trkpt lat="45.392349" lon="4.455871"><ele>252.9</ele><time>2008-29-09T10:43:09Z</time></trkpt>
<trkpt lat="45.392349" lon="4.455871"><ele>252.9</ele><time>2008-29-09T10:43:10Z</time></trkpt>
<trkpt lat="45.392349" lon="4.455871"><ele>252.9</ele><time>2008-29-09T10:43:11Z</time></trkpt>
<trkpt lat="45.392349" lon="4.455871"><ele>252.9</ele><time>2008-29-09T10:43:12Z</time></trkpt>
<trkpt lat="45.392349" lon="4.455871"><ele>252.9</ele><time>2008-29-09T10:43:13Z</time></trkpt>
<trkpt lat="45.392349" lon="4.455871"><ele>252.9</ele><time>2008-29-09T10:43:14Z</time></trkpt>
<trkpt lat="45.392349" lon="4.455871"><ele>252.9</ele><time>2008-29-09T10:43:15Z</time></trkpt>
<trkpt lat="45.392349" lon="4.455871"><ele>252.9</ele><time>2008-29-09T10:43:16Z</time></trkpt>
<trkpt lat="45.392349" lon="4.455871"><ele>252.9</ele><time>2008-29-09T10:43:17Z</time></trkpt>
<trkpt lat="45.392349" lon="4.455871"><ele>252.9</ele><time>2008-29-09T10:43:18Z</time></trkpt>
<trkpt lat="45.392349" lon="4.455871"><ele>252.9</ele><time>2008-29-09T10:43:19Z</time></trkpt>
<trkpt lat="45.392349" lon="4.455871"><ele>256.4</ele><time>2008-29-09T10:43:20Z</time></trkpt>
<trkpt lat="45.39235" lon="4.45586"><ele>258.8</ele><time>2008-29-09T10:43:21Z</time></trkpt>
<trkpt lat="45.392354" lon="4.455856"><ele>257</ele><time>2008-29-09T10:43:22Z</time></trkpt>
<trkpt lat="45.392365" lon="4.455859"><ele>256.7</ele><time>2008-29-09T10:43:23Z</time></trkpt>
<trkpt lat="45.392381" lon="4.455861"><ele>258.6</ele><time>2008-29-09T10:43:24Z</time></trkpt>
<trkpt lat="45.392396" lon="4.45587"><ele>258.3</ele><time>2008-29-09T10:43:25Z</time></trkpt>
<trkpt lat="45.392409" lon="4.455886"><ele>257.5</ele><time>2008-29-09T10:43:26Z</time></trkpt>
<trkpt lat="45.392426" lon="4.455903"><ele>256.3</ele><time>2008-29-09T10:43:27Z</time></trkpt>
<trkpt lat="45.392443" lon="4.45592"><ele>256.1</ele><time>2008-29-09T10:43:28Z</time></trkpt>
<trkpt lat="45.39246" lon="4.455938"><ele>256.1</ele><time>2008-29-09T10:43:29Z</time></trkpt>
<trkpt lat="45.392476" lon="4.455958"><ele>256.1</ele><time>2008-29-09T10:43:30Z</time></trkpt>
<trkpt lat="45.392495" lon="4.45597"><ele>255.4</ele><time>2008-29-09T10:43:31Z</time></trkpt>
<trkpt lat="45.392517" lon="4.455988"><ele>256</ele><time>2008-29-09T10:43:32Z</time></trkpt>
<trkpt lat="45.392539" lon="4.456012"><ele>256.9</ele><time>2008-29-09T10:43:33Z</time></trkpt>
<trkpt lat="45.392562" lon="4.456035"><ele>256.9</ele><time>2008-29-09T10:43:34Z</time></trkpt>
<trkpt lat="45.392587" lon="4.456057"><ele>256.7</ele><time>2008-29-09T10:43:35Z</time></trkpt>
<trkpt lat="45.392613" lon="4.456076"><ele>257.2</ele><time>2008-29-09T10:43:36Z</time></trkpt>
<trkpt lat="45.392639" lon="4.456097"><ele>258.7</ele><time>2008-29-09T10:43:37Z</time></trkpt>
<trkpt lat="45.392664" lon="4.456113"><ele>258.7</ele><time>2008-29-09T10:43:38Z</time></trkpt>
<trkpt lat="45.392688" lon="4.456134"><ele>259.1</ele><time>2008-29-09T10:43:39Z</time></trkpt>
<trkpt lat="45.392714" lon="4.456148"><ele>258.9</ele><time>2008-29-09T10:43:40Z</time></trkpt>
<trkpt lat="45.392739" lon="4.456169"><ele>258.1</ele><time>2008-29-09T10:43:41Z</time></trkpt>
<trkpt lat="45.392766" lon="4.456191"><ele>258.8</ele><time>2008-29-09T10:43:42Z</time></trkpt>
<trkpt lat="45.392793" lon="4.456214"><ele>258.5</ele><time>2008-29-09T10:43:43Z</time></trkpt>
<trkpt lat="45.392815" lon="4.456235"><ele>258.6</ele><time>2008-29-09T10:43:44Z</time></trkpt>
<trkpt lat="45.392838" lon="4.456259"><ele>258.2</ele><time>2008-29-09T10:43:45Z</time></trkpt>
<trkpt lat="45.392864" lon="4.456282"><ele>257.2</ele><time>2008-29-09T10:43:46Z</time></trkpt>
<trkpt lat="45.392888" lon="4.456305"><ele>254</ele><time>2008-29-09T10:43:47Z</time></trkpt>
<trkpt lat="45.392907" lon="4.456329"><ele>252.2</ele><time>2008-29-09T10:43:48Z</time></trkpt>
<trkpt lat="45.392928" lon="4.456353"><ele>251.1</ele><time>2008-29-09T10:43:49Z</time></trkpt>
<trkpt lat="45.392946" lon="4.456373"><ele>249.8</ele><time>2008-29-09T10:43:50Z</time></trkpt>
<trkpt lat="45.392967" lon="4.456394"><ele>250</ele><time>2008-29-09T10:43:51Z</time></trkpt>
<trkpt lat="45.392988" lon="4.456414"><ele>248.2</ele><time>2008-29-09T10:43:52Z</time></trkpt>
<trkpt lat="45.393012" lon="4.456438"><ele>249</ele><time>2008-29-09T10:43:53Z</time></trkpt>
<trkpt lat="45.393034" lon="4.456454"><ele>250.2</ele><time>2008-29-09T10:43:54Z</time></trkpt>
<trkpt lat="45.393057" lon="4.456473"><ele>250.2</ele><time>2008-29-09T10:43:55Z</time></trkpt>
<trkpt lat="45.393081" lon="4.456497"><ele>251.5</ele><time>2008-29-09T10:43:56Z</time></trkpt>
<trkpt lat="45.393104" lon="4.456519"><ele>252.6</ele><time>2008-29-09T10:43:57Z</time></trkpt>
<trkpt lat="45.393127" lon="4.456539"><ele>250.8</ele><time>2008-29-09T10:43:58Z</time></trkpt>
<trkpt lat="45.39315" lon="4.456563"><ele>249.9</ele><time>2008-29-09T10:43:59Z</time></trkpt>
<trkpt lat="45.393172" lon="4.45659"><ele>249.7</ele><time>2008-29-09T10:44:00Z</time></trkpt>
<trkpt lat="45.393192" lon="4.456606"><ele>248.6</ele><time>2008-29-09T10:44:01Z</time></trkpt>
<trkpt lat="45.393212" lon="4.456616"><ele>250.1</ele><time>2008-29-09T10:44:02Z</time></trkpt>
<trkpt lat="45.393225" lon="4.456638"><ele>250.6</ele><time>2008-29-09T10:44:03Z</time></trkpt>
<trkpt lat="45.393246" lon="4.456646"><ele>251.3</ele><time>2008-29-09T10:44:04Z</time></trkpt>
<trkpt lat="45.393269" lon="4.456652"><ele>252.5</ele><time>2008-29-09T10:44:05Z</time></trkpt>
<trkpt lat="45.39329" lon="4.45665"><ele>252</ele><time>2008-29-09T10:44:06Z</time></trkpt>
<trkpt lat="45.393305" lon="4.45663"><ele>251.1</ele><time>2008-29-09T10:44:07Z</time></trkpt>
<trkpt lat="45.393334" lon="4.456625"><ele>251.8</ele><time>2008-29-09T10:44:08Z</time></trkpt>
<trkpt lat="45.393369" lon="4.456621"><ele>253.4</ele><time>2008-29-09T10:44:09Z</time></trkpt>
<trkpt lat="45.393407" lon="4.456608"><ele>254.8</ele><time>2008-29-09T10:44:10Z</time></trkpt>
<trkpt lat="45.393444" lon="4.456595"><ele>255.4</ele><time>2008-29-09T10:44:11Z</time></trkpt>
<trkpt lat="45.393487" lon="4.45658"><ele>256.1</ele><time>2008-29-09T10:44:12Z</time></trkpt>
<trkpt lat="45.393526" lon="4.456563"><ele>258.3</ele><time>2008-29-09T10:44:13Z</time></trkpt>
<trkpt lat="45.393564" lon="4.456543"><ele>259.9</ele><time>2008-29-09T10:44:14Z</time></trkpt>
<trkpt lat="45.3936" lon="4.456524"><ele>261.1</ele><time>2008-29-09T10:44:15Z</time></trkpt>
<trkpt lat="45.393634" lon="4.456499"><ele>261.7</ele><time>2008-29-09T10:44:16Z</time></trkpt>
<trkpt lat="45.393668" lon="4.456479"><ele>262.9</ele><time>2008-29-09T10:44:17Z</time></trkpt>
<trkpt lat="45.393699" lon="4.456455"><ele>264.1</ele><time>2008-29-09T10:44:18Z</time></trkpt>
<trkpt lat="45.39373" lon="4.456431"><ele>263.5</ele><time>2008-29-09T10:44:19Z</time></trkpt>
<trkpt lat="45.393765" lon="4.456405"><ele>262</ele><time>2008-29-09T10:44:20Z</time></trkpt>
<trkpt lat="45.393796" lon="4.456381"><ele>261.8</ele><time>2008-29-09T10:44:21Z</time></trkpt>
<trkpt lat="45.393826" lon="4.456356"><ele>261.7</ele><time>2008-29-09T10:44:22Z</time></trkpt>
<trkpt lat="45.393852" lon="4.456334"><ele>261.4</ele><time>2008-29-09T10:44:23Z</time></trkpt>
<trkpt lat="45.393874" lon="4.456311"><ele>262.1</ele><time>2008-29-09T10:44:24Z</time></trkpt>
<trkpt lat="45.393894" lon="4.456296"><ele>263.6</ele><time>2008-29-09T10:44:25Z</time></trkpt>
<trkpt lat="45.393911" lon="4.456285"><ele>263.9</ele><time>2008-29-09T10:44:26Z</time></trkpt>
<trkpt lat="45.39393" lon="4.45628"><ele>263.5</ele><time>2008-29-09T10:44:27Z</time></trkpt>
<trkpt lat="45.39395" lon="4.456291"><ele>265</ele><time>2008-29-09T10:44:28Z</time></trkpt>
<trkpt lat="45.393973" lon="4.456306"><ele>267.6</ele><time>2008-29-09T10:44:29Z</time></trkpt>
<trkpt lat="45.393999" lon="4.456332"><ele>267.7</ele><time>2008-29-09T10:44:30Z</time></trkpt>
<trkpt lat="45.394028" lon="4.456363"><ele>258</ele><time>2008-29-09T10:44:31Z</time></trkpt>
<trkpt lat="45.394057" lon="4.456422"><ele>254</ele><time>2008-29-09T10:44:32Z</time></trkpt>
<trkpt lat="45.394085" lon="4.456465"><ele>252</ele><time>2008-29-09T10:44:33Z</time></trkpt>
<trkpt lat="45.394113" lon="4.456509"><ele>250.1</ele><time>2008-29-09T10:44:34Z</time></trkpt>
<trkpt lat="45.394141" lon="4.456557"><ele>250.2</ele><time>2008-29-09T10:44:35Z</time></trkpt>
<trkpt lat="45.394168" lon="4.456599"><ele>250.2</ele><time>2008-29-09T10:44:36Z</time></trkpt>
<trkpt lat="45.394195" lon="4.456649"><ele>250.6</ele><time>2008-29-09T10:44:37Z</time></trkpt>
<trkpt lat="45.394222" lon="4.456693"><ele>249.8</ele><time>2008-29-09T10:44:38Z</time></trkpt>
<trkpt lat="45.394249" lon="4.456742"><ele>248.8</ele><time>2008-29-09T10:44:39Z</time></trkpt>
<trkpt lat="45.394276" lon="4.45679"><ele>247.3</ele><time>2008-29-09T10:44:40Z</time></trkpt>
<trkpt lat="45.394301" lon="4.456839"><ele>247.7</ele><time>2008-29-09T10:44:41Z</time></trkpt>
<trkpt lat="45.394324" lon="4.456884"><ele>248.4</ele><time>2008-29-09T10:44:42Z</time></trkpt>
<trkpt lat="45.394342" lon="4.456926"><ele>248</ele><time>2008-29-09T10:44:43Z</time></trkpt>
<trkpt lat="45.394358" lon="4.45697"><ele>249.7</ele><time>2008-29-09T10:44:44Z</time></trkpt>
<trkpt lat="45.394373" lon="4.457014"><ele>250.2</ele><time>2008-29-09T10:44:45Z</time></trkpt>
<trkpt lat="45.394389" lon="4.457058"><ele>250.9</ele><time>2008-29-09T10:44:46Z</time></trkpt>
<trkpt lat="45.394403" lon="4.457104"><ele>250.7</ele><time>2008-29-09T10:44:47Z</time></trkpt>
<trkpt lat="45.394416" lon="4.457148"><ele>249.4</ele><time>2008-29-09T10:44:48Z</time></trkpt>
<trkpt lat="45.394432" lon="4.457179"><ele>249.9</ele><time>2008-29-09T10:44:49Z</time></trkpt>
<trkpt lat="45.39445" lon="4.457195"><ele>248.7</ele><time>2008-29-09T10:44:50Z</time></trkpt>
<trkpt lat="45.394473" lon="4.457196"><ele>248</ele><time>2008-29-09T10:44:51Z</time></trkpt>
<trkpt lat="45.394494" lon="4.457185"><ele>250.9</ele><time>2008-29-09T10:44:52Z</time></trkpt>
<trkpt lat="45.394517" lon="4.457175"><ele>253.9</ele><time>2008-29-09T10:44:53Z</time></trkpt>
<trkpt lat="45.394539" lon="4.457163"><ele>255.2</ele><time>2008-29-09T10:44:54Z</time></trkpt>
<trkpt lat="45.394564" lon="4.457146"><ele>255.3</ele><time>2008-29-09T10:44:55Z</time></trkpt>
<trkpt lat="45.394591" lon="4.457129"><ele>255.3</ele><time>2008-29-09T10:44:56Z</time></trkpt>
<trkpt lat="45.394609" lon="4.457102"><ele>256.3</ele><time>2008-29-09T10:44:57Z</time></trkpt>
<trkpt lat="45.394618" lon="4.457075"><ele>256.2</ele><time>2008-29-09T10:44:58Z</time></trkpt>
<trkpt lat="45.394618" lon="4.457044"><ele>256.8</ele><time>2008-29-09T10:44:59Z</time></trkpt>
<trkpt lat="45.394609" lon="4.457023"><ele>258.2</ele><time>2008-29-09T10:45:00Z</time></trkpt>
<trkpt lat="45.394596" lon="4.457019"><ele>259</ele><time>2008-29-09T10:45:01Z</time></trkpt>
<trkpt lat="45.394578" lon="4.457035"><ele>257.5</ele><time>2008-29-09T10:45:02Z</time></trkpt>
<trkpt lat="45.394558" lon="4.457054"><ele>257.6</ele><time>2008-29-09T10:45:03Z</time></trkpt>
<trkpt lat="45.394533" lon="4.457066"><ele>257.6</ele><time>2008-29-09T10:45:04Z</time></trkpt>
<trkpt lat="45.39451" lon="4.457078"><ele>255.5</ele><time>2008-29-09T10:45:05Z</time></trkpt>
<trkpt lat="45.394479" lon="4.457086"><ele>255.7</ele><time>2008-29-09T10:45:06Z</time></trkpt>
<trkpt lat="45.394455" lon="4.457064"><ele>256</ele><time>2008-29-09T10:45:07Z</time></trkpt>
<trkpt lat="45.394443" lon="4.45703"><ele>254.9</ele><time>2008-29-09T10:45:08Z</time></trkpt>
<trkpt lat="45.394438" lon="4.45698"><ele>253.6</ele><time>2008-29-09T10:45:09Z</time></trkpt>
<trkpt lat="45.394434" lon="4.456935"><ele>253.6</ele><time>2008-29-09T10:45:10Z</time></trkpt>
<trkpt lat="45.394432" lon="4.456898"><ele>254.2</ele><time>2008-29-09T10:45:11Z</time></trkpt>
<trkpt lat="45.39444" lon="4.456862"><ele>255.2</ele><time>2008-29-09T10:45:12Z</time></trkpt>
<trkpt lat="45.394455" lon="4.456824"><ele>256.4</ele><time>2008-29-09T10:45:13Z</time></trkpt>
<trkpt lat="45.394476" lon="4.456797"><ele>257.1</ele><time>2008-29-09T10:45:14Z</time></trkpt>
<trkpt lat="45.3945" lon="4.456775"><ele>259.2</ele><time>2008-29-09T10:45:15Z</time></trkpt>
<trkpt lat="45.394532" lon="4.456768"><ele>260.3</ele><time>2008-29-09T10:45:16Z</time></trkpt>
<trkpt lat="45.394565" lon="4.456762"><ele>261</ele><time>2008-29-09T10:45:17Z</time></trkpt>
<trkpt lat="45.394593" lon="4.456757"><ele>259.8</ele><time>2008-29-09T10:45:18Z</time></trkpt>
<trkpt lat="45.394619" lon="4.456741"><ele>259.4</ele><time>2008-29-09T10:45:19Z</time></trkpt>
<trkpt lat="45.394644" lon="4.456736"><ele>258.9</ele><time>2008-29-09T10:45:20Z</time></trkpt>
<trkpt lat="45.394665" lon="4.456722"><ele>257.7</ele><time>2008-29-09T10:45:21Z</time></trkpt>
<trkpt lat="45.394688" lon="4.456717"><ele>255.9</ele><time>2008-29-09T10:45:22Z</time></trkpt>
<trkpt lat="45.394709" lon="4.456714"><ele>256.2</ele><time>2008-29-09T10:45:23Z</time></trkpt>
<trkpt lat="45.394726" lon="4.456712"><ele>258.9</ele><time>2008-29-09T10:45:24Z</time></trkpt>
<trkpt lat="45.394738" lon="4.456708"><ele>261.2</ele><time>2008-29-09T10:45:25Z</time></trkpt>
<trkpt lat="45.394746" lon="4.456706"><ele>261.4</ele><time>2008-29-09T10:45:26Z</time></trkpt>
<trkpt lat="45.394752" lon="4.456706"><ele>261.4</ele><time>2008-29-09T10:45:27Z</time></trkpt>
<trkpt lat="45.394752" lon="4.456706"><ele>261.4</ele><time>2008-29-09T10:45:28Z</time></trkpt>
<trkpt lat="45.394752" lon="4.456706"><ele>261.4</ele><time>2008-29-09T10:45:29Z</time></trkpt>
<trkpt lat="45.394752" lon="4.456706"><ele>261.4</ele><time>2008-29-09T10:45:30Z</time></trkpt>
<trkpt lat="45.394752" lon="4.456706"><ele>261.4</ele><time>2008-29-09T10:45:31Z</time></trkpt>
<trkpt lat="45.394752" lon="4.456706"><ele>261.4</ele><time>2008-29-09T10:45:32Z</time></trkpt>
</trkseg></trk></gpx>